[[{"header":{"parameterUnit":"m.s-1","parameterCategory":1,"la1":31.0,"la2":29.5877,"lo1":-88.7671,"lo2":-86.6584,"dy":0.0162,"dx":0.0185,"nx":115,"ny":88,"refTime":"2024-03-10T06:00:00:Z","depth":0,"parameterNumber":2,"parameterNumberName":"U-component_of_WINDS"},"data":[0.0,0.0,0.0,0.0,0.0,0.0,0.0,0.0,0.0,0.0,0.0,0.0,0.0,0.0,0.0,0.0,0.0,0.0,0.0,0.0,0.0,0.0,0.0,0.0,0.0,0.0,0.0,0.0,0.0,0.0,0.0,0.0,0.0,0.0,0.0,0.0,0.0,0.0,0.0,0.0,0.0,0.0,0.0,0.0,0.0,0.0,0.0,0.0,0.0,0.0,0.0,0.0,0.0,0.0,0.0,0.0,0.0,0.0,0.0,0.0,0.0,0.0,0.0,0.0,0.0,0.0,0.0,0.0,0.0,0.0,0.0,0.0,0.0,0.0,0.0,0.0,0.0,0.0,0.0,0.0,0.0,0.0,0.0,0.0,0.0,0.0,0.0,0.0,0.0,0.0,0.0,0.0,0.0,0.0,0.0,0.0,0.0,0.0,0.0,0.0,0.0,0.0,0.0,0.0,0.0,0.0,0.0,0.0,0.0,0.0,0.0,0.0,0.0,0.0,0.0,0.0,0.0,0.0,0.0,0.0,0.0,0.0,0.0,0.0,0.0,0.0,0.0,0.0,0.0,0.0,0.0,0.0,0.0,0.0,0.0,0.0,0.0,0.0,0.0,0.0,0.0,0.0,0.0,0.0,0.0,0.0,0.0,0.0,0.0,0.0,0.0,0.0,0.0,0.0,0.0,0.0,0.0,0.0,0.0,0.0,0.0,0.0,0.0,0.0,0.0,0.0,0.0,0.0,0.0,0.0,0.0,0.0,0.0,0.0,0.0,0.0,0.0,0.0,0.0,0.0,0.0,0.0,0.0,0.0,0.0,0.0,0.0,0.0,0.0,0.0,0.0,0.0,0.0,0.0,0.0,0.0,0.0,0.0,0.0,0.0,0.0,0.0,0.0,0.0,0.0,0.0,0.0,0.0,0.0,0.0,0.0,0.0,0.0,0.0,0.0,0.0,0.0,0.0,0.0,0.0,0.0,0.0,0.0,0.0,0.0,0.0,0.0,0.0,0.0,0.0,0.0,0.0,0.0,0.0,0.0,0.0,0.0,0.0,0.0,0.0,0.0,0.0,0.0,0.0,0.0,0.0,0.0,0.0,0.0,0.0,0.0,0.0,0.0,0.0,0.0,0.0,0.0,0.0,0.0,0.0,0.0,0.0,0.0,0.0,0.0,0.0,0.0,0.0,0.0,0.0,0.0,0.0,0.0,0.0,0.0,0.0,0.0,0.0,0.0,0.0,0.0,0.0,0.0,0.0,0.0,0.0,0.0,0.0,0.0,0.0,0.0,0.0,0.0,0.0,0.0,0.0,0.0,0.0,0.0,0.0,0.0,0.0,0.0,0.0,0.0,0.0,0.0,0.0,0.0,0.0,0.0,0.0,0.0,0.0,0.0,0.0,0.0,0.0,0.0,0.0,0.0,0.0,0.0,0.0,0.0,0.0,0.0,0.0,0.0,0.0,0.0,0.0,0.0,0.0,0.0,0.0,0.0,0.0,0.0,0.0,0.0,0.0,0.0,0.0,0.0,0.0,0.0,0.0,0.0,0.0,0.0,0.0,0.0,0.0,0.0,0.0,0.0,0.0,0.0,0.0,0.0,0.0,0.0,0.0,0.0,0.0,0.0,0.0,0.0,0.0,0.0,0.0,0.0,0.0,0.0,0.0,0.0,0.0,0.0,0.0,0.0,0.0,0.0,0.0,0.0,0.0,0.0,0.0,0.0,0.0,0.0,0.0,0.0,0.0,0.0,0.0,0.0,0.0,0.0,0.0,0.0,0.0,0.0,0.0,0.0,0.0,0.0,0.0,0.0,0.0,0.0,0.0,0.0,0.0,0.0,0.0,0.0,0.0,0.0,0.0,0.0,0.0,0.0,0.0,0.0,0.0,0.0,0.0,0.0,0.0,0.0,0.0,0.0,0.0,0.0,0.0,0.0,0.0,0.0,0.0,0.0,0.0,0.0,0.0,0.0,0.0,0.0,0.0,0.0,0.0,0.0,0.0,0.0,0.0,0.0,0.0,0.0,0.0,0.0,0.0,0.0,0.0,0.0,0.0,0.0,0.0,0.0,0.0,0.0,0.0,0.0,0.0,0.0,0.0,0.0,0.0,0.0,0.0,0.0,0.0,0.0,0.0,0.0,0.0,0.0,0.0,0.0,0.0,0.0,0.0,0.0,0.0,0.0,0.0,0.0,0.0,0.0,0.0,0.0,0.0,0.0,0.0,0.0,0.0,0.0,0.0,0.0,0.0,0.0,0.0,0.0,0.0,0.0,0.0,0.0,0.0,0.0,0.0,0.0,0.0,0.0,0.0,0.0,0.0,0.0,0.0,0.0,0.0,0.0,0.0,0.0,0.0,0.0,0.0,0.0,0.0,0.0,0.0,0.0,0.0,0.0,0.0,0.0,0.0,0.0,0.0,0.0,0.0,0.0,0.0,0.0,0.0,0.0,0.0,0.0,0.0,0.0,0.0,0.0,0.0,0.0,0.0,0.0,0.0,0.0,0.0,0.0,0.0,0.0,0.0,0.0,0.0,0.0,0.0,0.0,0.0,0.0,0.0,0.0,0.0,0.0,0.0,0.0,0.0,0.0,0.0,0.0,0.0,0.0,0.0,0.0,0.0,0.0,0.0,0.0,0.0,0.0,0.0,0.0,0.0,0.0,0.0,0.0,0.0,0.0,0.0,0.0,0.0,0.0,0.0,0.0,0.0,0.0,0.0,0.0,0.0,0.0,0.0,0.0,0.0,0.0,0.0,0.0,0.0,0.0,0.0,0.0,0.0,0.0,0.0,0.0,0.0,0.0,0.0,0.0,0.0,0.0,0.0,0.0,0.0,0.0,0.0,0.0,0.0,0.0,0.0,0.0,0.0,0.0,0.0,0.0,0.0,0.0,0.0,0.0,0.0,0.0,0.0,0.0,0.0,0.0,0.0,0.0,0.0,0.0,0.0,0.0,0.0,0.0,0.0,0.0,0.0,0.0,0.0,0.0,0.0,0.0,0.0,0.0,0.0,0.0,0.0,0.0,0.0,0.0,0.0,0.0,0.0,0.0,0.0,0.0,0.0,0.0,0.0,0.0,0.0,0.0,0.0,0.0,0.0,0.0,0.0,0.0,0.0,0.0,0.0,0.0,0.0,0.0,0.0,0.0,0.0,0.0,0.0,0.0,0.0,0.0,0.0,0.0,0.0,0.0,0.0,0.0,0.0,0.0,0.0,0.0,0.0,0.0,0.0,0.0,0.0,0.0,0.0,0.0,0.0,0.0,0.0,0.0,0.0,0.0,0.0,0.0,0.0,0.0,0.0,0.0,0.0,0.0,0.0,0.0,0.0,0.0,0.0,0.0,0.0,0.0,0.0,0.0,0.0,0.0,0.0,0.0,0.0,0.0,0.0,0.0,0.0,0.0,0.0,0.0,0.0,0.0,0.0,0.0,0.0,0.0,0.0,0.0,0.0,0.0,0.0,0.0,0.0,0.0,0.0,0.0,0.0,0.0,0.0,0.0,0.0,0.0,0.0,0.0,0.0,0.0,0.0,0.0,0.0,0.0,0.0,0.0,0.0,0.0,0.0,0.0,0.0,0.0,0.0,0.0,0.0,0.0,0.0,0.0,0.0,0.0,0.0,0.0,0.0,0.0,0.0,0.0,0.0,0.0,0.0,0.0,0.0,0.0,0.0,0.0,0.0,0.0,0.0,0.0,0.0,0.0,0.0,0.0,0.0,0.0,0.0,0.0,0.0,0.0,0.0,0.0,0.0,0.0,0.0,0.0,0.0,0.0,0.0,0.0,0.0,0.0,0.0,0.0,0.0,0.0,0.0,0.0,0.0,0.0,0.0,0.0,0.0,0.0,0.0,0.0,0.0,0.0,0.0,0.0,0.0,0.0,0.0,0.0,0.0,0.0,0.0,0.0,0.0,0.0,0.0,0.0,0.0,0.0,0.0,0.0,0.0,0.0,0.0,0.0,0.0,0.0,0.0,0.0,0.0,0.0,0.0,0.0,0.0,0.0,0.0,0.0,0.0,0.0,0.0,0.0,0.0,0.0,0.0,0.0,0.0,0.0,0.0,0.0,0.0,0.0,0.0,0.0,0.0,0.0,0.0,0.0,0.0,0.0,0.0,0.0,0.0,0.0,0.0,0.0,0.0,0.0,0.0,0.0,0.0,0.0,0.0,0.0,0.0,0.0,0.0,0.0,0.0,0.0,0.0,0.0,0.0,0.0,0.0,0.0,0.0,0.0,0.0,0.0,0.0,0.0,0.0,0.0,0.0,0.0,0.0,-1.7204,0.0,0.0,0.0,0.0,0.0,0.0,0.0,0.0,0.0,0.0,0.0,0.0,0.0,0.0,0.0,0.0,0.0,0.0,0.0,0.0,0.0,0.0,0.0,0.0,0.0,0.0,0.0,0.0,0.0,0.0,0.0,0.0,0.0,0.0,0.0,0.0,0.0,0.0,0.0,0.0,0.0,0.0,0.0,0.0,0.0,0.0,0.0,0.0,0.0,0.0,0.0,0.0,0.0,0.0,0.0,0.0,0.0,0.0,0.0,0.0,0.0,0.0,0.0,0.0,0.0,0.0,0.0,0.0,0.0,0.0,0.0,0.0,0.0,0.0,0.0,0.0,0.0,0.0,0.0,0.0,0.0,0.0,0.0,0.0,0.0,0.0,0.0,0.0,0.0,0.0,0.0,0.0,0.0,0.0,0.0,0.0,0.0,0.0,0.0,0.0,0.0,0.0,0.0,0.0,0.0,0.0,0.0,0.0,0.0,0.0,-1.8078,-1.8166,-1.794,-1.7595,-1.7182,0.0,0.0,0.0,0.0,0.0,0.0,0.0,0.0,0.0,0.0,0.0,0.0,0.0,0.0,0.0,0.0,0.0,0.0,0.0,0.0,0.0,0.0,0.0,0.0,0.0,0.0,0.0,0.0,0.0,0.0,0.0,0.0,0.0,0.0,0.0,0.0,0.0,0.0,0.0,0.0,0.0,0.0,0.0,0.0,0.0,0.0,0.0,0.0,0.0,0.0,0.0,0.0,0.0,0.0,0.0,0.0,0.0,0.0,0.0,0.0,0.0,0.0,0.0,0.0,0.0,0.0,0.0,0.0,0.0,0.0,0.0,0.0,0.0,0.0,0.0,0.0,0.0,0.0,0.0,0.0,0.0,0.0,0.0,0.0,0.0,0.0,0.0,0.0,0.0,0.0,0.0,0.0,0.0,0.0,0.0,0.0,0.0,0.0,0.0,0.0,0.0,0.0,0.0,0.0,0.0,0.0,0.0,0.0,0.0,0.0,0.0,0.0,-1.8032,-1.7591,-1.6839,0.0,0.0,0.0,0.0,0.0,0.0,0.0,0.0,0.0,0.0,0.0,0.0,0.0,0.0,0.0,0.0,0.0,0.0,0.0,0.0,0.0,0.0,0.0,0.0,0.0,0.0,0.0,0.0,0.0,0.0,0.0,0.0,0.0,0.0,0.0,0.0,0.0,0.0,0.0,0.0,0.0,0.0,0.0,0.0,0.0,0.0,0.0,0.0,0.0,0.0,0.0,0.0,0.0,0.0,0.0,0.0,0.0,0.0,0.0,0.0,0.0,0.0,0.0,0.0,0.0,0.0,0.0,0.0,0.0,0.0,0.0,0.0,0.0,0.0,0.0,0.0,0.0,0.0,0.0,0.0,0.0,0.0,0.0,0.0,0.0,0.0,0.0,0.0,0.0,0.0,0.0,0.0,0.0,0.0,0.0,0.0,0.0,0.0,0.0,0.0,0.0,0.0,0.0,0.0,0.0,0.0,0.0,0.0,0.0,0.0,-1.8553,-1.8883,-1.8413,0.0,-1.6338,0.0,0.0,0.0,0.0,0.0,0.0,0.0,0.0,0.0,0.0,0.0,0.0,0.0,0.0,0.0,0.0,0.0,0.0,0.0,0.0,0.0,0.0,0.0,0.0,0.0,0.0,0.0,0.0,0.0,0.0,0.0,0.0,0.0,0.0,0.0,0.0,0.0,0.0,0.0,0.0,0.0,0.0,0.0,0.0,0.0,0.0,0.0,0.0,0.0,0.0,0.0,0.0,0.0,0.0,0.0,0.0,0.0,0.0,0.0,0.0,0.0,0.0,0.0,0.0,0.0,0.0,0.0,0.0,0.0,0.0,0.0,0.0,0.0,0.0,0.0,0.0,0.0,0.0,0.0,0.0,0.0,0.0,0.0,0.0,0.0,0.0,0.0,0.0,0.0,0.0,0.0,0.0,0.0,0.0,0.0,0.0,0.0,0.0,0.0,0.0,0.0,0.0,0.0,0.0,0.0,0.0,0.0,0.0,0.0,0.0,-1.8466,-1.836,-1.7568,-1.6877,0.0,0.0,0.0,0.0,0.0,0.0,0.0,0.0,0.0,0.0,0.0,0.0,0.0,0.0,0.0,0.0,0.0,0.0,0.0,0.0,0.0,0.0,0.0,0.0,0.0,0.0,0.0,0.0,0.0,0.0,0.0,0.0,0.0,0.0,0.0,0.0,0.0,0.0,0.0,0.0,0.0,0.0,0.0,0.0,0.0,0.0,0.0,0.0,0.0,0.0,0.0,0.0,0.0,0.0,0.0,0.0,0.0,0.0,0.0,0.0,0.0,0.0,0.0,0.0,0.0,0.0,0.0,0.0,0.0,0.0,0.0,0.0,0.0,0.0,0.0,0.0,0.0,0.0,0.0,0.0,0.0,0.0,0.0,0.0,0.0,0.0,0.0,0.0,0.0,0.0,0.0,0.0,0.0,0.0,0.0,0.0,0.0,0.0,0.0,0.0,0.0,0.0,0.0,0.0,0.0,0.0,0.0,0.0,0.0,0.0,-1.7682,-1.8016,-1.7688,-1.674,-1.6224,-1.6174,0.0,0.0,0.0,0.0,0.0,0.0,0.0,0.0,0.0,0.0,0.0,0.0,0.0,0.0,0.0,0.0,0.0,0.0,0.0,0.0,0.0,0.0,0.0,0.0,0.0,0.0,0.0,0.0,0.0,0.0,0.0,0.0,0.0,0.0,0.0,0.0,0.0,0.0,0.0,0.0,0.0,0.0,0.0,0.0,0.0,0.0,0.0,0.0,0.0,0.0,0.0,0.0,0.0,0.0,0.0,0.0,0.0,0.0,0.0,0.0,0.0,0.0,0.0,0.0,0.0,0.0,0.0,0.0,0.0,0.0,0.0,0.0,0.0,0.0,0.0,0.0,0.0,0.0,0.0,0.0,0.0,0.0,0.0,0.0,0.0,0.0,0.0,0.0,0.0,0.0,0.0,0.0,0.0,0.0,0.0,0.0,0.0,0.0,0.0,0.0,0.0,0.0,0.0,0.0,0.0,0.0,0.0,0.0,-1.6247,-1.68,-1.7122,-1.7213,-1.6306,-1.5778,0.0,0.0,0.0,0.0,0.0,0.0,0.0,0.0,0.0,0.0,0.0,0.0,0.0,0.0,0.0,0.0,0.0,0.0,0.0,0.0,0.0,0.0,0.0,0.0,0.0,0.0,0.0,0.0,0.0,0.0,0.0,0.0,0.0,0.0,0.0,0.0,0.0,0.0,0.0,0.0,0.0,0.0,0.0,0.0,0.0,0.0,0.0,0.0,0.0,0.0,0.0,0.0,0.0,0.0,0.0,0.0,0.0,0.0,0.0,0.0,0.0,0.0,0.0,0.0,0.0,0.0,0.0,0.0,0.0,0.0,0.0,0.0,0.0,0.0,0.0,0.0,0.0,0.0,0.0,0.0,0.0,0.0,0.0,0.0,0.0,0.0,0.0,0.0,0.0,0.0,0.0,0.0,0.0,0.0,0.0,0.0,0.0,0.0,0.0,0.0,0.0,0.0,0.0,0.0,0.0,0.0,0.0,0.0,0.0,-1.5964,-1.6483,-1.6794,-1.6916,-1.5946,-1.5429,0.0,0.0,0.0,0.0,0.0,0.0,0.0,0.0,0.0,0.0,0.0,0.0,0.0,0.0,0.0,0.0,0.0,0.0,0.0,0.0,0.0,0.0,0.0,0.0,0.0,0.0,0.0,0.0,0.0,0.0,0.0,0.0,0.0,0.0,0.0,0.0,0.0,0.0,0.0,0.0,0.0,0.0,0.0,0.0,0.0,0.0,0.0,0.0,0.0,0.0,0.0,0.0,0.0,0.0,0.0,0.0,0.0,0.0,0.0,0.0,0.0,0.0,0.0,0.0,0.0,0.0,0.0,0.0,0.0,0.0,0.0,0.0,0.0,0.0,0.0,0.0,0.0,0.0,0.0,0.0,0.0,0.0,0.0,0.0,0.0,0.0,0.0,0.0,0.0,0.0,0.0,0.0,0.0,0.0,0.0,0.0,0.0,0.0,0.0,0.0,0.0,0.0,0.0,0.0,0.0,0.0,0.0,0.0,0.0,-1.5682,0.0,-1.6406,-1.6616,-1.5819,-1.5337,0.0,0.0,0.0,0.0,0.0,0.0,0.0,0.0,0.0,0.0,0.0,0.0,0.0,0.0,0.0,0.0,0.0,0.0,0.0,0.0,0.0,0.0,0.0,0.0,0.0,0.0,0.0,0.0,0.0,0.0,0.0,0.0,0.0,0.0,0.0,0.0,0.0,0.0,0.0,0.0,0.0,0.0,0.0,0.0,0.0,0.0,0.0,0.0,0.0,0.0,0.0,0.0,0.0,0.0,0.0,0.0,0.0,0.0,0.0,0.0,0.0,0.0,0.0,0.0,0.0,0.0,0.0,0.0,0.0,0.0,0.0,0.0,0.0,0.0,0.0,0.0,0.0,0.0,0.0,0.0,0.0,0.0,0.0,0.0,0.0,0.0,0.0,0.0,0.0,0.0,0.0,0.0,0.0,0.0,0.0,0.0,0.0,0.0,0.0,0.0,0.0,0.0,0.0,0.0,0.0,0.0,0.0,0.0,-1.4919,-1.5409,-1.5639,-1.6008,-1.6392,-1.5967,-1.5484,0.0,0.0,0.0,0.0,0.0,0.0,0.0,0.0,0.0,0.0,0.0,0.0,0.0,0.0,0.0,0.0,0.0,0.0,0.0,0.0,0.0,0.0,0.0,0.0,0.0,0.0,0.0,0.0,0.0,0.0,0.0,0.0,0.0,0.0,0.0,0.0,0.0,0.0,0.0,0.0,0.0,0.0,0.0,0.0,0.0,0.0,0.0,0.0,0.0,0.0,0.0,0.0,0.0,0.0,0.0,0.0,0.0,0.0,0.0,0.0,0.0,0.0,0.0,0.0,0.0,0.0,0.0,0.0,0.0,0.0,0.0,0.0,0.0,0.0,0.0,0.0,0.0,0.0,0.0,0.0,0.0,0.0,0.0,0.0,0.0,0.0,0.0,0.0,0.0,0.0,0.0,0.0,0.0,0.0,0.0,0.0,0.0,0.0,0.0,0.0,0.0,0.0,0.0,0.0,0.0,0.0,0.0,0.0,0.0,-1.6344,-1.6527,-1.6665,-1.6789,-1.6394,-1.5949,0.0,0.0,0.0,0.0,0.0,0.0,0.0,0.0,0.0,0.0,0.0,0.0,0.0,0.0,0.0,0.0,0.0,0.0,0.0,0.0,0.0,0.0,0.0,0.0,0.0,0.0,0.0,0.0,0.0,0.0,0.0,0.0,0.0,0.0,0.0,0.0,0.0,0.0,0.0,0.0,0.0,0.0,0.0,0.0,0.0,0.0,0.0,0.0,0.0,0.0,0.0,0.0,0.0,0.0,0.0,0.0,0.0,0.0,0.0,0.0,0.0,0.0,0.0,0.0,0.0,0.0,0.0,0.0,0.0,0.0,0.0,0.0,0.0,0.0,0.0,0.0,0.0,0.0,0.0,0.0,0.0,0.0,0.0,0.0,0.0,0.0,0.0,0.0,0.0,0.0,0.0,0.0,0.0,0.0,0.0,0.0,0.0,0.0,0.0,0.0,0.0,0.0,0.0,0.0,0.0,0.0,0.0,0.0,0.0,-1.718,-1.7063,-1.7099,-1.7265,-1.6831,-1.6415,-1.5977,0.0,0.0,0.0,0.0,0.0,0.0,0.0,0.0,0.0,0.0,0.0,0.0,0.0,0.0,0.0,0.0,0.0,0.0,0.0,0.0,0.0,0.0,0.0,0.0,0.0,0.0,0.0,0.0,0.0,0.0,0.0,0.0,0.0,0.0,0.0,0.0,0.0,0.0,0.0,0.0,0.0,0.0,0.0,0.0,0.0,0.0,0.0,0.0,0.0,0.0,0.0,0.0,0.0,0.0,0.0,0.0,0.0,0.0,0.0,0.0,0.0,0.0,0.0,0.0,0.0,0.0,0.0,0.0,0.0,0.0,0.0,0.0,0.0,0.0,0.0,0.0,0.0,0.0,0.0,0.0,0.0,0.0,0.0,0.0,0.0,0.0,0.0,0.0,0.0,0.0,0.0,0.0,0.0,0.0,0.0,0.0,0.0,0.0,0.0,0.0,0.0,0.0,0.0,0.0,0.0,0.0,0.0,0.0,-1.7915,-1.7387,-1.7337,-1.7719,-1.7285,-1.6841,0.0,0.0,0.0,0.0,0.0,0.0,0.0,0.0,0.0,0.0,0.0,0.0,0.0,0.0,0.0,0.0,0.0,0.0,0.0,0.0,0.0,0.0,0.0,0.0,0.0,0.0,0.0,0.0,0.0,0.0,0.0,0.0,0.0,0.0,0.0,0.0,0.0,0.0,0.0,0.0,0.0,0.0,0.0,0.0,0.0,0.0,0.0,0.0,0.0,0.0,0.0,0.0,0.0,0.0,0.0,0.0,0.0,0.0,0.0,0.0,0.0,0.0,0.0,0.0,0.0,0.0,0.0,0.0,0.0,0.0,0.0,0.0,0.0,0.0,0.0,0.0,0.0,0.0,0.0,0.0,0.0,0.0,0.0,0.0,0.0,0.0,0.0,0.0,0.0,0.0,0.0,0.0,0.0,0.0,0.0,0.0,0.0,0.0,0.0,0.0,0.0,0.0,0.0,0.0,0.0,0.0,0.0,0.0,0.0,-1.8417,-1.8487,-1.8433,-1.8216,-1.775,-1.7306,0.0,0.0,0.0,0.0,0.0,0.0,0.0,0.0,0.0,0.0,0.0,0.0,0.0,0.0,0.0,0.0,0.0,0.0,0.0,0.0,0.0,0.0,0.0,0.0,0.0,0.0,0.0,0.0,0.0,0.0,0.0,0.0,0.0,0.0,0.0,0.0,0.0,0.0,0.0,0.0,0.0,0.0,0.0,0.0,0.0,0.0,0.0,0.0,0.0,0.0,0.0,0.0,0.0,0.0,0.0,0.0,0.0,0.0,0.0,0.0,0.0,0.0,0.0,0.0,0.0,0.0,0.0,0.0,0.0,0.0,0.0,0.0,0.0,0.0,0.0,0.0,0.0,0.0,0.0,0.0,0.0,0.0,0.0,0.0,0.0,0.0,0.0,0.0,0.0,0.0,0.0,0.0,0.0,0.0,0.0,0.0,0.0,0.0,0.0,0.0,0.0,0.0,0.0,0.0,0.0,0.0,0.0,0.0,-1.8114,-1.8499,-1.8903,-1.8973,-1.8704,-1.8247,-1.7771,0.0,0.0,0.0,0.0,0.0,0.0,0.0,0.0,0.0,0.0,0.0,0.0,0.0,0.0,0.0,0.0,0.0,0.0,0.0,0.0,0.0,0.0,0.0,0.0,0.0,0.0,0.0,0.0,0.0,0.0,0.0,0.0,0.0,0.0,0.0,0.0,0.0,0.0,0.0,0.0,0.0,0.0,0.0,0.0,0.0,0.0,0.0,0.0,0.0,0.0,0.0,0.0,0.0,0.0,0.0,0.0,0.0,0.0,0.0,0.0,0.0,0.0,0.0,0.0,0.0,0.0,0.0,0.0,0.0,0.0,0.0,0.0,0.0,0.0,0.0,0.0,0.0,0.0,0.0,0.0,0.0,0.0,0.0,0.0,0.0,0.0,0.0,0.0,0.0,0.0,0.0,0.0,0.0,0.0,0.0,0.0,0.0,0.0,0.0,0.0,0.0,0.0,0.0,0.0,0.0,0.0,0.0,0.0,-1.8072,-1.8476,-1.888,-1.9098,-1.9088,-1.8652,-1.8175,0.0,0.0,0.0,0.0,0.0,0.0,0.0,0.0,0.0,0.0,0.0,0.0,0.0,0.0,0.0,0.0,0.0,0.0,0.0,0.0,0.0,0.0,0.0,0.0,0.0,0.0,0.0,0.0,0.0,0.0,0.0,0.0,0.0,0.0,0.0,0.0,0.0,0.0,0.0,0.0,0.0,0.0,0.0,0.0,0.0,0.0,0.0,0.0,0.0,0.0,0.0,0.0,0.0,0.0,0.0,0.0,0.0,0.0,0.0,0.0,0.0,0.0,0.0,0.0,0.0,0.0,0.0,0.0,0.0,0.0,0.0,0.0,0.0,0.0,0.0,0.0,0.0,0.0,0.0,0.0,0.0,0.0,0.0,0.0,0.0,0.0,0.0,0.0,0.0,0.0,0.0,0.0,0.0,0.0,0.0,0.0,0.0,0.0,0.0,0.0,0.0,0.0,0.0,0.0,0.0,0.0,0.0,0.0,-1.8112,-1.8932,-1.9056,-1.9098,-1.9098,-1.8652,-1.8175,0.0,0.0,0.0,0.0,0.0,0.0,0.0,0.0,0.0,0.0,0.0,0.0,0.0,0.0,0.0,0.0,0.0,0.0,0.0,0.0,0.0,0.0,0.0,0.0,0.0,0.0,0.0,0.0,0.0,0.0,0.0,0.0,0.0,0.0,0.0,0.0,0.0,0.0,0.0,0.0,0.0,0.0,0.0,0.0,0.0,0.0,0.0,0.0,-1.5856,0.0,0.0,0.0,0.0,0.0,0.0,0.0,0.0,0.0,0.0,0.0,0.0,0.0,0.0,0.0,0.0,0.0,0.0,0.0,0.0,0.0,0.0,0.0,0.0,0.0,0.0,0.0,0.0,0.0,0.0,0.0,0.0,0.0,0.0,0.0,0.0,0.0,0.0,0.0,0.0,0.0,0.0,0.0,0.0,0.0,0.0,0.0,0.0,0.0,0.0,0.0,0.0,0.0,0.0,0.0,0.0,0.0,0.0,0.0,-1.8382,-1.9067,-1.9098,-1.9098,-1.9088,-1.887,-1.8402,0.0,0.0,0.0,0.0,0.0,0.0,0.0,0.0,0.0,0.0,0.0,0.0,0.0,0.0,0.0,0.0,0.0,0.0,0.0,0.0,0.0,0.0,0.0,0.0,0.0,0.0,0.0,0.0,0.0,0.0,0.0,0.0,0.0,0.0,0.0,0.0,0.0,0.0,0.0,0.0,0.0,0.0,0.0,0.0,0.0,0.0,0.0,0.0,0.0,0.0,0.0,0.0,0.0,0.0,0.0,0.0,0.0,0.0,0.0,0.0,0.0,0.0,0.0,0.0,0.0,0.0,0.0,0.0,0.0,0.0,0.0,0.0,0.0,0.0,0.0,0.0,0.0,0.0,0.0,0.0,0.0,0.0,0.0,0.0,0.0,0.0,0.0,0.0,0.0,0.0,0.0,0.0,0.0,0.0,0.0,0.0,0.0,0.0,0.0,0.0,0.0,0.0,0.0,0.0,0.0,0.0,0.0,-1.8154,-1.8631,-1.9077,-1.9098,-1.9098,-1.9098,-1.9098,-1.8651,-1.774,0.0,0.0,0.0,0.0,0.0,0.0,0.0,0.0,0.0,0.0,0.0,0.0,0.0,0.0,0.0,0.0,0.0,0.0,0.0,0.0,0.0,0.0,0.0,0.0,0.0,0.0,0.0,0.0,0.0,0.0,0.0,0.0,0.0,0.0,0.0,0.0,0.0,0.0,-1.4516,-1.5701,0.0,0.0,0.0,0.0,0.0,0.0,0.0,0.0,-1.6149,0.0,0.0,0.0,0.0,0.0,0.0,0.0,0.0,0.0,0.0,0.0,0.0,0.0,0.0,0.0,0.0,0.0,0.0,0.0,0.0,0.0,0.0,0.0,0.0,0.0,0.0,0.0,0.0,0.0,0.0,0.0,0.0,0.0,0.0,0.0,0.0,0.0,0.0,0.0,0.0,0.0,0.0,0.0,0.0,0.0,0.0,0.0,0.0,0.0,0.0,0.0,0.0,0.0,0.0,0.0,0.0,-1.7699,-1.8164,-1.8642,-1.9088,-1.9098,-1.9098,-1.9098,-1.9098,-1.8651,-1.7761,0.0,0.0,0.0,0.0,0.0,0.0,0.0,0.0,0.0,0.0,0.0,0.0,0.0,0.0,0.0,0.0,0.0,0.0,0.0,0.0,0.0,0.0,0.0,0.0,0.0,0.0,0.0,0.0,0.0,0.0,0.0,0.0,0.0,0.0,0.0,0.0,0.0,0.0,0.0,-1.6531,-1.7068,0.0,0.0,0.0,0.0,0.0,0.0,0.0,0.0,-1.6651,0.0,0.0,0.0,0.0,0.0,0.0,0.0,0.0,0.0,0.0,0.0,0.0,0.0,0.0,0.0,0.0,0.0,0.0,0.0,0.0,0.0,0.0,0.0,0.0,0.0,0.0,0.0,0.0,0.0,0.0,0.0,0.0,0.0,0.0,0.0,0.0,0.0,0.0,0.0,0.0,0.0,0.0,0.0,0.0,0.0,0.0,0.0,0.0,0.0,0.0,0.0,0.0,0.0,0.0,0.0,-1.7833,-1.8414,-1.887,-1.9088,-1.9098,-1.9098,-1.9098,-1.9098,-1.8651,0.0,0.0,0.0,0.0,0.0,0.0,0.0,0.0,0.0,0.0,0.0,0.0,0.0,0.0,0.0,0.0,0.0,0.0,0.0,0.0,0.0,0.0,0.0,0.0,0.0,0.0,0.0,0.0,0.0,0.0,0.0,0.0,0.0,0.0,0.0,0.0,0.0,0.0,0.0,0.0,-1.7089,-1.7533,-1.7999,0.0,0.0,0.0,0.0,0.0,0.0,-1.7368,-1.7265,0.0,0.0,0.0,0.0,0.0,0.0,0.0,0.0,0.0,0.0,0.0,0.0,0.0,0.0,0.0,0.0,0.0,0.0,0.0,0.0,0.0,0.0,0.0,0.0,0.0,0.0,0.0,0.0,0.0,0.0,0.0,0.0,0.0,0.0,0.0,0.0,0.0,0.0,0.0,0.0,0.0,0.0,0.0,0.0,0.0,0.0,0.0,0.0,0.0,0.0,0.0,0.0,0.0,0.0,0.0,-1.7925,-1.8739,-1.9142,-1.9098,-1.9098,-1.9098,-1.9098,-1.9098,-1.8651,0.0,0.0,0.0,0.0,0.0,0.0,0.0,0.0,0.0,0.0,0.0,0.0,0.0,0.0,0.0,0.0,0.0,0.0,0.0,0.0,0.0,0.0,0.0,0.0,0.0,0.0,0.0,0.0,0.0,0.0,0.0,0.0,0.0,0.0,0.0,0.0,0.0,0.0,0.0,0.0,0.0,-1.7926,-1.8476,-1.8516,0.0,0.0,0.0,0.0,-1.7988,-1.7999,0.0,0.0,0.0,0.0,0.0,0.0,0.0,0.0,0.0,0.0,0.0,0.0,0.0,0.0,0.0,0.0,0.0,0.0,0.0,0.0,0.0,0.0,0.0,0.0,0.0,0.0,0.0,0.0,0.0,0.0,0.0,0.0,0.0,0.0,0.0,0.0,0.0,0.0,0.0,0.0,0.0,0.0,0.0,0.0,0.0,0.0,0.0,0.0,0.0,0.0,0.0,0.0,0.0,0.0,0.0,0.0,-1.7946,-1.8804,-1.9241,-1.9098,-1.9098,-1.9098,-1.9098,-1.9098,-1.8651,0.0,0.0,0.0,0.0,0.0,0.0,0.0,0.0,0.0,0.0,0.0,0.0,0.0,0.0,0.0,0.0,0.0,0.0,0.0,0.0,0.0,0.0,0.0,0.0,0.0,0.0,0.0,0.0,0.0,0.0,0.0,0.0,0.0,0.0,0.0,0.0,0.0,0.0,0.0,0.0,0.0,-1.8008,-1.8911,-1.9025,-1.9005,0.0,0.0,-1.9419,-1.9005,-1.8942,0.0,0.0,0.0,0.0,0.0,0.0,0.0,0.0,0.0,0.0,0.0,0.0,0.0,0.0,0.0,0.0,0.0,0.0,0.0,0.0,0.0,0.0,0.0,0.0,0.0,0.0,0.0,0.0,0.0,0.0,0.0,0.0,0.0,0.0,0.0,0.0,0.0,0.0,0.0,0.0,0.0,0.0,0.0,0.0,0.0,0.0,0.0,0.0,0.0,0.0,0.0,0.0,0.0,0.0,0.0,-1.8585,-1.8385,-1.8965,-1.9285,-1.9208,-1.9142,-1.9098,-1.9098,-1.9098,-1.8661,0.0,0.0,0.0,0.0,0.0,0.0,0.0,0.0,0.0,0.0,0.0,0.0,0.0,0.0,0.0,0.0,0.0,0.0,0.0,0.0,0.0,0.0,0.0,0.0,0.0,0.0,0.0,0.0,0.0,0.0,0.0,0.0,0.0,0.0,0.0,0.0,0.0,0.0,0.0,0.0,0.0,0.0,-1.9409,-1.9675,0.0,0.0,0.0,-2.0069,-1.9862,0.0,0.0,0.0,0.0,0.0,0.0,0.0,0.0,0.0,0.0,0.0,0.0,0.0,0.0,0.0,0.0,0.0,0.0,0.0,0.0,0.0,0.0,0.0,0.0,0.0,0.0,0.0,0.0,0.0,0.0,0.0,0.0,0.0,0.0,0.0,0.0,0.0,0.0,0.0,0.0,0.0,0.0,0.0,0.0,0.0,0.0,0.0,0.0,0.0,0.0,0.0,0.0,0.0,0.0,0.0,0.0,0.0,-1.878,-1.9254,-1.944,-1.9318,-1.9208,-1.9142,-1.9098,-1.9098,0.0,0.0,0.0,0.0,0.0,0.0,0.0,0.0,0.0,0.0,0.0,0.0,0.0,0.0,0.0,0.0,0.0,0.0,0.0,0.0,0.0,0.0,0.0,0.0,0.0,0.0,0.0,-1.3662,0.0,0.0,0.0,0.0,0.0,0.0,0.0,0.0,0.0,0.0,0.0,0.0,0.0,0.0,-1.9316,-1.9886,-2.0213,-2.0374,0.0,0.0,-2.0731,-2.0581,-2.0664,-2.0576,0.0,0.0,0.0,0.0,0.0,0.0,0.0,0.0,0.0,0.0,0.0,0.0,0.0,0.0,0.0,0.0,0.0,0.0,0.0,0.0,0.0,0.0,0.0,0.0,0.0,0.0,0.0,0.0,0.0,0.0,0.0,0.0,0.0,0.0,0.0,0.0,0.0,0.0,0.0,0.0,0.0,0.0,0.0,0.0,0.0,0.0,0.0,0.0,0.0,0.0,0.0,0.0,0.0,0.0,0.0,-1.8912,-1.9658,-1.9791,-1.9308,-1.9274,-1.9241,-1.9098,-1.9098,-1.8683,0.0,0.0,0.0,0.0,0.0,0.0,0.0,0.0,0.0,0.0,0.0,0.0,0.0,0.0,0.0,0.0,0.0,0.0,0.0,0.0,0.0,0.0,0.0,0.0,0.0,0.0,0.0,0.0,0.0,0.0,0.0,0.0,0.0,0.0,0.0,0.0,0.0,0.0,0.0,0.0,0.0,-1.9385,-2.022,-2.0364,-2.0385,0.0,0.0,-2.1569,-2.1135,-2.1435,-2.1404,-2.0524,0.0,0.0,0.0,0.0,0.0,0.0,0.0,0.0,0.0,0.0,0.0,0.0,0.0,0.0,0.0,0.0,0.0,0.0,0.0,0.0,0.0,0.0,0.0,0.0,0.0,0.0,0.0,0.0,0.0,0.0,0.0,0.0,0.0,0.0,0.0,0.0,0.0,0.0,0.0,0.0,0.0,0.0,0.0,0.0,0.0,0.0,0.0,0.0,0.0,0.0,0.0,0.0,0.0,-1.9742,-1.9351,-1.9965,-2.0271,-2.0265,-2.0041,-1.9872,-1.9839,-1.9771,-1.9274,0.0,0.0,0.0,0.0,0.0,0.0,0.0,0.0,0.0,0.0,0.0,0.0,0.0,0.0,0.0,0.0,0.0,0.0,0.0,0.0,0.0,0.0,0.0,0.0,0.0,0.0,0.0,0.0,-1.4537,-1.4842,-1.5121,0.0,0.0,0.0,0.0,0.0,0.0,0.0,0.0,0.0,0.0,-2.0886,-2.1228,-2.1766,0.0,0.0,-2.2004,-2.2076,-2.16,-2.1683,-2.159,-2.0959,-2.071,0.0,0.0,0.0,0.0,0.0,0.0,0.0,0.0,0.0,0.0,0.0,0.0,0.0,0.0,0.0,0.0,0.0,0.0,0.0,0.0,0.0,0.0,0.0,0.0,0.0,0.0,0.0,0.0,0.0,0.0,0.0,0.0,0.0,0.0,0.0,0.0,0.0,0.0,0.0,0.0,0.0,0.0,0.0,0.0,0.0,0.0,0.0,0.0,0.0,0.0,0.0,0.0,-2.0223,-2.0051,-2.0662,-2.0984,-2.1051,-2.09,-2.0651,-2.0396,-2.0318,-1.9781,0.0,0.0,0.0,0.0,0.0,0.0,0.0,0.0,0.0,0.0,0.0,0.0,0.0,0.0,0.0,0.0,0.0,0.0,0.0,0.0,0.0,0.0,0.0,0.0,0.0,0.0,0.0,0.0,-1.5007,-1.539,-1.5873,0.0,0.0,0.0,0.0,0.0,0.0,0.0,0.0,0.0,0.0,-2.1859,-2.1994,-2.2687,-2.3029,-2.2563,-2.2615,-2.249,-2.1901,-2.1921,-2.1818,-2.1217,0.0,0.0,0.0,0.0,0.0,0.0,0.0,0.0,0.0,0.0,0.0,0.0,0.0,0.0,0.0,0.0,0.0,0.0,0.0,0.0,0.0,0.0,0.0,0.0,0.0,0.0,0.0,0.0,0.0,0.0,-1.8118,0.0,0.0,0.0,0.0,0.0,0.0,0.0,0.0,0.0,0.0,0.0,0.0,0.0,0.0,0.0,0.0,0.0,0.0,0.0,0.0,0.0,0.0,-2.0885,-2.1081,-2.1779,-2.1916,-2.1464,-2.1709,-2.1502,-2.0667,-2.059,-1.9981,-1.8743,0.0,0.0,0.0,0.0,0.0,0.0,0.0,0.0,0.0,0.0,0.0,0.0,0.0,0.0,0.0,0.0,0.0,0.0,0.0,0.0,0.0,0.0,0.0,0.0,0.0,0.0,-1.5635,-1.5697,-1.5873,0.0,0.0,0.0,0.0,0.0,0.0,0.0,0.0,0.0,0.0,-2.118,-2.1983,-2.2428,-2.2894,-2.306,-2.2594,-2.2894,-2.2863,-2.1973,-2.2201,-2.217,0.0,0.0,0.0,0.0,0.0,0.0,0.0,0.0,0.0,0.0,0.0,0.0,0.0,0.0,0.0,0.0,0.0,0.0,0.0,0.0,0.0,0.0,0.0,0.0,0.0,0.0,0.0,-1.8971,-1.8683,0.0,0.0,0.0,0.0,0.0,0.0,0.0,0.0,0.0,0.0,0.0,-2.2033,-2.1988,0.0,0.0,0.0,0.0,0.0,0.0,0.0,0.0,0.0,0.0,0.0,0.0,-2.1473,-2.1672,-2.2433,-2.2775,-2.2611,-2.2926,-2.2832,-2.2326,-2.176,-2.0584,-1.8786,0.0,0.0,0.0,0.0,0.0,0.0,0.0,0.0,0.0,0.0,0.0,0.0,0.0,0.0,0.0,0.0,0.0,0.0,0.0,0.0,0.0,0.0,0.0,0.0,0.0,-1.5649,0.0,0.0,0.0,0.0,0.0,0.0,0.0,0.0,0.0,0.0,0.0,-2.0716,-2.1623,-2.2447,-2.3083,-2.3553,-2.3888,-2.3887,0.0,0.0,0.0,0.0,0.0,0.0,0.0,0.0,0.0,0.0,0.0,0.0,0.0,0.0,-2.2428,-2.1453,-2.1288,-2.124,-2.1155,0.0,0.0,0.0,0.0,0.0,0.0,0.0,0.0,0.0,0.0,0.0,0.0,0.0,0.0,-2.02,0.0,-1.9886,0.0,0.0,0.0,0.0,0.0,0.0,0.0,0.0,-2.2435,-2.2769,-2.3145,-2.3158,-2.3158,0.0,-2.248,-2.1952,0.0,0.0,0.0,0.0,0.0,0.0,0.0,0.0,-2.229,-2.272,-2.3361,-2.3831,-2.3968,-2.4209,-2.4108,-2.3583,-2.2342,-2.0774,-1.8924,-1.8775,-1.8114,0.0,0.0,0.0,0.0,0.0,0.0,0.0,0.0,0.0,0.0,0.0,0.0,0.0,0.0,0.0,0.0,0.0,0.0,0.0,0.0,0.0,0.0,0.0,-1.6126,0.0,0.0,0.0,0.0,0.0,0.0,0.0,0.0,0.0,-1.9605,-2.0538,-2.1541,-2.2296,-2.3104,-2.3786,-2.425,0.0,0.0,0.0,0.0,0.0,0.0,0.0,-2.3194,-2.3194,-2.3359,-2.3484,-2.3639,-2.3795,-2.4002,-2.4291,0.0,0.0,-2.278,-2.2522,-2.248,-2.2315,-2.2283,-2.2283,-2.2283,-2.2294,-2.2283,0.0,0.0,0.0,0.0,0.0,0.0,0.0,0.0,-2.1619,-2.1606,0.0,-2.1568,0.0,0.0,0.0,0.0,0.0,-2.1543,0.0,0.0,-2.317,-2.3747,-2.4725,-2.4782,-2.4775,-2.4745,-2.3869,-2.3441,-2.3352,-2.1817,0.0,0.0,0.0,0.0,0.0,0.0,-2.3288,-2.4169,-2.4557,-2.4973,-2.5386,-2.5522,-2.5199,-2.4288,-2.2354,-2.0654,-1.9327,-1.8967,-1.8448,-1.7771,-1.6933,0.0,0.0,0.0,0.0,0.0,0.0,0.0,0.0,0.0,0.0,0.0,0.0,0.0,0.0,0.0,0.0,0.0,0.0,0.0,0.0,-1.6283,0.0,0.0,0.0,0.0,0.0,0.0,0.0,0.0,0.0,0.0,-1.9908,-2.0973,-2.1939,-2.244,0.0,0.0,0.0,0.0,-2.5041,-2.4615,-2.4397,-2.4105,-2.3696,-2.346,-2.3349,-2.3349,0.0,0.0,-2.4509,-2.4954,-2.5233,-2.5264,-2.563,-2.5536,-2.4251,-2.4044,-2.3846,-2.3442,-2.3421,-2.3328,-2.3328,-2.3441,-2.3421,-2.3747,0.0,0.0,0.0,0.0,-2.3276,-2.3502,-2.3835,-2.3866,-2.364,-2.3276,-2.3276,0.0,0.0,0.0,0.0,0.0,0.0,-2.3246,-2.4286,-2.4311,-2.4474,-2.4788,-2.48,-2.4885,-2.4988,-2.4735,-2.4739,-2.4931,-2.4056,-2.3119,-2.2142,0.0,0.0,0.0,0.0,-2.4011,-2.4571,-2.5441,-2.5868,-2.5744,-2.6185,-2.5787,-2.4552,-2.3197,-2.1901,-2.0654,-2.0031,-1.9329,-1.8596,-1.8218,0.0,0.0,0.0,0.0,0.0,0.0,0.0,0.0,0.0,0.0,0.0,0.0,0.0,0.0,0.0,0.0,0.0,0.0,0.0,-1.6916,-1.7143,-1.7366,0.0,0.0,0.0,0.0,0.0,0.0,0.0,0.0,0.0,-2.2717,-2.2786,-2.3126,0.0,0.0,-2.4712,-2.5196,-2.5241,-2.5264,-2.5466,-2.5466,0.0,0.0,-2.5752,-2.5708,-2.5719,-2.5824,-2.5962,-2.6045,-2.6172,-2.6351,-2.6658,-2.6806,-2.6763,-2.6415,-2.5923,-2.5637,-2.5686,-2.5708,-2.5708,-2.5708,-2.5708,-2.5687,-2.5937,-2.5523,-2.4286,-2.3973,-2.4318,-2.433,-2.4474,-2.48,-2.48,-2.4632,-2.433,-2.433,-2.3941,-2.3301,-2.3301,0.0,0.0,0.0,-2.4249,-2.5101,-2.5121,-2.5214,-2.546,-2.5526,-2.5625,-2.5744,-2.5658,-2.5717,-2.5909,-2.5389,-2.4628,-2.3644,0.0,0.0,-2.4213,-2.4579,-2.5005,-2.5504,-2.6161,-2.6518,-2.6552,-2.6705,-2.6197,-2.4985,-2.407,-2.2977,-2.1553,-2.0963,-2.0205,-1.9329,-1.9041,-1.8352,0.0,0.0,0.0,0.0,0.0,0.0,0.0,0.0,0.0,0.0,0.0,-1.5133,0.0,0.0,0.0,0.0,-1.6507,-1.7109,-1.7949,-1.8073,0.0,0.0,0.0,0.0,0.0,0.0,0.0,-2.2946,-2.3933,-2.4667,-2.4939,-2.486,-2.4871,-2.4997,-2.5048,-2.5281,-2.5923,0.0,-2.5916,-2.6388,-2.6409,-2.6462,-2.6751,-2.677,-2.6745,-2.6915,-2.6947,-2.7033,-2.7203,-2.7224,-2.732,-2.7487,-2.7562,-2.7619,-2.7711,-2.7395,-2.6995,-2.6766,-2.6692,-2.6692,-2.6692,-2.6692,-2.6692,-2.8097,-2.797,-2.5925,-2.5096,-2.5051,-2.5051,-2.5051,-2.5084,-2.5064,-2.5051,-2.5051,-2.5071,-2.5001,-2.4913,-2.4825,0.0,-2.485,-2.485,-2.5159,-2.5661,-2.5661,-2.5971,-2.6508,-2.6645,-2.6714,-2.6748,-2.6572,-2.6472,-2.6466,-2.6121,-2.5923,-2.591,-2.5432,-2.5393,-2.5798,-2.5819,-2.6151,-2.6706,-2.6745,-2.7,-2.7477,-2.7175,-2.6561,-2.5565,-2.4951,-2.3893,-2.2319,-2.174,-2.103,-2.0096,-1.9597,-1.8932,-1.8163,0.0,0.0,0.0,0.0,0.0,0.0,0.0,0.0,0.0,0.0,0.0,0.0,0.0,0.0,0.0,-1.7553,0.0,-1.8937,-1.9144,0.0,0.0,0.0,-2.1535,-2.239,-2.2948,-2.3753,-2.5122,0.0,0.0,-2.6726,-2.7082,-2.6865,-2.5894,-2.5691,-2.5912,-2.6594,-2.6725,-2.6889,-2.7348,-2.7237,-2.717,-2.7334,-2.7176,-2.7216,-2.7503,-2.7465,-2.7672,-2.8025,-2.8121,-2.8117,-2.8154,-2.8128,-2.8222,-2.8477,-2.8481,-2.8171,-2.7171,-2.6976,-2.692,-2.6952,-2.6963,-2.7018,-2.817,-2.8265,-2.7769,-2.7448,-2.7331,-2.7318,-2.7331,-2.7318,-2.7331,-2.7331,-2.7331,-2.7318,-2.6866,-2.6059,-2.5197,-2.5001,-2.541,-2.541,-2.5745,-2.626,-2.6285,-2.6429,-2.6645,-2.6679,-2.6863,-2.7121,-2.7139,-2.7141,-2.7228,-2.7163,-2.7098,-2.7072,-2.6987,-2.6511,-2.5832,-2.6242,-2.6562,-2.6706,-2.7105,-2.7359,-2.749,-2.7335,-2.7023,-2.6646,-2.5724,-2.4884,-2.4213,-2.2937,-2.201,-2.1503,-2.0618,-1.9789,-1.9079,-1.8282,0.0,0.0,0.0,0.0,0.0,0.0,0.0,0.0,0.0,-1.6297,-1.7265,0.0,-1.7828,0.0,-1.8956,-1.9781,-2.058,-2.1158,0.0,0.0,-2.269,-2.3271,-2.3984,-2.4798,-2.5611,-2.6437,-2.7286,-2.7803,-2.791,-2.8179,-2.8239,-2.79,-2.7421,-2.7282,-2.7685,-2.7731,-2.7909,-2.8311,-2.8433,-2.8499,-2.88,-2.8865,-2.8842,-2.8964,-2.8986,-2.903,-2.9095,-2.9163,-2.9163,-2.9163,-2.9152,-2.9163,-2.922,-2.922,-2.9143,-2.8875,-2.8556,-2.8291,-2.828,-2.8315,-2.8269,-2.9198,-2.9272,-2.9272,-2.9235,-2.9061,-2.858,-2.8364,-2.8364,-2.8364,-2.8364,-2.8364,-2.8364,-2.8022,-2.7449,-2.684,-2.6726,-2.698,-2.6993,-2.717,-2.7462,-2.7462,-2.751,-2.7615,-2.7672,-2.7846,-2.8053,-2.7863,-2.7814,-2.7902,-2.7654,-2.7503,-2.7503,-2.7503,-2.7177,-2.6589,-2.6896,-2.7053,-2.7066,-2.7333,-2.7503,-2.7503,-2.7436,-2.7302,-2.7108,-2.6477,-2.585,-2.5289,-2.3989,-2.3021,-2.2362,-2.1466,-2.0592,-1.9691,-1.925,-1.8646,0.0,0.0,0.0,0.0,0.0,0.0,0.0,0.0,0.0,0.0,0.0,-1.9026,-1.9915,-2.0745,-2.1556,-2.2286,-2.2799,-2.3344,-2.3879,-2.422,-2.4792,-2.5827,-2.6395,-2.7082,-2.8017,-2.866,-2.8976,-2.8946,-2.9128,-2.9307,-2.9397,-2.9076,-2.88,-2.8724,-2.8739,-2.8876,-2.933,-2.941,-2.9489,-2.9772,-2.9806,-2.9806,-2.9806,-2.9806,-2.9806,-2.9806,-2.9715,-2.968,-2.976,-2.9772,-2.9726,-2.9806,-2.9806,-2.9806,-2.9806,-2.9623,-2.9336,-2.9174,-2.9128,-2.9117,-3.0444,-3.0444,-3.0482,-3.052,-3.043,-2.9464,-2.9016,-2.8908,-2.8908,-2.8908,-2.8895,-2.8831,-2.8792,-2.8828,-2.8751,-2.8726,-2.8726,-2.8762,-2.8726,-2.8677,-2.8677,-2.8726,-2.8762,-2.8964,-2.9071,-2.9093,-2.8726,-2.8594,-2.8581,-2.7983,-2.7674,-2.7674,-2.7562,-2.7523,-2.7503,-2.7503,-2.7503,-2.7503,-2.7503,-2.7503,-2.7503,-2.7503,-2.7436,-2.7335,-2.7154,-2.6688,-2.5916,-2.502,-2.4038,-2.3075,-2.2293,-2.1385,-2.0322,-2.018,-1.9839,0.0,-1.9171,0.0,0.0,0.0,0.0,0.0,0.0,0.0,0.0,-1.9825,-2.0626,-2.1993,-2.2739,-2.3369,-2.3983,-2.4291,-2.469,-2.5246,-2.5539,-2.6248,-2.7481,-2.7806,-2.8313,-2.9457,-2.9637,-2.973,-2.9884,-2.9958,-3.0124,-3.0466,-3.0611,-3.0519,-3.0082,-2.9904,-2.9978,-3.0351,-3.0397,-3.0396,-3.0431,-3.0408,-3.0352,-3.0352,-3.0306,-3.0318,-3.0318,-3.0148,-3.0114,-3.0227,-3.0193,-3.0102,-3.0273,-3.0306,-3.0306,-3.0318,-3.0273,-3.0125,-2.9715,-2.9566,-2.9577,-3.0482,-3.066,-3.0836,-3.0973,-3.1134,-3.1098,-3.066,-3.0086,-3.0086,-3.0086,-3.0047,-2.9561,-2.9442,-2.9538,-2.9135,-2.8915,-2.8928,-2.8928,-2.8869,-2.8677,-2.8677,-2.8798,-2.8964,-2.9155,-2.9345,-2.9473,-2.9565,-2.9616,-2.959,-2.8997,-2.8616,-2.8481,-2.7993,-2.7656,-2.749,0.0,0.0,0.0,-2.7503,-2.7503,-2.7503,-2.7503,-2.7503,-2.7456,-2.7335,0.0,-2.6953,-2.6095,-2.5164,-2.4303,-2.3384,0.0,0.0,0.0,0.0,0.0,0.0,0.0,0.0,0.0,0.0,0.0,-2.1391,-2.1513,-2.0991,-2.2185,-2.324,-2.3782,-2.448,-2.4992,-2.5224,-2.5862,-2.6265,-2.6379,-2.7002,-2.7579,-2.7983,-2.8818,-2.9561,-2.9902,-3.0282,-3.0493,-3.0495,-3.0766,-3.1055,-3.1379,-3.187,-3.2223,-3.2308,-3.1676,-3.1308,-3.1427,-3.1383,-3.1395,-3.1383,-3.1205,-3.1083,-3.1083,-3.096,-3.0883,-3.0883,-3.0838,-3.0804,-3.0838,-3.0781,-3.0793,-3.0826,-3.0838,-3.0883,-3.0826,-3.0883,-3.0703,-3.017,-3.008,-3.008,-3.1061,0.0,-3.1248,-3.1373,0.0,-3.1572,-3.1447,-3.1136,-3.1011,-3.0986,-3.096,-3.0673,-3.0592,-3.0677,-3.0388,-3.0256,-3.0256,-3.0293,-3.0233,-3.0111,-3.0124,-3.0197,-3.0293,-3.0365,-3.0487,-3.0582,-3.0383,-3.0286,-3.0259,-2.9734,-2.9384,-2.9316,-2.901,-2.865,-2.8237,-2.7834,-2.759,-2.7503,-2.7503,-2.7503,-2.7503,-2.7503,-2.7503,-2.7503,0.0,0.0,0.0,0.0,0.0,0.0,0.0,0.0,0.0,0.0,0.0,-2.2628,-2.2356,-2.2149,-2.2025,-2.2158,-2.2337,-2.2489,-2.3424,-2.3639,-2.2839,-2.4047,-2.4921,-2.5098,-2.5778,-2.6207,-2.6308,-2.6731,-2.7114,-2.7383,-2.7838,-2.8386,-2.9019,-2.9577,-3.0082,-3.0492,-3.0729,-3.0811,-3.0698,-3.1087,-3.1498,-3.1875,-3.2383,-3.2889,-3.3204,-3.2772,-3.2307,-3.2189,-3.2189,-3.2145,-3.2069,-3.1937,-3.1862,-3.1849,-3.1773,-3.1685,-3.1697,-3.1584,-3.154,-3.1641,-3.1584,-3.1528,-3.1685,-3.1685,-3.1685,-3.1685,-3.1685,-3.1641,-3.1306,-3.0916,-3.0589,-3.199,-3.2027,-3.2051,-3.2035,-3.1904,-3.1941,-3.2021,-3.2023,0.0,0.0,0.0,-3.1706,-3.1706,-3.1743,-3.173,-3.1743,-3.1743,-3.1743,-3.173,-3.1706,-3.1656,-3.1669,-3.1706,-3.1706,-3.1743,-3.1716,-3.1235,-3.098,-3.0989,-3.0427,-3.0145,-3.0097,-3.0017,-2.9675,-2.9139,-2.8372,-2.7914,-2.7714,-2.7575,-2.7503,-2.7503,-2.7503,-2.7503,-2.7503,-2.7503,-2.7503,-2.749,-2.6934,-2.6492,-2.6212,-2.5672,-2.5153,-2.4763,-2.473,-2.4666,-2.4581,-2.4549,-2.4439,-2.4296,-2.4349,-2.4336,-2.4302,-2.5153,-2.5382,-2.4756,-2.5597,-2.6141,-2.6174,-2.6742,-2.7117,-2.7254,-2.739,-2.7712,-2.8248,-2.853,-2.9104,-2.9931,-3.0205,-3.0477,-3.0895,-3.0973,-3.1001,-3.0942,-3.1422,-3.1876,-3.2323,-3.2903,-3.3286,-3.3627,-3.3428,-3.3031,-3.2914,-3.2871,-3.2797,-3.268,-3.2605,-3.2574,-3.2531,-3.2475,-3.2444,-3.2388,-3.2232,-3.2176,-3.2313,-3.2189,-3.2145,-3.2356,-3.2356,-3.24,-3.24,-3.24,-3.24,-3.2356,-3.1785,-3.1285,-3.3497,-3.3664,-3.384,-3.3615,-3.3151,-3.3349,-3.3092,-3.2574,-3.22,-3.2032,-3.2032,-3.2032,-3.2141,-3.2273,-3.2273,-3.2273,-3.2273,-3.2273,-3.2214,0.0,-3.2032,-3.2032,-3.2032,-3.2214,-3.2273,-3.2273,-3.2227,-3.215,-3.2082,-3.1436,-3.101,-3.0823,-3.0309,-2.9992,-2.9755,-2.9139,-2.8724,-2.8507,-2.7852,-2.7503,-2.7503,-2.7503,-2.7503,-2.7503,-2.7503,-2.7503,-2.749,-2.7411,-2.7025,-2.6401,-2.6278,-2.5891,-2.5237,-2.5224,-2.5199,-2.5167,-2.5052,-2.4988,-2.4968,-2.5222,-2.5653,-2.6253,-2.6604,-2.665,-2.6396,-2.6785,-2.7118,-2.7118,-2.7297,-2.7631,-2.8108,-2.8221,-2.8469,-2.9056,-2.9552,-2.9931,-3.0127,-3.0555,-3.0869,-3.1011,-3.1024,-3.1182,-3.1563,-3.2098,-3.2658,-3.3271,-3.3671,-3.4168,-3.4137,-3.3882,-3.3628,-3.3556,-3.3556,-3.3556,-3.3428,-3.3343,-3.3197,-3.3038,-3.281,-3.268,-3.2519,-3.2463,-3.2463,-3.2431,-3.2419,-3.2444,-3.2512,-3.24,-3.2549,-3.263,-3.2667,-3.2586,-3.2654,-3.2467,-3.2274,-3.4251,-3.4327,-3.4441,-3.4351,-3.4251,-3.4547,-3.4489,-3.4223,-3.415,-3.347,-3.2467,-3.2417,-3.2561,-3.2739,-3.2739,-3.281,-3.2917,-3.2881,-3.2846,-3.2739,-3.2739,-3.2704,-3.2583,-3.2668,-3.2668,-3.2561,-3.2561,-3.2561,-3.2533,-3.2228,-3.1949,-3.1716,-3.1081,-3.0691,-3.0462,-2.9925,-2.9333,-2.8856,-2.8059,-2.759,-2.7503,-2.7503,-2.7503,-2.7503,-2.7503,-2.7503,-2.7503,-2.7503,-2.7339,-2.6999,-2.6986,-2.6836,-2.6537,-2.6479,-2.6511,-2.6479,-2.6446,-2.6394,-2.6295,-2.6327,-2.6561,-2.6973,-2.7121,-2.7154,-2.7134,-2.7289,-2.7403,-2.7416,-2.7717,-2.8098,-2.8373,-2.8673,-2.9091,-2.9693,-2.9957,-3.0218,-3.0555,-3.0803,-3.1024,-3.1024,-3.1024,-3.1209,-3.1732,-3.2333,-3.2908,-3.3509,-3.4058,-3.4384,-3.4397,-3.423,-3.4063,-3.3949,-3.3907,-3.3839,-3.3725,-3.3641,-3.3513,-3.3441,-3.3343,-3.3215,-3.3099,-3.3099,-3.3099,-3.3099,-3.3099,-3.3237,-3.3463,-3.3564,-3.3721,-3.4067,-3.4105,-3.4092,-3.4105,-3.4105,-3.3727,-3.5221,-3.5258,-3.5296,-3.5302,-3.5311,-3.5467,-3.5571,-3.5608,-3.5703,-3.4894,-3.3511,-3.3406,-3.3393,-3.341,-3.341,-3.341,-3.3437,-3.3423,-3.3423,-3.3423,-3.3437,-3.3339,-3.3199,-3.3213,-3.3108,-3.2966,-3.2931,-3.2895,-3.2824,-3.281,-3.2668,-3.2448,-3.1837,-3.1463,-3.1294,-3.0691,-3.0075,-2.9434,-2.8711,-2.8086,-2.7603,-2.7556,-2.757,-2.7503,-2.7503,-2.7503,-2.7503,-2.7503,-2.7503,-2.7503,-2.7503,-2.7503,-2.7503,-2.7503,-2.7503,-2.7503,-2.7503,-2.7469,-2.7335,-2.7214,-2.718,-2.7335,-2.7335,-2.7468,-2.7673,-2.7719,-2.7686,-2.7771,-2.8111,-2.8477,-2.8804,-2.9196,-2.9706,-3.0205,-3.0296,-3.0503,-3.0895,-3.1024,-3.1024,-3.1024,-3.1091,-3.1405,-3.1928,-3.2542,-3.3143,-3.3718,-3.4149,-3.4384,-3.4397,-3.4397,-3.4314,-3.4243,-3.416,-3.4105,-3.3894,-3.3852,-3.3839,-3.3797,-3.3755,-3.3713,-3.367,-3.367,-3.3773,-3.3807,-3.3901,-3.4101,-3.4635,-3.4776,-3.4899,-3.5193,-3.5244,-3.5366,-3.5283,-3.534,-3.492,-3.7143,-3.7286,-3.7244,-3.6983,-3.6493,-3.6025,-3.5861,-3.5847,-3.5804,-3.5711,-3.5546,-3.5495,-3.5167,-3.4668,-3.4626,-3.4376,-3.3933,-3.3862,-3.389,-3.389,-3.3848,-3.3862,-3.3842,-3.3813,-3.3813,-3.3744,-3.357,-3.3396,-3.3255,-3.3072,-3.2881,-3.2668,-3.2434,-3.2285,-3.2181,-3.1512,-3.1045,-3.0788,-3.0202,-2.9199,-2.7855,-2.7789,-2.7689,-2.7503,-2.749,-2.7503,-2.7503,-2.7503,-2.7503,-2.7503,-2.7503,-2.7503,-2.7503,-2.7503,-2.7503,-2.7503,-2.7503,-2.7503,-2.7456,-2.7469,-2.7436,-2.7469,-2.7482,-2.7725,-2.8216,-2.8294,-2.8307,-2.836,-2.8407,-2.8882,-2.9787,-2.9983,-3.0268,-3.0751,-3.0856,-3.0934,-3.1011,-3.1024,-3.1024,-3.1024,-3.1431,-3.198,-3.2529,-3.313,-3.3692,-3.4162,-3.4319,-3.4397,-3.4397,-3.4397,-3.4397,-3.4356,-3.4356,-3.4356,-3.4272,-3.4314,-3.423,-3.4063,-3.4076,-3.3979,-3.3852,-3.3819,-3.3854,-3.4392,-3.455,-3.4799,-3.5223,-3.5397,-3.5467,-3.58,-3.5782,-3.5596,-3.5544,-3.5634,-3.5302,-3.7534,-3.761,-3.761,-3.7582,-3.7535,-3.7438,-3.7484,-3.758,-3.7565,-3.758,-3.758,-3.758,-3.6831,-3.5518,-3.5625,-3.5588,-3.5491,-3.5636,-3.5671,-3.5627,-3.5203,-3.4891,-3.4744,-3.4232,-3.3971,-3.3896,-3.3827,-3.3709,-3.3605,-3.3347,-3.3122,-3.3016,-3.2739,-3.2561,-3.2547,-3.2162,-3.1768,-3.1344,-3.1007,-3.0292,-2.926,-2.8725,-2.8245,-2.7729,-2.7676,-2.7623,-2.7536,-2.7503,-2.7503,-2.7503,-2.7503,-2.7503,-2.7503,-2.7503,-2.7503,-2.7503,-2.7503,-2.7503,-2.7503,-2.7503,-2.7503,-2.7503,-2.785,-2.8137,-2.8394,-2.8734,-2.9039,-2.9366,-2.9418,-2.9653,-3.0061,-3.0401,-3.0738,-3.0947,-3.1024,-3.1024,-3.1024,-3.1024,-3.1091,-3.1444,-3.1667,-3.2176,-3.3064,-3.3705,-3.4123,-3.4371,-3.4397,-3.4397,-3.4397,-3.4397,-3.4397,-3.4397,-3.4397,-3.4397,-3.4397,-3.4397,-3.4356,-3.4285,-3.4285,-3.4189,-3.4199,-3.4455,-3.4782,-3.4973,-3.5258,-3.5673,-3.6319,-3.6404,-3.6443,-3.6638,-3.6897,-3.691,-3.691,-3.691,-3.6664,-3.7801,-3.7839,-3.7915,-3.8089,-3.8389,-3.8516,-3.8649,-3.8782,-3.8782,-3.8782,-3.8782,-3.8782,-3.8077,-3.6903,-3.6771,-3.6739,-3.6684,-3.6831,-3.6901,-3.6807,-3.6276,-3.5946,-3.572,-3.4985,-3.4539,-3.4387,-3.4209,-3.4054,-3.3951,-3.364,-3.3466,-3.3417,-3.3037,-3.286,-3.2824,-3.2632,-3.2283,-3.1913,-3.1695,-3.1219,-3.0545,-2.9927,-2.9133,-2.8239,-2.7967,-2.7789,-2.759,-2.759,-2.7556,-2.7503,-2.7503,-2.7503,-2.7503,-2.7503,-2.7503,-2.7503,-2.7503,-2.7503,-2.7503,-2.7633,-2.7725,-2.7764,-2.8307,-2.8721,-2.8965,-2.9368,-2.9866,-3.0414,-3.0519,-3.0469,-3.0411,-3.0738,-3.0973,-3.1024,-3.1024,-3.1024,-3.1099,-3.1204,-3.1519,-3.1899,-3.237,-3.2791,-3.3722,-3.4177,-3.4384,-3.4397,-3.4397,-3.4397,-3.4397,-3.4397,-3.4397,-3.4397,-3.4397,-3.4397,-3.4397,-3.4397,-3.4397,-3.4397,-3.441,-3.4463,-3.4567,-3.5064,-3.5626,-3.5757,-3.6105,-3.6528,-3.7,-3.7227,-3.7273,-3.7691,-3.7874,-3.7789,-3.7697,-3.7848,-3.7704,-3.8277,-3.8478,-3.8649,-3.8708,-3.8797,-3.8797,-3.8782,-3.8819,-3.8819,-3.8819,-3.8819,-3.8819,-3.8752,-3.8554,-3.806,-3.7485,-3.6969,-3.7039,-3.7054,-3.7039,-3.6901,-3.6856,-3.6777,-3.6139,-3.5727,-3.5526,-3.5039,-3.4564,-3.4185,-3.3951,-3.3862,-3.3848,-3.3452,-3.3276,-3.3241,-3.2895,-3.269,-3.2607,-3.2379,-3.2066,-3.1561,-3.1276,-3.0408,-2.9127,-2.8399,-2.808,-2.7848,-2.7802,-2.7723,-2.7503,-2.7536,-2.7503,-2.7536,-2.7536,-2.7536,-2.7562,-2.7549,-2.7529,-2.7654,-2.8106,-2.8415,-2.8446,-2.8965,-2.9551,-3.0075,-3.026,-3.0685,-3.1415,-3.1415,-3.1281,-3.0994,-3.0996,-3.1061,-3.1061,-3.1024,-3.1099,-3.1325,-3.1787,-3.2205,-3.2625,-3.3395,-3.4073,-3.4625,-3.4564,-3.4481,-3.4439,-3.4439,-3.4439,-3.4481,-3.4439,-3.4439,-3.4439,-3.4439,-3.4439,-3.4397,-3.4397,-3.4397,-3.4437,-3.4502,-3.4607,-3.4972,-3.5391,-3.5992,-3.6488,-3.6776,-3.7155,-3.7652,-3.7835,-3.7782,-3.79,-3.79,-3.79,-3.79,-3.79,-3.7795,-3.8612,-3.8671,-3.876,-3.887,-3.898,-3.898,-3.9053,-3.9192,-3.9192,-3.9177,-3.9192,-3.9192,-3.9177,-3.9162,-3.8954,-3.8644,-3.8335,-3.8442,-3.8478,-3.8433,-3.7976,-3.7747,-3.7638,-3.6926,-3.6512,-3.6413,-3.6222,-3.5746,-3.5083,-3.4529,-3.4142,-3.4005,-3.3813,-3.3675,-3.3605,-3.3262,-3.3086,-3.3051,-3.2753,-3.2486,-3.2252,-3.1795,-3.1196,-3.0684,-2.9814,-2.9113,-2.8605,-2.8592,-2.8365,-2.7881,-2.7881,-2.7881,-2.7881,-2.7881,-2.8087,-2.8404,-2.8457,-2.8616,-2.8974,-2.9247,-2.9366,-2.9393,-2.9861,-3.0285,-3.0595,-3.0927,-3.1309,-3.1519,-3.1609,-3.1485,-3.1447,-3.1373,-3.136,-3.1373,-3.1373,-3.1583,-3.1962,-3.2279,-3.2651,-3.35,-3.43,-3.4846,-3.4897,-3.4908,-3.4867,-3.4825,-3.4825,-3.4825,-3.4812,-3.4825,-3.4825,-3.4867,-3.4867,-3.4867,-3.4867,-3.4564,-3.4424,-3.4541,-3.4659,-3.4946,-3.5286,-3.6062,-3.6703,-3.6881,-3.722,-3.7508,-3.7874,-3.7874,-3.79,-3.79,-3.79,-3.79,-3.79,-3.79,-3.79,-3.8907,-3.8907,-3.898,-3.9068,-3.9177,-3.9192,-3.925,-3.9388,-3.9388,-3.9388,-3.9388,-3.9388,-3.9388,-3.9388,-3.9388,-3.9337,-3.9213,-3.9337,-3.9388,-3.9343,-3.8838,-3.8573,-3.8454,-3.7753,-3.7336,-3.7272,-3.7024,-3.6595,-3.6065,-3.5263,-3.4787,-3.4616,-3.4272,-3.402,-3.3917,-3.364,-3.3501,-3.3417,-3.3122,-3.2895,-3.2804,-3.2274,-3.1948,-3.1858,-3.1291,-3.0416,-2.9401,-2.9361,-2.9167,-2.8725,-2.8672,-2.8685,-2.8672,-2.8672,-2.8845,-2.924,-2.9272,-2.9466,-2.9854,-3.0054,-3.0139,-3.0187,-3.0686,-3.1019,-3.1095,-3.1479,-3.168,-3.178,-3.178,-3.1793,-3.1793,-3.178,-3.1757,-3.1673,-3.1769,-3.2059,-3.2548,-3.2949,-3.363,-3.4473,-3.4942,-3.5155,-3.5195,-3.5113,-3.5072,-3.5072,-3.5072,-3.5072,-3.5072,-3.5072,-3.5072,-3.5072,-3.5072,-3.5031,-3.5031,-3.4825,-3.4756,-3.482,-3.5186,-3.546,-3.5834,-3.6634,-3.7166,-3.7331,-3.7521,-3.7782,-3.79,-3.79,-3.79,-3.79,-3.79,-3.79,-3.79,-3.79,-3.79,-3.9104,-3.9141,-3.9301,-3.9373,-3.9388,-3.9388,-3.9388,-3.9388,-3.9388,-3.9388,-3.9388,-3.9388,-3.9388,-3.9388,-3.9388,-3.9388,-3.9388,-3.9388,-3.9388,-3.9373,-3.9328,-3.9313,-3.9254,-3.8656,-3.8301,-3.813,-3.7345,-3.6965,-3.6886,-3.6232,-3.5791,-3.5536,-3.485,-3.4399,-3.4128,-3.3985,-3.3896,-3.3779,-3.3501,-3.3276,-3.3241,-3.2875,-3.2656,-3.267,-3.2558,-3.1774,-3.0252,-3.015,-3.0014,-2.9856,-2.9822,-2.9888,-2.9782,-2.9816,-2.9875,-2.9937,-2.9929,-2.9942,-3.0049,-3.0495,-3.0762,-3.0864,-3.1286,-3.1686,-3.1806,-3.1909,-3.2036,-3.2146,-3.2182,-3.2169,-3.2218,-3.2273,-3.2131,-3.175,-3.2201,-3.2635,-3.306,-3.3878,-3.4807,-3.5453,-3.5602,-3.544,-3.5399,-3.5318,-3.5249,-3.5249,-3.5208,-3.5195,-3.5195,-3.5195,-3.5113,-3.5113,-3.5195,-3.5236,-3.5208,-3.514,-3.5153,-3.5247,-3.571,-3.6077,-3.6396,-3.7039,-3.7614,-3.78,-3.7788,-3.8024,-3.7979,-3.7979,-3.79,-3.79,-3.79,-3.79,-3.79,-3.79,-3.79,-3.9301,-3.9301,-3.9388,-3.9388,-3.9388,-3.9388,-3.9388,-3.9388,-3.9388,-3.9388,-3.9388,-3.9388,-3.9388,-3.9388,-3.9388,-3.9388,-3.9388,-3.9388,-3.9388,-3.9388,-3.9388,-3.9388,-3.9328,-3.9185,-3.9059,-3.8919,-3.8266,-3.7883,-3.7708,-3.7139,-3.6483,-3.5903,-3.5595,-3.5107,-3.4525,-3.4327,-3.4176,-3.404,-3.3848,-3.3724,-3.3675,-3.3312,-3.3122,-3.3086,-3.286,-3.2412,-3.1905,-3.1416,-3.0847,-3.0321,-3.0254,-3.0219,-3.0267,-3.0233,-3.0456,-3.0807,-3.0861,-3.1077,-3.1429,-3.1618,-3.1726,-3.1766,-3.2001,-3.2178,-3.225,-3.2359,-3.2431,-3.2538,-3.2538,-3.2525,-3.2607,-3.2987,-3.3037,-3.2681,-3.2918,-3.3547,-3.4306,-3.52,-3.5838,-3.6084,-3.6112,-3.6112,-3.6058,-3.5858,-3.575,-3.575,-3.5616,-3.5521,-3.5521,-3.5521,-3.5521,-3.5521,-3.5521,-3.5521,-3.5534,-3.5656,-3.5791,-3.5924,-3.6283,-3.6639,-3.696,-3.7444,-3.7997,-3.8211,-3.8154,-3.8103,-3.8103,-3.8057,-3.8024,-3.7933,-3.7933,-3.7933,-3.79,-3.79,-3.79,-3.9388,-3.9388,-3.9388,-3.9388,-3.9388,-3.9388,-3.9388,-3.9388,-3.9388,-3.9388,-3.9388,-3.9388,-3.9388,-3.9388,-3.9388,-3.9388,-3.9388,-3.9388,-3.9388,-3.9388,-3.9388,-3.9388,-3.9388,-3.9388,-3.9388,-3.9328,-3.8975,-3.8745,-3.8609,-3.7983,-3.7342,-3.6847,-3.6532,-3.5986,-3.5209,-3.4986,-3.4777,-3.4404,-3.4142,-3.4054,-3.3917,-3.3675,-3.3536,-3.3486,-3.3262,-3.3072,-3.2903,-3.2464,-3.1929,-3.1404,-3.1266,-3.1252,-3.1266,-3.1293,-3.143,-3.1703,-3.1826,-3.199,-3.2331,-3.2331,-3.2372,-3.2408,-3.2453,-3.2525,-3.2525,-3.2632,-3.269,-3.269,-3.2938,-3.3049,-3.3146,-3.3652,-3.3992,-3.4132,-3.4173,-3.4623,-3.5517,-3.6077,-3.6363,-3.6365,-3.6365,-3.6405,-3.6365,-3.6325,-3.6206,-3.6206,-3.6058,-3.5965,-3.5965,-3.5965,-3.5938,-3.5938,-3.5978,-3.5978,-3.6006,-3.6197,-3.647,-3.6688,-3.69,-3.7203,-3.7457,-3.8042,-3.8612,-3.849,-3.8421,-3.8376,-3.8376,-3.8285,-3.8253,-3.8103,-3.8011,-3.7979,-3.7979,-3.79,-3.79,-3.9388,-3.9388,-3.9388,-3.9388,-3.9388,-3.9388,-3.9388,-3.9388,-3.9388,-3.9388,-3.9388,-3.9388,-3.9388,-3.9388,-3.9388,-3.9388,-3.9388,-3.9388,-3.9388,-3.9388,-3.9388,-3.9388,-3.9388,-3.9388,-3.9388,-3.9373,-3.9328,-3.9328,-3.9239,-3.8701,-3.8351,-3.8002,-3.7446,-3.6842,-3.6153,-3.5986,-3.557,-3.4902,-3.4632,-3.4448,-3.4191,-3.402,-3.3917,-3.3882,-3.3813,-3.364,-3.3382,-3.3255,-3.3066,-3.2698,-3.2502,-3.2439,-3.2585,-3.269,-3.2571,-3.2585,-3.2676,-3.2613,-3.2654,-3.2618,-3.2668,-3.2704,-3.2739,-3.2739,-3.281,-3.2881,-3.2973,-3.307,-3.3487,-3.3798,-3.3937,-3.4474,-3.5081,-3.5715,-3.5666,-3.587,-3.6332,-3.6496,-3.6628,-3.6549,-3.6484,-3.6484,-3.6603,-3.6563,-3.6524,-3.647,-3.647,-3.6417,-3.6391,-3.6338,-3.6391,-3.6351,-3.6272,-3.6397,-3.6426,-3.6645,-3.6989,-3.762,-3.7766,-3.7883,-3.8017,-3.8566,-3.8922,-3.8814,-3.8692,-3.8647,-3.8602,-3.8512,-3.8421,-3.833,-3.8194,-3.8103,-3.8057,-3.8024,-3.7933,-3.9388,-3.9388,-3.9388,-3.9388,-3.9388,-3.9388,-3.9403,-3.9388,-3.9418,-3.9493,-3.9418,-3.9388,-3.9418,-3.9388,-3.9403,-3.9388,-3.9388,-3.9388,-3.9388,-3.9388,-3.9388,-3.9388,-3.9388,-3.9388,-3.9388,-3.9388,-3.9388,-3.9388,-3.9409,-3.92,-3.885,-3.8357,-3.8187,-3.767,-3.6995,-3.6857,-3.6413,-3.5712,-3.5555,-3.517,-3.4636,-3.4375,-3.421,-3.404,-3.3951,-3.3862,-3.3758,-3.3758,-3.3403,-3.2761,-3.269,-3.269,-3.2725,-3.2725,-3.2761,-3.2761,-3.2725,-3.2725,-3.2725,-3.2725,-3.2775,-3.2917,-3.3072,-3.3192,-3.3382,-3.3486,-3.3804,-3.4115,-3.4441,-3.4724,-3.5192,-3.5773,-3.642,-3.6959,-3.6876,-3.6884,-3.713,-3.7278,-3.7278,-3.7278,-3.724,-3.724,-3.7201,-3.7123,-3.7046,-3.6993,-3.6915,-3.6797,-3.6719,-3.6679,-3.6733,-3.647,-3.6446,-3.6709,-3.6889,-3.7096,-3.7579,-3.8462,-3.8708,-3.8678,-3.8749,-3.8942,-3.9139,-3.9127,-3.8993,-3.8948,-3.8814,-3.8724,-3.8589,-3.8544,-3.8453,-3.8421,-3.8226,-3.8122,-3.8057,-3.9388,-3.9388,-3.9388,-3.9388,-3.9433,-3.9709,-3.9828,-3.9888,-4.0142,-4.0247,-4.0187,-3.9918,-3.9828,-3.9813,-3.9559,-3.9388,-3.9388,-3.9388,-3.9388,-3.9388,-3.9388,-3.9388,-3.9388,-3.9388,-3.9388,-3.9388,-3.9388,-3.9388,-3.9388,-3.9388,-3.9149,-3.8916,-3.8811,-3.8446,-3.7779,-3.7685,-3.7268,-3.661,-3.6428,-3.603,-3.5286,-3.5078,-3.4738,-3.4453,-3.4259,-3.4191,-3.4034,-3.3917,-3.366,-3.3283,-3.3213,-3.3213,-3.3192,-3.3192,-3.3227,-3.3227,-3.3178,-3.3213,-3.3227,-3.3227,-3.3248,-3.3368,-3.3486,-3.3733,-3.4022,-3.4233,-3.4546,-3.5082,-3.5432,-3.579,-3.6176,-3.6785,-3.7309,-3.7587,-3.7687,-3.7634,-3.761,-3.7572,-3.7586,-3.761,-3.761,-3.761,-3.761,-3.751,-3.7471,-3.738,-3.7303,-3.7226,-3.7148,-3.7056,-3.706,-3.6934,-3.7105,-3.7545,-3.8048,-3.8343,-3.8653,-3.9438,-3.9618,-3.9588,-3.9455,-3.9472,-3.9464,-3.9526,-3.9336,-3.9216,-3.9127,-3.9024,-3.889,-3.88,-3.8769,-3.8634,-3.8485,-3.8336,-3.8226,-3.9388,-3.9388,-3.9499,-3.9478,-3.9649,-4.0217,-4.0502,-4.0606,-4.1025,-4.1302,-4.116,-4.0726,-4.0427,-4.0367,-3.9828,-3.9514,-3.9388,-3.9388,-3.9388,-3.9388,-3.9388,-3.9388,-3.9388,-3.9388,-3.9388,-3.9388,-3.9388,-3.9388,-3.9388,-3.9388,-3.9388,-3.9284,-3.9298,-3.908,-3.8581,-3.8497,-3.8068,-3.7486,-3.7317,-3.6887,-3.6197,-3.5996,-3.5702,-3.5229,-3.4913,-3.4733,-3.4457,-3.4214,-3.402,-3.402,-3.3917,-3.3813,-3.3848,-3.3862,-3.3848,-3.3813,-3.3779,-3.3813,-3.3848,-3.3779,-3.3919,-3.4025,-3.4054,-3.4323,-3.4831,-3.5059,-3.5367,-3.605,-3.653,-3.6827,-3.7086,-3.7636,-3.7927,-3.8066,-3.8179,-3.8052,-3.7825,-3.7687,-3.7649,-3.7649,-3.7687,-3.7649,-3.7649,-3.7663,-3.7701,-3.7711,-3.7672,-3.7596,-3.7534,-3.7457,-3.7571,-3.7703,-3.804,-3.8557,-3.9099,-3.9615,-3.9987,-4.046,-4.0506,-4.0477,-4.0163,-4.0087,-3.9998,-3.9878,-3.9645,-3.9615,-3.9628,-3.9496,-3.9247,-3.9114,-3.9083,-3.889,-3.8711,-3.8621,-3.8544,-3.9388,-3.9418,-3.9963,-4.0187,-4.0292,-4.0876,-4.1175,-4.119,-4.1377,-4.1504,-4.1407,-4.1235,-4.0891,-4.0412,-4.0217,-3.9933,-3.9454,-3.9388,-3.9388,-3.9388,-3.9388,-3.9388,-3.9388,-3.9388,-3.9388,-3.9388,-3.9388,-3.9388,-3.9388,-3.9388,-3.9388,-3.9388,-3.9388,-3.9328,-3.92,-3.908,-3.8856,-3.8282,-3.8147,-3.7714,-3.7085,-3.6916,-3.6744,-3.632,-3.5869,-3.5648,-3.5399,-3.4965,-3.4683,-3.4582,-3.4317,-3.4129,-3.4014,-3.3951,-3.4014,-3.4057,-3.4008,-3.396,-3.396,-3.4129,-3.4229,-3.4833,-3.494,-3.5171,-3.5904,-3.6133,-3.6524,-3.707,-3.747,-3.7777,-3.8128,-3.8458,-3.8523,-3.8538,-3.8598,-3.8598,-3.8501,-3.824,-3.8089,-3.8089,-3.8052,-3.8052,-3.8104,-3.8089,-3.8052,-3.8037,-3.8014,-3.7976,-3.7967,-3.792,-3.815,-3.8433,-3.8995,-3.9481,-4.0014,-4.0547,-4.091,-4.1144,-4.1196,-4.1156,-4.0859,-4.0559,-4.04,-4.017,-3.9952,-3.9966,-4.0037,-3.9774,-3.9526,-3.9438,-3.9336,-3.9172,-3.8993,-3.8935,-3.88,-3.9589,-3.9918,-4.0262,-4.0576,-4.095,-4.1549,-4.1871,-4.1931,-4.2177,-4.2297,-4.2222,-4.1998,-4.1512,-4.0846,-4.0516,-4.0038,-3.9559,-3.9388,-3.9388,-3.9388,-3.9388,-3.9388,-3.9388,-3.9388,-3.9388,-3.9388,-3.9388,-3.9388,-3.9388,-3.9388,-3.9388,-3.9388,-3.9388,-3.9388,-3.9388,-3.9388,-3.923,-3.8975,-3.8856,-3.8521,-3.7883,-3.7744,-3.7466,-3.7084,-3.6611,-3.6384,-3.6306,-3.6055,-3.5878,-3.5732,-3.5477,-3.496,-3.4482,-3.4409,-3.4511,-3.4786,-3.483,-3.5038,-3.5183,-3.5314,-3.5543,-3.5889,-3.5948,-3.6383,-3.6863,-3.716,-3.7518,-3.801,-3.8267,-3.8472,-3.8738,-3.8782,-3.8782,-3.8782,-3.8782,-3.8782,-3.8782,-3.8612,-3.8501,-3.8501,-3.8449,-3.8501,-3.8501,-3.8412,-3.8449,-3.8449,-3.8449,-3.8427,-3.8602,-3.8652,-3.8949,-3.929,-3.9877,-4.043,-4.0939,-4.1334,-4.1709,-4.179,-4.1755,-4.1619,-4.1395,-4.1071,-4.073,-4.0559,-4.0443,-4.0357,-4.0371,-4.0067,-3.9848,-3.9747,-3.9615,-3.9438,-3.9305,-3.9216,-3.9024,-3.9888,-4.0427,-4.0606,-4.1025,-4.1579,-4.2261,-4.2545,-4.2635,-4.309,-4.3125,-4.32,-4.2716,-4.2147,-4.1542,-4.0876,-4.0172,-3.9538,-3.9388,-3.9388,-3.9388,-3.9388,-3.9388,-3.9388,-3.9388,-3.9388,-3.9388,-3.9388,-3.9388,-3.9388,-3.9388,-3.9388,-3.9388,-3.9388,-3.9388,-3.9388,-3.9388,-3.9343,-3.9284,-3.9254,-3.911,-3.8646,-3.8506,-3.8197,-3.7793,-3.7347,-3.7188,-3.7129,-3.6996,-3.6916,-3.6956,-3.697,-3.6379,-3.5651,-3.5259,-3.5406,-3.5991,-3.5987,-3.6129,-3.6423,-3.6663,-3.6757,-3.6989,-3.7028,-3.7337,-3.7809,-3.8051,-3.8273,-3.859,-3.8833,-3.887,-3.8892,-3.8929,-3.8929,-3.8892,-3.8892,-3.8892,-3.8907,-3.8907,-3.8885,-3.8745,-3.8671,-3.8671,-3.8708,-3.8708,-3.8745,-3.8819,-3.8833,-3.8907,-3.9114,-3.9386,-3.9671,-4.0109,-4.069,-4.1218,-4.1675,-4.1891,-4.2257,-4.2249,-4.2213,-4.2075,-4.1895,-4.1771,-4.1493,-4.1185,-4.1057,-4.093,-4.0702,-4.0443,-4.027,-4.0097,-3.9922,-3.9716,-3.9584,-3.9496,-3.9305,-4.0292,-4.0502,-4.1617,-4.2141,-4.2321,-4.2895,-4.3135,-4.314,-4.3245,-4.3305,-4.3275,-4.3155,-4.2761,-4.2156,-4.1527,-4.0561,-3.9649,-3.9388,-3.9388,-3.9388,-3.9388,-3.9388,-3.9388,-3.9388,-3.9388,-3.9388,-3.9388,-3.9388,-3.9388,-3.9388,-3.9388,-3.9388,-3.9388,-3.9388,-3.9388,-3.9388,-3.9388,-3.9388,-3.9388,-3.929,-3.9185,-3.9089,-3.9074,-3.8755,-3.8311,-3.8152,-3.8003,-3.7615,-3.7302,-3.7302,-3.7316,-3.7212,-3.6994,-3.6714,-3.667,-3.6714,-3.6773,-3.6941,-3.7148,-3.7054,-3.724,-3.7565,-3.7777,-3.8007,-3.8486,-3.8751,-3.8854,-3.8964,-3.9192,-3.9265,-3.9286,-3.925,-3.9265,-3.9265,-3.9265,-3.925,-3.9265,-3.9228,-3.9141,-3.898,-3.8892,-3.8855,-3.8892,-3.8929,-3.8943,-3.9017,-3.9121,-3.9328,-3.9609,-3.9971,-4.0353,-4.0905,-4.146,-4.197,-4.2441,-4.2471,-4.2618,-4.2603,-4.2566,-4.2526,-4.243,-4.2526,-4.2322,-4.1841,-4.1522,-4.1297,-4.1086,-4.0816,-4.0702,-4.0573,-4.0284,-3.998,-3.9936,-3.9834,-3.9642,-4.0591,-4.0995,-4.2006,-4.2605,-4.288,-4.314,-4.3305,-4.3305,-4.3305,-4.3305,-4.3305,-4.3275,-4.2985,-4.2366,-4.1707,-4.0651,-3.9709,-3.9388,-3.9388,-3.9388,-3.9388,-3.9388,-3.9388,-3.9388,-3.9388,-3.9388,-3.9388,-3.9388,-3.9388,-3.9388,-3.9388,-3.9388,-3.9388,-3.9388,-3.9388,-3.9388,-3.9388,-3.9388,-3.9388,-3.9388,-3.9388,-3.9388,-3.9388,-3.9269,-3.9125,-3.8945,-3.8856,-3.8691,-3.8467,-3.8446,-3.8446,-3.8452,-3.8351,-3.8221,-3.8011,-3.7758,-3.7684,-3.7862,-3.8115,-3.8219,-3.8412,-3.862,-3.8659,-3.8778,-3.9037,-3.9162,-3.9228,-3.9265,-3.9301,-3.9388,-3.9388,-3.9388,-3.9388,-3.9388,-3.9388,-3.9424,-3.9388,-3.9388,-3.9337,-3.925,-3.9213,-3.9177,-3.9126,-3.9141,-3.9104,-3.9223,-3.9416,-3.9773,-4.0159,-4.0694,-4.1252,-4.1689,-4.2268,-4.258,-4.2936,-4.2926,-4.289,-4.289,-4.285,-4.2809,-4.2769,-4.2769,-4.2607,-4.2322,-4.1993,-4.1744,-4.1465,-4.1255,-4.117,-4.1015,-4.0702,-4.04,-4.03,-4.014,-3.9936,-4.098,-4.1677,-4.2321,-4.2865,-4.3245,-4.3305,-4.3305,-4.3305,-4.3305,-4.3305,-4.3305,-4.326,-4.297,-4.2321,-4.1512,-4.0516,-3.9433,-3.9388,-3.9388,-3.9388,-3.9388,-3.9388,-3.9388,-3.9388,-3.9388,-3.9388,-3.9388,-3.9388,-3.9388,-3.9388,-3.9388,-3.9388,-3.9388,-3.9388,-3.9388,-3.9388,-3.9388,-3.9388,-3.9388,-3.9388,-3.9388,-3.9388,-3.9388,-3.9388,-3.9388,-3.9343,-3.9298,-3.9239,-3.9224,-3.9239,-3.9284,-3.9328,-3.9373,-3.9388,-3.9119,-3.8706,-3.8601,-3.8916,-3.9149,-3.9298,-3.9158,-3.9233,-3.9358,-3.9388,-3.9373,-3.9352,-3.9388,-3.9388,-3.9388,-3.9388,-3.9388,-3.9388,-3.9388,-3.9424,-3.9424,-3.946,-3.9496,-3.9568,-3.9676,-3.9589,-3.9568,-3.9583,-3.9598,-3.9577,-3.9592,-3.9952,-4.0162,-4.083,-4.1213,-4.1821,-4.2316,-4.2677,-4.3028,-4.3229,-4.3369,-4.3314,-4.321,-4.309,-4.305,-4.305,-4.297,-4.289,-4.2729,-4.2648,-4.2485,-4.2225,-4.1951,-4.1675,-4.1507,-4.1339,-4.1043,-4.0816,-4.0631,-4.043,-4.0227,-4.1692,-4.2321,-4.294,-4.323,-4.3275,-4.3305,-4.3305,-4.3305,-4.3305,-4.3305,-4.3305,-4.326,-4.2955,-4.2201,-4.1055,-4.0157,-3.9619,-3.9388,-3.9388,-3.9388,-3.9388,-3.9388,-3.9388,-3.9388,-3.9388,-3.9388,-3.9388,-3.9388,-3.9388,-3.9388,-3.9388,-3.9388,-3.9388,-3.9388,-3.9388,-3.9388,-3.9388,-3.9388,-3.9388,-3.9388,-3.9388,-3.9388,-3.9388,-3.9388,-3.9388,-3.9388,-3.9388,-3.9388,-3.9388,-3.9388,-3.9388,-3.9388,-3.9388,-3.9388,-3.9373,-3.9284,-3.9269,-3.9298,-3.9373,-3.9388,-3.9388,-3.9388,-3.9388,-3.9388,-3.9388,-3.9388,-3.9388,-3.9388,-3.9388,-3.9388,-3.9388,-3.9388,-3.9388,-3.946,-3.9553,-3.9625,-3.9676,-3.9711,-3.9818,-4.0051,-4.0061,-4.0082,-4.0082,-4.0061,-4.0122,-4.0546,-4.1016,-4.1652,-4.219,-4.2697,-4.3091,-4.337,-4.3467,-4.3639,-4.366,-4.3621,-4.3503,-4.329,-4.329,-4.325,-4.313,-4.305,-4.305,-4.297,-4.2835,-4.2688,-4.2363,-4.2131,-4.1924,-4.166,-4.1451,-4.1226,-4.0958,-4.0759,-4.053,-4.2141,-4.2455,-4.306,-4.3305,-4.3305,-4.3305,-4.3305,-4.3305,-4.3305,-4.3305,-4.3305,-4.329,-4.2791,-4.1773,-4.0786,-4.0053,-3.9508,-3.9388,-3.9388,-3.9388,-3.9388,-3.9388,-3.9388,-3.9388,-3.9388,-3.9388,-3.9388,-3.9388,-3.9388,-3.9388,-3.9388,-3.9388,-3.9388,-3.9388,-3.9388,-3.9388,-3.9388,-3.9388,-3.9388,-3.9388,-3.9388,-3.9388,-3.9388,-3.9388,-3.9388,-3.9388,-3.9388,-3.9388,-3.9388,-3.9388,-3.9388,-3.9388,-3.9388,-3.9388,-3.9388,-3.9373,-3.9373,-3.9373,-3.9388,-3.9388,-3.9388,-3.9388,-3.9388,-3.9388,-3.9388,-3.9388,-3.9388,-3.9388,-3.9388,-3.9388,-3.9424,-3.9388,-3.9481,-3.9553,-3.9696,-3.9768,-3.9874,-3.9925,-4.0026,-4.0289,-4.0613,-4.0867,-4.1005,-4.0954,-4.1147,-4.1538,-4.1943,-4.2438,-4.2887,-4.3266,-4.3585,-4.3812,-4.3873,-4.3879,-4.391,-4.3871,-4.3754,-4.3581,-4.3518,-4.3463,-4.3305,-4.325,-4.321,-4.321,-4.313,-4.293,-4.2743,-4.2541,-4.2322,-4.2117,-4.191,-4.1646,-4.1339,-4.1043,-4.0773,-4.265,-4.2656,-4.3095,-4.3305,-4.3305,-4.3305,-4.3305,-4.3305,-4.3305,-4.3305,-4.3245,-4.3095,-4.2417,-4.1444,-4.0711,-4.0038,-3.9403,-3.9388,-3.9388,-3.9388,-3.9388,-3.9388,-3.9388,-3.9388,-3.9388,-3.9388,-3.9388,-3.9388,-3.9388,-3.9388,-3.9388,-3.9388,-3.9388,-3.9388,-3.9388,-3.9388,-3.9388,-3.9388,-3.9388,-3.9388,-3.9388,-3.9388,-3.9388,-3.9388,-3.9388,-3.9388,-3.9388,-3.9388,-3.9388,-3.9388,-3.9388,-3.9388,-3.9388,-3.9388,-3.9388,-3.9388,-3.9388,-3.9388,-3.9388,-3.9388,-3.9388,-3.9388,-3.9388,-3.9388,-3.9388,-3.9388,-3.9388,-3.9388,-3.9388,-3.9424,-3.9481,-3.9481,-3.9589,-3.9732,-3.9839,-3.9945,-4.0112,-4.0405,-4.0694,-4.1034,-4.1518,-4.2169,-4.2221,-4.2037,-4.219,-4.2567,-4.2921,-4.3318,-4.3617,-4.3968,-4.4167,-4.4412,-4.4358,-4.4281,-4.4205,-4.4143,-4.3988,-4.3832,-4.3754,-4.3675,-4.3503,-4.3344,-4.3305,-4.3305,-4.3305,-4.3225,-4.3025,-4.285,-4.2729,-4.2444,-4.2199,-4.1993,-4.1744,-4.1381,-4.0972,-4.323,-4.3215,-4.3275,-4.3305,-4.3305,-4.3305,-4.3305,-4.3305,-4.3305,-4.3305,-4.3215,-4.2731,-4.2141,-4.1354,-4.0696,-4.0038,-3.9388,-3.9388,-3.9388,-3.9388,-3.9388,-3.9388,-3.9388,-3.9388,-3.9388,-3.9388,-3.9388,-3.9388,-3.9388,-3.9388,-3.9388,-3.9388,-3.9388,-3.9388,-3.9388,-3.9388,-3.9388,-3.9388,-3.9388,-3.9388,-3.9388,-3.9388,-3.9388,-3.9388,-3.9388,-3.9388,-3.9388,-3.9388,-3.9388,-3.9388,-3.9388,-3.9388,-3.9388,-3.9388,-3.9388,-3.9388,-3.9388,-3.9388,-3.9388,-3.9388,-3.9388,-3.9388,-3.9388,-3.9388,-3.9388,-3.9388,-3.9388,-3.9424,-3.9424,-3.9532,-3.9589,-3.9681,-3.9768,-3.9945,-4.0117,-4.0364,-4.0657,-4.1205,-4.1531,-4.1817,-4.2392,-4.3129,-4.3642,-4.353,-4.3381,-4.371,-4.3772,-4.4121,-4.4443,-4.4721,-4.4827,-4.498,-4.4852,-4.4723,-4.4534,-4.4419,-4.4281,-4.4065,-4.3949,-4.3793,-4.3636,-4.3518,-4.3384,-4.3305,-4.3305,-4.3305,-4.325,-4.309,-4.289,-4.2743,-4.25,-4.2281,-4.1993,-4.1577,-4.1198,-4.3305,-4.3305,-4.3305,-4.3305,-4.3305,-4.3305,-4.3305,-4.3305,-4.3305,-4.3305,-4.3245,-4.2656,-4.2036,-4.1392,-4.0696,-4.0038,-3.9448,-3.9388,-3.9388,-3.9388,-3.9388,-3.9388,-3.9388,-3.9388,-3.9388,-3.9388,-3.9388,-3.9388,-3.9388,-3.9388,-3.9388,-3.9388,-3.9388,-3.9388,-3.9388,-3.9388,-3.9388,-3.9388,-3.9388,-3.9388,-3.9388,-3.9388,-3.9388,-3.9388,-3.9388,-3.9388,-3.9388,-3.9388,-3.9388,-3.9388,-3.9388,-3.9388,-3.9388,-3.9388,-3.9388,-3.9388,-3.9388,-3.9388,-3.9388,-3.9388,-3.9388,-3.9388,-3.9388,-3.9388,-3.9388,-3.9388,-3.9388,-3.9424,-3.9517,-3.9661,-3.9696,-3.9803,-3.996,-4.0121,-4.0423,-4.0731,-4.131,-4.1938,-4.2439,-4.279,-4.3482,-4.4189,-4.4693,-4.5065,-4.4934,-4.4866,-4.4882,-4.4892,-4.5153,-4.5315,-4.5352,-4.5331,-4.5225,-4.5039,-4.4836,-4.4701,-4.4549,-4.432,-4.4104,-4.3949,-4.3832,-4.369,-4.3557,-4.3438,-4.3305,-4.3305,-4.3265,-4.321,-4.309,-4.293,-4.2729,-4.2566,-4.2199,-4.1858,-4.1665,-4.3305,-4.3305,-4.3305,-4.3305,-4.3305,-4.3305,-4.3305,-4.3305,-4.3305,-4.3305,-4.326,-4.2821,-4.2186,-4.1429,-4.0935,-4.0172,-3.9634,-3.9388,-3.9388,-3.9388,-3.9388,-3.9388,-3.9388,-3.9388,-3.9388,-3.9388,-3.9388,-3.9388,-3.9388,-3.9388,-3.9388,-3.9388,-3.9388,-3.9388,-3.9388,-3.9388,-3.9388,-3.9388,-3.9388,-3.9388,-3.9388,-3.9388,-3.9388,-3.9388,-3.9388,-3.9388,-3.9388,-3.9388,-3.9388,-3.9388,-3.9388,-3.9388,-3.9388,-3.9388,-3.9388,-3.9388,-3.9388,-3.9388,-3.9388,-3.9388,-3.9388,-3.9388,-3.9388,-3.9388,-3.9424,-3.9445,-3.9517,-3.9517,-3.9661,-3.9803,-3.9874,-4.0051,-4.0475,-4.0777,-4.1075,-4.145,-4.2229,-4.2907,-4.3361,-4.378,-4.4508,-4.5243,-4.5389,-4.573,-4.5707,-4.5602,-4.5602,-4.5566,-4.5645,-4.5703,-4.5682,-4.5609,-4.5515,-4.5315,-4.5114,-4.4927,-4.4739,-4.4587,-4.4358,-4.4181,-4.4026,-4.3886,-4.369,-4.3557,-4.3423,-4.3344,-4.3319,-4.3295,-4.3225,-4.3115,-4.3015,-4.2917,-4.2814,-4.2515,-4.2462,-4.3305,-4.3305,-4.3305,-4.3305,-4.3305,-4.3305,-4.3305,-4.3305,-4.3305,-4.3305,-4.329,-4.3165,-4.2476,-4.1549,-4.1145,-4.0412,-3.9604,-3.9388,-3.9388,-3.9388,-3.9388,-3.9388,-3.9388,-3.9388,-3.9388,-3.9388,-3.9388,-3.9388,-3.9388,-3.9388,-3.9388,-3.9388,-3.9388,-3.9388,-3.9388,-3.9388,-3.9388,-3.9388,-3.9388,-3.9388,-3.9388,-3.9388,-3.9388,-3.9388,-3.9388,-3.9388,-3.9388,-3.9388,-3.9388,-3.9388,-3.9388,-3.9388,-3.9388,-3.9388,-3.9388,-3.9388,-3.9388,-3.9388,-3.9409,-3.9424,-3.9424,-3.9424,-3.9424,-3.946,-3.9445,-3.9553,-3.9696,-3.9696,-3.9889,-4.0101,-4.0226,-4.0512,-4.104,-4.1411,-4.1743,-4.2369,-4.3169,-4.3822,-4.4246,-4.4696,-4.5511,-4.6234,-4.6234,-4.6266,-4.6285,-4.6246,-4.6262,-4.6227,-4.612,-4.6048,-4.5956,-4.59,-4.5792,-4.5609,-4.541,-4.5151,-4.4964,-4.4814,-4.4625,-4.4396,-4.4181,-4.4026,-4.3832,-4.3705,-4.3737,-4.3783,-4.3569,-4.3379,-4.3593,-4.3822,-4.3448,-4.3319,-4.3245,-4.3232,-4.3209,-4.3305,-4.3305,-4.3305,-4.3305,-4.3305,-4.3305,-4.3305,-4.3305,-4.3305,-4.3305,-4.32,-4.291,-4.2252,-4.1527,-4.0876,-4.0277,-3.9538,-3.9388,-3.9388,-3.9388,-3.9388,-3.9388,-3.9388,-3.9388,-3.9388,-3.9388,-3.9388,-3.9388,-3.9388,-3.9388,-3.9388,-3.9388,-3.9388,-3.9388,-3.9388,-3.9388,-3.9388,-3.9388,-3.9388,-3.9388,-3.9388,-3.9388,-3.9388,-3.9388,-3.9388,-3.9388,-3.9388,-3.9388,-3.9388,-3.9388,-3.9388,-3.9388,-3.9388,-3.9388,-3.9424,-3.9409,-3.9409,-3.9496,-3.9553,-3.9589,-3.9517,-3.9517,-3.9517,-3.9589,-3.961,-3.9783,-3.9889,-3.9975,-4.0233,-4.0392,-4.0436,-4.1225,-4.179,-4.2065,-4.2485,-4.3418,-4.4176,-4.4678,-4.5138,-4.5636,-4.6337,-4.6563,-4.6684,-4.6684,-4.6684,-4.6615,-4.6615,-4.6404,-4.6298,-4.6262,-4.6191,-4.6171,-4.61,-4.5936,-4.5771,-4.562,-4.5506,-4.5397,-4.5038,-4.4625,-4.4396,-4.441,-4.4367,-4.4397,-4.4298,-4.4238,-4.4223,-4.4332,-4.4571,-4.4635,-4.4437,-4.4255,-4.4273,-4.424,-4.413,-4.3305,-4.3305,-4.3305,-4.3305,-4.3305,-4.3305,-4.3305,-4.3305,-4.3305,-4.3305,-4.317,-4.2656,-4.2036,-4.1354,-4.0696,-4.0038,-3.9433,-3.9388,-3.9388,-3.9388,-3.9388,-3.9388,-3.9388,-3.9388,-3.9388,-3.9388,-3.9388,-3.9388,-3.9388,-3.9388,-3.9388,-3.9388,-3.9388,-3.9388,-3.9388,-3.9388,-3.9388,-3.9388,-3.9388,-3.9388,-3.9388,-3.9388,-3.9388,-3.9388,-3.9388,-3.9388,-3.9388,-3.9388,-3.9388,-3.9388,-3.9388,-3.9388,-3.9388,-3.9388,-3.9445,-3.9481,-3.9604,-3.9676,-3.9783,-3.9803,-3.9732,-3.9676,-3.9747,-3.9803,-3.9839,-3.9996,-4.0137,-4.0272,-4.0639,-4.0917,-4.1229,-4.2084,-4.273,-4.3006,-4.3671,-4.4557,-4.5215,-4.5699,-4.5952,-4.647,-4.6754,-4.6927,-4.7046,-4.7064,-4.7098,-4.7012,-4.6909,-4.6733,-4.6606,-4.6555,-4.6619,-4.6648,-4.6644,-4.6514,-4.6394,-4.6266,-4.6118,-4.6003,-4.5683,-4.5347,-4.538,-4.55,-4.5309,-4.5076,-4.5067,-4.5086,-4.5207,-4.5334,-4.5469,-4.5651,-4.5774,-4.5588,-4.5429,-4.523,-4.506,-4.3305,-4.3305,-4.3305,-4.3305,-4.3305,-4.3305,-4.3305,-4.3305,-4.3305,-4.3275,-4.3185,-4.2536,-4.1886,-4.125,-4.0636,-3.9993,-3.9529,-3.9403,-3.9388,-3.9388,-3.9388,-3.9388,-3.9388,-3.9388,-3.9388,-3.9388,-3.9388,-3.9388,-3.9388,-3.9388,-3.9388,-3.9388,-3.9388,-3.9388,-3.9388,-3.9388,-3.9388,-3.9388,-3.9388,-3.9388,-3.9388,-3.9388,-3.9388,-3.9388,-3.9388,-3.9388,-3.9388,-3.9388,-3.9388,-3.9388,-3.9388,-3.9424,-3.9424,-3.9409,-3.9553,-3.9696,-3.9889,-3.994,-4.0011,-3.9996,-4.0066,-4.0066,-4.0101,-4.0066,-4.0101,-4.0257,-4.0477,-4.0867,-4.1341,-4.1759,-4.2212,-4.312,-4.3997,-4.4437,-4.4979,-4.5648,-4.6309,-4.6659,-4.6848,-4.7115,-4.7267,-4.7385,-4.7418,-4.7452,-4.7712,-4.7693,-4.7671,-4.7765,-4.7559,-4.7147,-4.7192,-4.7281,-4.7262,-4.7171,-4.7101,-4.7134,-4.7003,-4.6916,-4.6816,-4.657,-4.6617,-4.6403,-4.615,-4.5955,-4.5884,-4.5936,-4.61,-4.6184,-4.6277,-4.6459,-4.655,-4.652,-4.6169,-4.6111,-4.6057,-4.3305,-4.3305,-4.3305,-4.3305,-4.3305,-4.3305,-4.3305,-4.3305,-4.329,-4.312,-4.2611,-4.1991,-4.1324,-4.0651,-4.0008,-3.9612,-3.9463,-3.9388,-3.9388,-3.9388,-3.9388,-3.9388,-3.9388,-3.9388,-3.9388,-3.9388,-3.9388,-3.9388,-3.9388,-3.9388,-3.9388,-3.9388,-3.9388,-3.9388,-3.9388,-3.9388,-3.9388,-3.9388,-3.9388,-3.9388,-3.9388,-3.9388,-3.9388,-3.9388,-3.9388,-3.9388,-3.9388,-3.9388,-3.9388,-3.9388,-3.9388,-3.9445,-3.9625,-3.9625,-3.9681,-3.9889,-4.0011,-4.0046,-4.0172,-4.0312,-4.0447,-4.0647,-4.0751,-4.0555,-4.0539,-4.0697,-4.1024,-4.1603,-4.2235,-4.2736,-4.3368,-4.423,-4.4918,-4.5429,-4.5938,-4.6449,-4.6961,-4.7132,-4.7319,-4.7453,-4.7603,-4.7784,-4.78,-4.816,-4.8405,-4.8404,-4.8502,-4.8664,-4.856,-4.8162,-4.7944,-4.805,-4.8071,-4.8029,-4.8212,-4.8283,-4.8052,-4.7864,-4.7813,-4.7614,-4.7263,-4.7073,-4.6911,-4.6844,-4.6822,-4.6906,-4.7056,-4.7061,-4.6843,-4.6965,-4.7042,-4.7042,-4.6983,-4.6821,-4.6675,-4.3305,-4.3305,-4.3305,-4.3305,-4.326,-4.306,-4.2955,-4.2955,-4.294,-4.2686,-4.2321,-4.1384,-4.0771,-4.0382,-3.9783,-3.9403,-3.9403,-3.9388,-3.9388,-3.9388,-3.9388,-3.9388,-3.9388,-3.9388,-3.9388,-3.9388,-3.9388,-3.9388,-3.9388,-3.9388,-3.9388,-3.9388,-3.9388,-3.9388,-3.9388,-3.9388,-3.9388,-3.9388,-3.9388,-3.9388,-3.9388,-3.9388,-3.9388,-3.9388,-3.9388,-3.9388,-3.9418,-3.9418,-3.9418,-3.9424,-3.9445,-3.9553,-3.9768,-3.9839,-4.0016,-4.0207,-4.0331,-4.047,-4.0655,-4.1036,-4.1155,-4.1367,-4.1744,-4.1963,-4.1769,-4.18,-4.2188,-4.2639,-4.3276,-4.3897,-4.4596,-4.5266,-4.5745,-4.6209,-4.6671,-4.7134,-4.7319,-4.7454,-4.7587,-4.7736,-4.7918,-4.8132,-4.8428,-4.8855,-4.9168,-4.9319,-4.95,-4.9763,-4.9608,-4.9239,-4.9003,-4.8947,-4.8985,-4.9004,-4.9204,-4.9349,-4.9218,-4.904,-4.8982,-4.8686,-4.8106,-4.7851,-4.7833,-4.7783,-4.7768,-4.774,-4.7573,-4.7463,-4.7319,-4.7396,-4.7309,-4.7206,-4.7161,-4.7146,-4.7045,-4.3245,-4.3185,-4.3155,-4.3035,-4.3035,-4.2521,-4.2321,-4.2321,-4.2216,-4.2216,-4.1931,-4.0935,-4.0397,-4.0113,-3.9612,-3.9403,-3.9388,-3.9388,-3.9388,-3.9388,-3.9388,-3.9388,-3.9388,-3.9388,-3.9388,-3.9388,-3.9388,-3.9388,-3.9388,-3.9388,-3.9388,-3.9388,-3.9388,-3.9388,-3.9388,-3.9388,-3.9463,-3.9709,-3.9649,-3.9568,-3.9418,-3.9388,-3.9388,-3.9388,-3.9403,-3.9454,-3.9478,-3.9493,-3.9529,-3.9631,-3.9799,-3.9983,-4.0264,-4.0522,-4.0703,-4.0878,-4.1175,-4.1329,-4.1591,-4.1959,-4.22,-4.2539,-4.2968,-4.3299,-4.3242,-4.2808,-4.305,-4.368,-4.4368,-4.4925,-4.5596,-4.6158,-4.6656,-4.6873,-4.7205,-4.7454,-4.7588,-4.7836,-4.8166,-4.8365,-4.8761,-4.896,-4.9207,-4.9636,-5.0081,-5.0234,-5.0532,-5.0863,-5.0727,-5.0387,-5.0167,-4.9995,-5.0046,-5.0131,-5.0148,-5.0293,-5.0333,-5.0256,-5.0037,-4.9702,-4.9095,-4.8901,-4.8795,-4.8547,-4.8278,-4.803,-4.7849,-4.7709,-4.7553,-4.7439,-4.7352,-4.7309,-4.7309,-4.7309,-4.7266,-4.303,-4.259,-4.2058,-4.1848,-4.1833,-4.1722,-4.1647,-4.1564,-4.107,-4.0905,-4.0801,-4.0531,-4.0127,-3.9709,-3.9523,-3.9388,-3.9388,-3.9388,-3.9388,-3.9388,-3.9388,-3.9388,-3.9388,-3.9388,-3.9388,-3.9388,-3.9388,-3.9388,-3.9388,-3.9388,-3.9388,-3.9388,-3.9388,-3.9403,-3.9493,-3.9493,-3.9694,-4.0113,-4.0157,-3.9948,-3.9664,-3.9463,-3.9388,-3.9433,-3.9478,-3.9813,-3.9963,-4.0172,-4.0598,-4.0994,-4.1136,-4.1462,-4.1899,-4.2099,-4.2344,-4.2536,-4.2455,-4.2513,-4.2749,-4.3079,-4.3321,-4.3556,-4.3947,-4.4368,-4.4402,-4.3934,-4.4047,-4.4777,-4.5415,-4.5975,-4.6471,-4.7004,-4.7386,-4.7504,-4.7654,-4.7754,-4.7853,-4.8283,-4.8713,-4.9127,-4.9574,-4.9856,-5.0071,-5.0419,-5.085,-5.128,-5.1711,-5.1959,-5.1877,-5.1638,-5.1416,-5.1276,-5.1293,-5.1328,-5.1231,-5.0997,-5.0924,-5.0801,-5.056,-5.0315,-5.001,-4.9613,-4.9169,-4.8939,-4.8676,-4.8385,-4.8091,-4.7794,-4.7639,-4.751,-4.7439,-4.7396,-4.7309,-4.7309,-4.7309,-4.2267,-4.1931,-4.1572,-4.1422,-4.1377,-4.107,-4.095,-4.0816,-4.0247,-3.9978,-3.9963,-3.9933,-3.9717,-3.9439,-3.9388,-3.9388,-3.9388,-3.9388,-3.9388,-3.9388,-3.9388,-3.9388,-3.9388,-3.9388,-3.9388,-3.9388,-3.9388,-3.9388,-3.9388,-3.9388,-3.9388,-3.9418,-3.9454,-3.9589,-3.9768,-3.9903,-4.0172,-4.0786,-4.0816,-4.0621,-4.0262,-4.0262,-4.0292,-4.0292,-4.0352,-4.0531,-4.0621,-4.0831,-4.1175,-4.1662,-4.1863,-4.2172,-4.2535,-4.2767,-4.3098,-4.3259,-4.3368,-4.3516,-4.3854,-4.4201,-4.4514,-4.4717,-4.5241,-4.581,-4.6062,-4.5653,-4.5635,-4.6273,-4.6426,-4.6939,-4.709,-4.7488,-4.7704,-4.7836,-4.8001,-4.8116,-4.8497,-4.8928,-4.936,-4.9792,-5.0223,-5.0618,-5.0883,-5.1313,-5.1696,-5.1812,-5.2326,-5.2359,-5.2393,-5.2409,-5.2302,-5.223,-5.205,-5.1941,-5.1753,-5.15,-5.1306,-5.1183,-5.101,-5.0573,-5.0089,-4.9812,-4.9493,-4.921,-4.8965,-4.8676,-4.8385,-4.8091,-4.7752,-4.7639,-4.751,-4.7424,-4.7381,-4.7309,-4.7309,-4.1354,-4.1302,-4.1145,-4.1115,-4.1055,-4.0531,-4.0277,-4.0172,-3.9679,-3.9403,-3.9433,-3.9448,-3.9388,-3.9388,-3.9388,-3.9388,-3.9388,-3.9388,-3.9388,-3.9388,-3.9388,-3.9388,-3.9388,-3.9388,-3.9388,-3.9388,-3.9388,-3.9388,-3.9388,-3.9388,-3.9418,-3.9463,-3.9679,-3.9873,-4.0337,-4.0591,-4.0846,-4.1324,-4.1557,-4.1579,-4.1519,-4.1482,-4.1265,-4.1294,-4.1437,-4.1452,-4.1459,-4.158,-4.1693,-4.2228,-4.2738,-4.3152,-4.3474,-4.3753,-4.3977,-4.4204,-4.4415,-4.4575,-4.4781,-4.5319,-4.5617,-4.5979,-4.6633,-4.7015,-4.7186,-4.722,-4.7135,-4.7253,-4.7454,-4.7521,-4.7671,-4.7803,-4.8,-4.8263,-4.8411,-4.8626,-4.9108,-4.9642,-5.0126,-5.0576,-5.0939,-5.1367,-5.168,-5.2111,-5.226,-5.2376,-5.2409,-5.2409,-5.2409,-5.2409,-5.2373,-5.2302,-5.223,-5.2139,-5.2066,-5.1884,-5.1626,-5.1403,-5.1162,-5.0689,-5.0246,-5.005,-4.9812,-4.9477,-4.9235,-4.9006,-4.8718,-4.8427,-4.8133,-4.7794,-4.7709,-4.7624,-4.7467,-4.7381,-4.7337,-4.107,-4.0531,-4.0023,-3.9813,-3.9798,-3.9627,-3.9604,-3.9604,-3.9499,-3.9388,-3.9388,-3.9388,-3.9388,-3.9388,-3.9388,-3.9388,-3.9388,-3.9388,-3.9388,-3.9388,-3.9388,-3.9388,-3.9388,-3.9388,-3.9388,-3.9388,-3.9388,-3.9439,-3.9568,-3.9523,-3.9687,-4.0187,-4.0217,-4.0531,-4.107,-4.1294,-4.1489,-4.2006,-4.2237,-4.2312,-4.2432,-4.2147,-4.1497,-4.1422,-4.1422,-4.1767,-4.2036,-4.237,-4.2908,-4.3503,-4.4019,-4.4347,-4.4596,-4.4856,-4.5128,-4.5352,-4.5562,-4.5821,-4.6106,-4.639,-4.664,-4.6858,-4.7336,-4.737,-4.7504,-4.7588,-4.7621,-4.7737,-4.7836,-4.7803,-4.7902,-4.8033,-4.8212,-4.864,-4.8903,-4.932,-4.9739,-5.0559,-5.1262,-5.1544,-5.1824,-5.2001,-5.2094,-5.2326,-5.2343,-5.2409,-5.2409,-5.2409,-5.2409,-5.2409,-5.2409,-5.2373,-5.2354,-5.2247,-5.2139,-5.2066,-5.1884,-5.1626,-5.1403,-5.0972,-5.065,-5.0379,-5.0129,-4.9797,-4.9557,-4.9331,-4.9047,-4.8759,-4.8453,-4.816,-4.8007,-4.788,-4.7666,-4.7495,-4.751]},{"header":{"parameterUnit":"m.s-1","parameterCategory":1,"la1":31.0,"la2":29.5877,"lo1":-88.7671,"lo2":-86.6584,"dy":0.0162,"dx":0.0185,"nx":115,"ny":88,"refTime":"2024-03-10T06:00:00:Z","depth":0,"parameterNumber":3,"parameterNumberName":"V-component_of_WINDS"},"data":[0.0,0.0,0.0,0.0,0.0,0.0,0.0,0.0,0.0,0.0,0.0,0.0,0.0,0.0,0.0,0.0,0.0,0.0,0.0,0.0,0.0,0.0,0.0,0.0,0.0,0.0,0.0,0.0,0.0,0.0,0.0,0.0,0.0,0.0,0.0,0.0,0.0,0.0,0.0,0.0,0.0,0.0,0.0,0.0,0.0,0.0,0.0,0.0,0.0,0.0,0.0,0.0,0.0,0.0,0.0,0.0,0.0,0.0,0.0,0.0,0.0,0.0,0.0,0.0,0.0,0.0,0.0,0.0,0.0,0.0,0.0,0.0,0.0,0.0,0.0,0.0,0.0,0.0,0.0,0.0,0.0,0.0,0.0,0.0,0.0,0.0,0.0,0.0,0.0,0.0,0.0,0.0,0.0,0.0,0.0,0.0,0.0,0.0,0.0,0.0,0.0,0.0,0.0,0.0,0.0,0.0,0.0,0.0,0.0,0.0,0.0,0.0,0.0,0.0,0.0,0.0,0.0,0.0,0.0,0.0,0.0,0.0,0.0,0.0,0.0,0.0,0.0,0.0,0.0,0.0,0.0,0.0,0.0,0.0,0.0,0.0,0.0,0.0,0.0,0.0,0.0,0.0,0.0,0.0,0.0,0.0,0.0,0.0,0.0,0.0,0.0,0.0,0.0,0.0,0.0,0.0,0.0,0.0,0.0,0.0,0.0,0.0,0.0,0.0,0.0,0.0,0.0,0.0,0.0,0.0,0.0,0.0,0.0,0.0,0.0,0.0,0.0,0.0,0.0,0.0,0.0,0.0,0.0,0.0,0.0,0.0,0.0,0.0,0.0,0.0,0.0,0.0,0.0,0.0,0.0,0.0,0.0,0.0,0.0,0.0,0.0,0.0,0.0,0.0,0.0,0.0,0.0,0.0,0.0,0.0,0.0,0.0,0.0,0.0,0.0,0.0,0.0,0.0,0.0,0.0,0.0,0.0,0.0,0.0,0.0,0.0,0.0,0.0,0.0,0.0,0.0,0.0,0.0,0.0,0.0,0.0,0.0,0.0,0.0,0.0,0.0,0.0,0.0,0.0,0.0,0.0,0.0,0.0,0.0,0.0,0.0,0.0,0.0,0.0,0.0,0.0,0.0,0.0,0.0,0.0,0.0,0.0,0.0,0.0,0.0,0.0,0.0,0.0,0.0,0.0,0.0,0.0,0.0,0.0,0.0,0.0,0.0,0.0,0.0,0.0,0.0,0.0,0.0,0.0,0.0,0.0,0.0,0.0,0.0,0.0,0.0,0.0,0.0,0.0,0.0,0.0,0.0,0.0,0.0,0.0,0.0,0.0,0.0,0.0,0.0,0.0,0.0,0.0,0.0,0.0,0.0,0.0,0.0,0.0,0.0,0.0,0.0,0.0,0.0,0.0,0.0,0.0,0.0,0.0,0.0,0.0,0.0,0.0,0.0,0.0,0.0,0.0,0.0,0.0,0.0,0.0,0.0,0.0,0.0,0.0,0.0,0.0,0.0,0.0,0.0,0.0,0.0,0.0,0.0,0.0,0.0,0.0,0.0,0.0,0.0,0.0,0.0,0.0,0.0,0.0,0.0,0.0,0.0,0.0,0.0,0.0,0.0,0.0,0.0,0.0,0.0,0.0,0.0,0.0,0.0,0.0,0.0,0.0,0.0,0.0,0.0,0.0,0.0,0.0,0.0,0.0,0.0,0.0,0.0,0.0,0.0,0.0,0.0,0.0,0.0,0.0,0.0,0.0,0.0,0.0,0.0,0.0,0.0,0.0,0.0,0.0,0.0,0.0,0.0,0.0,0.0,0.0,0.0,0.0,0.0,0.0,0.0,0.0,0.0,0.0,0.0,0.0,0.0,0.0,0.0,0.0,0.0,0.0,0.0,0.0,0.0,0.0,0.0,0.0,0.0,0.0,0.0,0.0,0.0,0.0,0.0,0.0,0.0,0.0,0.0,0.0,0.0,0.0,0.0,0.0,0.0,0.0,0.0,0.0,0.0,0.0,0.0,0.0,0.0,0.0,0.0,0.0,0.0,0.0,0.0,0.0,0.0,0.0,0.0,0.0,0.0,0.0,0.0,0.0,0.0,0.0,0.0,0.0,0.0,0.0,0.0,0.0,0.0,0.0,0.0,0.0,0.0,0.0,0.0,0.0,0.0,0.0,0.0,0.0,0.0,0.0,0.0,0.0,0.0,0.0,0.0,0.0,0.0,0.0,0.0,0.0,0.0,0.0,0.0,0.0,0.0,0.0,0.0,0.0,0.0,0.0,0.0,0.0,0.0,0.0,0.0,0.0,0.0,0.0,0.0,0.0,0.0,0.0,0.0,0.0,0.0,0.0,0.0,0.0,0.0,0.0,0.0,0.0,0.0,0.0,0.0,0.0,0.0,0.0,0.0,0.0,0.0,0.0,0.0,0.0,0.0,0.0,0.0,0.0,0.0,0.0,0.0,0.0,0.0,0.0,0.0,0.0,0.0,0.0,0.0,0.0,0.0,0.0,0.0,0.0,0.0,0.0,0.0,0.0,0.0,0.0,0.0,0.0,0.0,0.0,0.0,0.0,0.0,0.0,0.0,0.0,0.0,0.0,0.0,0.0,0.0,0.0,0.0,0.0,0.0,0.0,0.0,0.0,0.0,0.0,0.0,0.0,0.0,0.0,0.0,0.0,0.0,0.0,0.0,0.0,0.0,0.0,0.0,0.0,0.0,0.0,0.0,0.0,0.0,0.0,0.0,0.0,0.0,0.0,0.0,0.0,0.0,0.0,0.0,0.0,0.0,0.0,0.0,0.0,0.0,0.0,0.0,0.0,0.0,0.0,0.0,0.0,0.0,0.0,0.0,0.0,0.0,0.0,0.0,0.0,0.0,0.0,0.0,0.0,0.0,0.0,0.0,0.0,0.0,0.0,0.0,0.0,0.0,0.0,0.0,0.0,0.0,0.0,0.0,0.0,0.0,0.0,0.0,0.0,0.0,0.0,0.0,0.0,0.0,0.0,0.0,0.0,0.0,0.0,0.0,0.0,0.0,0.0,0.0,0.0,0.0,0.0,0.0,0.0,0.0,0.0,0.0,0.0,0.0,0.0,0.0,0.0,0.0,0.0,0.0,0.0,0.0,0.0,0.0,0.0,0.0,0.0,0.0,0.0,0.0,0.0,0.0,0.0,0.0,0.0,0.0,0.0,0.0,0.0,0.0,0.0,0.0,0.0,0.0,0.0,0.0,0.0,0.0,0.0,0.0,0.0,0.0,0.0,0.0,0.0,0.0,0.0,0.0,0.0,0.0,0.0,0.0,0.0,0.0,0.0,0.0,0.0,0.0,0.0,0.0,0.0,0.0,0.0,0.0,0.0,0.0,0.0,0.0,0.0,0.0,0.0,0.0,0.0,0.0,0.0,0.0,0.0,0.0,0.0,0.0,0.0,0.0,0.0,0.0,0.0,0.0,0.0,0.0,0.0,0.0,0.0,0.0,0.0,0.0,0.0,0.0,0.0,0.0,0.0,0.0,0.0,0.0,0.0,0.0,0.0,0.0,0.0,0.0,0.0,0.0,0.0,0.0,0.0,0.0,0.0,0.0,0.0,0.0,0.0,0.0,0.0,0.0,0.0,0.0,0.0,0.0,0.0,0.0,0.0,0.0,0.0,0.0,0.0,0.0,0.0,0.0,0.0,0.0,0.0,0.0,0.0,0.0,0.0,0.0,0.0,0.0,0.0,0.0,0.0,0.0,0.0,0.0,0.0,0.0,0.0,0.0,0.0,0.0,0.0,0.0,0.0,0.0,0.0,0.0,0.0,0.0,0.0,0.0,0.0,0.0,0.0,0.0,0.0,0.0,0.0,0.0,0.0,0.0,0.0,0.0,0.0,0.0,0.0,0.0,0.0,0.0,0.0,0.0,0.0,0.0,0.0,0.0,0.0,0.0,0.0,0.0,0.0,0.0,0.0,0.0,0.0,0.0,0.0,0.0,0.0,0.0,0.0,0.0,0.0,0.0,0.0,0.0,0.0,0.0,0.0,0.0,0.0,0.0,0.0,0.0,0.0,0.0,0.0,0.0,0.0,0.0,0.0,0.0,0.0,0.0,0.0,0.0,0.0,0.0,0.0,0.0,0.0,0.0,0.0,0.0,0.0,0.0,0.0,0.0,0.0,0.0,0.0,0.0,0.0,0.0,0.0,0.0,0.0,0.0,0.0,0.0,0.0,0.0,0.0,0.0,0.0,0.0,0.0,0.0,0.0,0.0,0.0,0.0,0.0,0.0,0.0,2.0367,0.0,0.0,0.0,0.0,0.0,0.0,0.0,0.0,0.0,0.0,0.0,0.0,0.0,0.0,0.0,0.0,0.0,0.0,0.0,0.0,0.0,0.0,0.0,0.0,0.0,0.0,0.0,0.0,0.0,0.0,0.0,0.0,0.0,0.0,0.0,0.0,0.0,0.0,0.0,0.0,0.0,0.0,0.0,0.0,0.0,0.0,0.0,0.0,0.0,0.0,0.0,0.0,0.0,0.0,0.0,0.0,0.0,0.0,0.0,0.0,0.0,0.0,0.0,0.0,0.0,0.0,0.0,0.0,0.0,0.0,0.0,0.0,0.0,0.0,0.0,0.0,0.0,0.0,0.0,0.0,0.0,0.0,0.0,0.0,0.0,0.0,0.0,0.0,0.0,0.0,0.0,0.0,0.0,0.0,0.0,0.0,0.0,0.0,0.0,0.0,0.0,0.0,0.0,0.0,0.0,0.0,0.0,0.0,0.0,0.0,2.1213,2.165,2.138,2.1109,2.0843,0.0,0.0,0.0,0.0,0.0,0.0,0.0,0.0,0.0,0.0,0.0,0.0,0.0,0.0,0.0,0.0,0.0,0.0,0.0,0.0,0.0,0.0,0.0,0.0,0.0,0.0,0.0,0.0,0.0,0.0,0.0,0.0,0.0,0.0,0.0,0.0,0.0,0.0,0.0,0.0,0.0,0.0,0.0,0.0,0.0,0.0,0.0,0.0,0.0,0.0,0.0,0.0,0.0,0.0,0.0,0.0,0.0,0.0,0.0,0.0,0.0,0.0,0.0,0.0,0.0,0.0,0.0,0.0,0.0,0.0,0.0,0.0,0.0,0.0,0.0,0.0,0.0,0.0,0.0,0.0,0.0,0.0,0.0,0.0,0.0,0.0,0.0,0.0,0.0,0.0,0.0,0.0,0.0,0.0,0.0,0.0,0.0,0.0,0.0,0.0,0.0,0.0,0.0,0.0,0.0,0.0,0.0,0.0,0.0,0.0,0.0,0.0,2.2317,2.1869,2.117,0.0,0.0,0.0,0.0,0.0,0.0,0.0,0.0,0.0,0.0,0.0,0.0,0.0,0.0,0.0,0.0,0.0,0.0,0.0,0.0,0.0,0.0,0.0,0.0,0.0,0.0,0.0,0.0,0.0,0.0,0.0,0.0,0.0,0.0,0.0,0.0,0.0,0.0,0.0,0.0,0.0,0.0,0.0,0.0,0.0,0.0,0.0,0.0,0.0,0.0,0.0,0.0,0.0,0.0,0.0,0.0,0.0,0.0,0.0,0.0,0.0,0.0,0.0,0.0,0.0,0.0,0.0,0.0,0.0,0.0,0.0,0.0,0.0,0.0,0.0,0.0,0.0,0.0,0.0,0.0,0.0,0.0,0.0,0.0,0.0,0.0,0.0,0.0,0.0,0.0,0.0,0.0,0.0,0.0,0.0,0.0,0.0,0.0,0.0,0.0,0.0,0.0,0.0,0.0,0.0,0.0,0.0,0.0,0.0,0.0,2.3376,2.4061,2.3462,0.0,2.1633,0.0,0.0,0.0,0.0,0.0,0.0,0.0,0.0,0.0,0.0,0.0,0.0,0.0,0.0,0.0,0.0,0.0,0.0,0.0,0.0,0.0,0.0,0.0,0.0,0.0,0.0,0.0,0.0,0.0,0.0,0.0,0.0,0.0,0.0,0.0,0.0,0.0,0.0,0.0,0.0,0.0,0.0,0.0,0.0,0.0,0.0,0.0,0.0,0.0,0.0,0.0,0.0,0.0,0.0,0.0,0.0,0.0,0.0,0.0,0.0,0.0,0.0,0.0,0.0,0.0,0.0,0.0,0.0,0.0,0.0,0.0,0.0,0.0,0.0,0.0,0.0,0.0,0.0,0.0,0.0,0.0,0.0,0.0,0.0,0.0,0.0,0.0,0.0,0.0,0.0,0.0,0.0,0.0,0.0,0.0,0.0,0.0,0.0,0.0,0.0,0.0,0.0,0.0,0.0,0.0,0.0,0.0,0.0,0.0,0.0,2.4284,2.4755,2.3688,2.2912,0.0,0.0,0.0,0.0,0.0,0.0,0.0,0.0,0.0,0.0,0.0,0.0,0.0,0.0,0.0,0.0,0.0,0.0,0.0,0.0,0.0,0.0,0.0,0.0,0.0,0.0,0.0,0.0,0.0,0.0,0.0,0.0,0.0,0.0,0.0,0.0,0.0,0.0,0.0,0.0,0.0,0.0,0.0,0.0,0.0,0.0,0.0,0.0,0.0,0.0,0.0,0.0,0.0,0.0,0.0,0.0,0.0,0.0,0.0,0.0,0.0,0.0,0.0,0.0,0.0,0.0,0.0,0.0,0.0,0.0,0.0,0.0,0.0,0.0,0.0,0.0,0.0,0.0,0.0,0.0,0.0,0.0,0.0,0.0,0.0,0.0,0.0,0.0,0.0,0.0,0.0,0.0,0.0,0.0,0.0,0.0,0.0,0.0,0.0,0.0,0.0,0.0,0.0,0.0,0.0,0.0,0.0,0.0,0.0,0.0,2.3896,2.4741,2.5144,2.3852,2.3117,2.3152,0.0,0.0,0.0,0.0,0.0,0.0,0.0,0.0,0.0,0.0,0.0,0.0,0.0,0.0,0.0,0.0,0.0,0.0,0.0,0.0,0.0,0.0,0.0,0.0,0.0,0.0,0.0,0.0,0.0,0.0,0.0,0.0,0.0,0.0,0.0,0.0,0.0,0.0,0.0,0.0,0.0,0.0,0.0,0.0,0.0,0.0,0.0,0.0,0.0,0.0,0.0,0.0,0.0,0.0,0.0,0.0,0.0,0.0,0.0,0.0,0.0,0.0,0.0,0.0,0.0,0.0,0.0,0.0,0.0,0.0,0.0,0.0,0.0,0.0,0.0,0.0,0.0,0.0,0.0,0.0,0.0,0.0,0.0,0.0,0.0,0.0,0.0,0.0,0.0,0.0,0.0,0.0,0.0,0.0,0.0,0.0,0.0,0.0,0.0,0.0,0.0,0.0,0.0,0.0,0.0,0.0,0.0,0.0,2.3149,2.3882,2.4681,2.5519,2.4175,2.3447,0.0,0.0,0.0,0.0,0.0,0.0,0.0,0.0,0.0,0.0,0.0,0.0,0.0,0.0,0.0,0.0,0.0,0.0,0.0,0.0,0.0,0.0,0.0,0.0,0.0,0.0,0.0,0.0,0.0,0.0,0.0,0.0,0.0,0.0,0.0,0.0,0.0,0.0,0.0,0.0,0.0,0.0,0.0,0.0,0.0,0.0,0.0,0.0,0.0,0.0,0.0,0.0,0.0,0.0,0.0,0.0,0.0,0.0,0.0,0.0,0.0,0.0,0.0,0.0,0.0,0.0,0.0,0.0,0.0,0.0,0.0,0.0,0.0,0.0,0.0,0.0,0.0,0.0,0.0,0.0,0.0,0.0,0.0,0.0,0.0,0.0,0.0,0.0,0.0,0.0,0.0,0.0,0.0,0.0,0.0,0.0,0.0,0.0,0.0,0.0,0.0,0.0,0.0,0.0,0.0,0.0,0.0,0.0,0.0,2.3392,2.4668,2.5493,2.574,2.4437,2.3702,0.0,0.0,0.0,0.0,0.0,0.0,0.0,0.0,0.0,0.0,0.0,0.0,0.0,0.0,0.0,0.0,0.0,0.0,0.0,0.0,0.0,0.0,0.0,0.0,0.0,0.0,0.0,0.0,0.0,0.0,0.0,0.0,0.0,0.0,0.0,0.0,0.0,0.0,0.0,0.0,0.0,0.0,0.0,0.0,0.0,0.0,0.0,0.0,0.0,0.0,0.0,0.0,0.0,0.0,0.0,0.0,0.0,0.0,0.0,0.0,0.0,0.0,0.0,0.0,0.0,0.0,0.0,0.0,0.0,0.0,0.0,0.0,0.0,0.0,0.0,0.0,0.0,0.0,0.0,0.0,0.0,0.0,0.0,0.0,0.0,0.0,0.0,0.0,0.0,0.0,0.0,0.0,0.0,0.0,0.0,0.0,0.0,0.0,0.0,0.0,0.0,0.0,0.0,0.0,0.0,0.0,0.0,0.0,0.0,2.3582,0.0,2.5814,2.5957,2.4891,2.4132,0.0,0.0,0.0,0.0,0.0,0.0,0.0,0.0,0.0,0.0,0.0,0.0,0.0,0.0,0.0,0.0,0.0,0.0,0.0,0.0,0.0,0.0,0.0,0.0,0.0,0.0,0.0,0.0,0.0,0.0,0.0,0.0,0.0,0.0,0.0,0.0,0.0,0.0,0.0,0.0,0.0,0.0,0.0,0.0,0.0,0.0,0.0,0.0,0.0,0.0,0.0,0.0,0.0,0.0,0.0,0.0,0.0,0.0,0.0,0.0,0.0,0.0,0.0,0.0,0.0,0.0,0.0,0.0,0.0,0.0,0.0,0.0,0.0,0.0,0.0,0.0,0.0,0.0,0.0,0.0,0.0,0.0,0.0,0.0,0.0,0.0,0.0,0.0,0.0,0.0,0.0,0.0,0.0,0.0,0.0,0.0,0.0,0.0,0.0,0.0,0.0,0.0,0.0,0.0,0.0,0.0,0.0,0.0,2.2118,2.3785,2.4727,2.5556,2.6169,2.549,2.4779,0.0,0.0,0.0,0.0,0.0,0.0,0.0,0.0,0.0,0.0,0.0,0.0,0.0,0.0,0.0,0.0,0.0,0.0,0.0,0.0,0.0,0.0,0.0,0.0,0.0,0.0,0.0,0.0,0.0,0.0,0.0,0.0,0.0,0.0,0.0,0.0,0.0,0.0,0.0,0.0,0.0,0.0,0.0,0.0,0.0,0.0,0.0,0.0,0.0,0.0,0.0,0.0,0.0,0.0,0.0,0.0,0.0,0.0,0.0,0.0,0.0,0.0,0.0,0.0,0.0,0.0,0.0,0.0,0.0,0.0,0.0,0.0,0.0,0.0,0.0,0.0,0.0,0.0,0.0,0.0,0.0,0.0,0.0,0.0,0.0,0.0,0.0,0.0,0.0,0.0,0.0,0.0,0.0,0.0,0.0,0.0,0.0,0.0,0.0,0.0,0.0,0.0,0.0,0.0,0.0,0.0,0.0,0.0,0.0,2.5227,2.613,2.6735,2.6934,2.6236,2.5524,0.0,0.0,0.0,0.0,0.0,0.0,0.0,0.0,0.0,0.0,0.0,0.0,0.0,0.0,0.0,0.0,0.0,0.0,0.0,0.0,0.0,0.0,0.0,0.0,0.0,0.0,0.0,0.0,0.0,0.0,0.0,0.0,0.0,0.0,0.0,0.0,0.0,0.0,0.0,0.0,0.0,0.0,0.0,0.0,0.0,0.0,0.0,0.0,0.0,0.0,0.0,0.0,0.0,0.0,0.0,0.0,0.0,0.0,0.0,0.0,0.0,0.0,0.0,0.0,0.0,0.0,0.0,0.0,0.0,0.0,0.0,0.0,0.0,0.0,0.0,0.0,0.0,0.0,0.0,0.0,0.0,0.0,0.0,0.0,0.0,0.0,0.0,0.0,0.0,0.0,0.0,0.0,0.0,0.0,0.0,0.0,0.0,0.0,0.0,0.0,0.0,0.0,0.0,0.0,0.0,0.0,0.0,0.0,0.0,2.6709,2.7108,2.7431,2.7696,2.7,2.627,2.5507,0.0,0.0,0.0,0.0,0.0,0.0,0.0,0.0,0.0,0.0,0.0,0.0,0.0,0.0,0.0,0.0,0.0,0.0,0.0,0.0,0.0,0.0,0.0,0.0,0.0,0.0,0.0,0.0,0.0,0.0,0.0,0.0,0.0,0.0,0.0,0.0,0.0,0.0,0.0,0.0,0.0,0.0,0.0,0.0,0.0,0.0,0.0,0.0,0.0,0.0,0.0,0.0,0.0,0.0,0.0,0.0,0.0,0.0,0.0,0.0,0.0,0.0,0.0,0.0,0.0,0.0,0.0,0.0,0.0,0.0,0.0,0.0,0.0,0.0,0.0,0.0,0.0,0.0,0.0,0.0,0.0,0.0,0.0,0.0,0.0,0.0,0.0,0.0,0.0,0.0,0.0,0.0,0.0,0.0,0.0,0.0,0.0,0.0,0.0,0.0,0.0,0.0,0.0,0.0,0.0,0.0,0.0,0.0,2.8256,2.7758,2.7812,2.8426,2.7729,2.7017,0.0,0.0,0.0,0.0,0.0,0.0,0.0,0.0,0.0,0.0,0.0,0.0,0.0,0.0,0.0,0.0,0.0,0.0,0.0,0.0,0.0,0.0,0.0,0.0,0.0,0.0,0.0,0.0,0.0,0.0,0.0,0.0,0.0,0.0,0.0,0.0,0.0,0.0,0.0,0.0,0.0,0.0,0.0,0.0,0.0,0.0,0.0,0.0,0.0,0.0,0.0,0.0,0.0,0.0,0.0,0.0,0.0,0.0,0.0,0.0,0.0,0.0,0.0,0.0,0.0,0.0,0.0,0.0,0.0,0.0,0.0,0.0,0.0,0.0,0.0,0.0,0.0,0.0,0.0,0.0,0.0,0.0,0.0,0.0,0.0,0.0,0.0,0.0,0.0,0.0,0.0,0.0,0.0,0.0,0.0,0.0,0.0,0.0,0.0,0.0,0.0,0.0,0.0,0.0,0.0,0.0,0.0,0.0,0.0,2.8979,2.9443,2.9499,2.9152,2.8475,2.7763,0.0,0.0,0.0,0.0,0.0,0.0,0.0,0.0,0.0,0.0,0.0,0.0,0.0,0.0,0.0,0.0,0.0,0.0,0.0,0.0,0.0,0.0,0.0,0.0,0.0,0.0,0.0,0.0,0.0,0.0,0.0,0.0,0.0,0.0,0.0,0.0,0.0,0.0,0.0,0.0,0.0,0.0,0.0,0.0,0.0,0.0,0.0,0.0,0.0,0.0,0.0,0.0,0.0,0.0,0.0,0.0,0.0,0.0,0.0,0.0,0.0,0.0,0.0,0.0,0.0,0.0,0.0,0.0,0.0,0.0,0.0,0.0,0.0,0.0,0.0,0.0,0.0,0.0,0.0,0.0,0.0,0.0,0.0,0.0,0.0,0.0,0.0,0.0,0.0,0.0,0.0,0.0,0.0,0.0,0.0,0.0,0.0,0.0,0.0,0.0,0.0,0.0,0.0,0.0,0.0,0.0,0.0,0.0,2.857,2.932,3.0104,3.029,2.986,2.9201,2.8508,0.0,0.0,0.0,0.0,0.0,0.0,0.0,0.0,0.0,0.0,0.0,0.0,0.0,0.0,0.0,0.0,0.0,0.0,0.0,0.0,0.0,0.0,0.0,0.0,0.0,0.0,0.0,0.0,0.0,0.0,0.0,0.0,0.0,0.0,0.0,0.0,0.0,0.0,0.0,0.0,0.0,0.0,0.0,0.0,0.0,0.0,0.0,0.0,0.0,0.0,0.0,0.0,0.0,0.0,0.0,0.0,0.0,0.0,0.0,0.0,0.0,0.0,0.0,0.0,0.0,0.0,0.0,0.0,0.0,0.0,0.0,0.0,0.0,0.0,0.0,0.0,0.0,0.0,0.0,0.0,0.0,0.0,0.0,0.0,0.0,0.0,0.0,0.0,0.0,0.0,0.0,0.0,0.0,0.0,0.0,0.0,0.0,0.0,0.0,0.0,0.0,0.0,0.0,0.0,0.0,0.0,0.0,0.0,2.8642,2.9496,3.0141,3.0489,3.0472,2.9777,2.9085,0.0,0.0,0.0,0.0,0.0,0.0,0.0,0.0,0.0,0.0,0.0,0.0,0.0,0.0,0.0,0.0,0.0,0.0,0.0,0.0,0.0,0.0,0.0,0.0,0.0,0.0,0.0,0.0,0.0,0.0,0.0,0.0,0.0,0.0,0.0,0.0,0.0,0.0,0.0,0.0,0.0,0.0,0.0,0.0,0.0,0.0,0.0,0.0,0.0,0.0,0.0,0.0,0.0,0.0,0.0,0.0,0.0,0.0,0.0,0.0,0.0,0.0,0.0,0.0,0.0,0.0,0.0,0.0,0.0,0.0,0.0,0.0,0.0,0.0,0.0,0.0,0.0,0.0,0.0,0.0,0.0,0.0,0.0,0.0,0.0,0.0,0.0,0.0,0.0,0.0,0.0,0.0,0.0,0.0,0.0,0.0,0.0,0.0,0.0,0.0,0.0,0.0,0.0,0.0,0.0,0.0,0.0,0.0,2.8986,3.0224,3.0423,3.0489,3.0489,2.9777,2.9085,0.0,0.0,0.0,0.0,0.0,0.0,0.0,0.0,0.0,0.0,0.0,0.0,0.0,0.0,0.0,0.0,0.0,0.0,0.0,0.0,0.0,0.0,0.0,0.0,0.0,0.0,0.0,0.0,0.0,0.0,0.0,0.0,0.0,0.0,0.0,0.0,0.0,0.0,0.0,0.0,0.0,0.0,0.0,0.0,0.0,0.0,0.0,0.0,2.5812,0.0,0.0,0.0,0.0,0.0,0.0,0.0,0.0,0.0,0.0,0.0,0.0,0.0,0.0,0.0,0.0,0.0,0.0,0.0,0.0,0.0,0.0,0.0,0.0,0.0,0.0,0.0,0.0,0.0,0.0,0.0,0.0,0.0,0.0,0.0,0.0,0.0,0.0,0.0,0.0,0.0,0.0,0.0,0.0,0.0,0.0,0.0,0.0,0.0,0.0,0.0,0.0,0.0,0.0,0.0,0.0,0.0,0.0,0.0,2.9417,3.0439,3.0489,3.0489,3.0472,3.0125,2.945,0.0,0.0,0.0,0.0,0.0,0.0,0.0,0.0,0.0,0.0,0.0,0.0,0.0,0.0,0.0,0.0,0.0,0.0,0.0,0.0,0.0,0.0,0.0,0.0,0.0,0.0,0.0,0.0,0.0,0.0,0.0,0.0,0.0,0.0,0.0,0.0,0.0,0.0,0.0,0.0,0.0,0.0,0.0,0.0,0.0,0.0,0.0,0.0,0.0,0.0,0.0,0.0,0.0,0.0,0.0,0.0,0.0,0.0,0.0,0.0,0.0,0.0,0.0,0.0,0.0,0.0,0.0,0.0,0.0,0.0,0.0,0.0,0.0,0.0,0.0,0.0,0.0,0.0,0.0,0.0,0.0,0.0,0.0,0.0,0.0,0.0,0.0,0.0,0.0,0.0,0.0,0.0,0.0,0.0,0.0,0.0,0.0,0.0,0.0,0.0,0.0,0.0,0.0,0.0,0.0,0.0,0.0,2.9052,2.9744,3.0456,3.0489,3.0489,3.0489,3.0489,2.9847,2.8459,0.0,0.0,0.0,0.0,0.0,0.0,0.0,0.0,0.0,0.0,0.0,0.0,0.0,0.0,0.0,0.0,0.0,0.0,0.0,0.0,0.0,0.0,0.0,0.0,0.0,0.0,0.0,0.0,0.0,0.0,0.0,0.0,0.0,0.0,0.0,0.0,0.0,0.0,2.3287,2.5127,0.0,0.0,0.0,0.0,0.0,0.0,0.0,0.0,2.6548,0.0,0.0,0.0,0.0,0.0,0.0,0.0,0.0,0.0,0.0,0.0,0.0,0.0,0.0,0.0,0.0,0.0,0.0,0.0,0.0,0.0,0.0,0.0,0.0,0.0,0.0,0.0,0.0,0.0,0.0,0.0,0.0,0.0,0.0,0.0,0.0,0.0,0.0,0.0,0.0,0.0,0.0,0.0,0.0,0.0,0.0,0.0,0.0,0.0,0.0,0.0,0.0,0.0,0.0,0.0,0.0,2.8392,2.9069,2.9761,3.0472,3.0489,3.0489,3.0489,3.0489,2.9847,2.8492,0.0,0.0,0.0,0.0,0.0,0.0,0.0,0.0,0.0,0.0,0.0,0.0,0.0,0.0,0.0,0.0,0.0,0.0,0.0,0.0,0.0,0.0,0.0,0.0,0.0,0.0,0.0,0.0,0.0,0.0,0.0,0.0,0.0,0.0,0.0,0.0,0.0,0.0,0.0,2.6519,2.7381,0.0,0.0,0.0,0.0,0.0,0.0,0.0,0.0,2.6974,0.0,0.0,0.0,0.0,0.0,0.0,0.0,0.0,0.0,0.0,0.0,0.0,0.0,0.0,0.0,0.0,0.0,0.0,0.0,0.0,0.0,0.0,0.0,0.0,0.0,0.0,0.0,0.0,0.0,0.0,0.0,0.0,0.0,0.0,0.0,0.0,0.0,0.0,0.0,0.0,0.0,0.0,0.0,0.0,0.0,0.0,0.0,0.0,0.0,0.0,0.0,0.0,0.0,0.0,0.0,2.8331,2.9397,3.0125,3.0472,3.0489,3.0489,3.0489,3.0489,2.9847,0.0,0.0,0.0,0.0,0.0,0.0,0.0,0.0,0.0,0.0,0.0,0.0,0.0,0.0,0.0,0.0,0.0,0.0,0.0,0.0,0.0,0.0,0.0,0.0,0.0,0.0,0.0,0.0,0.0,0.0,0.0,0.0,0.0,0.0,0.0,0.0,0.0,0.0,0.0,0.0,2.7415,2.8127,2.8804,0.0,0.0,0.0,0.0,0.0,0.0,2.7862,2.7765,0.0,0.0,0.0,0.0,0.0,0.0,0.0,0.0,0.0,0.0,0.0,0.0,0.0,0.0,0.0,0.0,0.0,0.0,0.0,0.0,0.0,0.0,0.0,0.0,0.0,0.0,0.0,0.0,0.0,0.0,0.0,0.0,0.0,0.0,0.0,0.0,0.0,0.0,0.0,0.0,0.0,0.0,0.0,0.0,0.0,0.0,0.0,0.0,0.0,0.0,0.0,0.0,0.0,0.0,0.0,2.8273,2.97,3.0485,3.0489,3.0489,3.0489,3.0489,3.0489,2.9847,0.0,0.0,0.0,0.0,0.0,0.0,0.0,0.0,0.0,0.0,0.0,0.0,0.0,0.0,0.0,0.0,0.0,0.0,0.0,0.0,0.0,0.0,0.0,0.0,0.0,0.0,0.0,0.0,0.0,0.0,0.0,0.0,0.0,0.0,0.0,0.0,0.0,0.0,0.0,0.0,0.0,2.8688,2.9496,2.9632,0.0,0.0,0.0,0.0,2.8857,2.8804,0.0,0.0,0.0,0.0,0.0,0.0,0.0,0.0,0.0,0.0,0.0,0.0,0.0,0.0,0.0,0.0,0.0,0.0,0.0,0.0,0.0,0.0,0.0,0.0,0.0,0.0,0.0,0.0,0.0,0.0,0.0,0.0,0.0,0.0,0.0,0.0,0.0,0.0,0.0,0.0,0.0,0.0,0.0,0.0,0.0,0.0,0.0,0.0,0.0,0.0,0.0,0.0,0.0,0.0,0.0,0.0,2.8237,2.9659,3.0422,3.0489,3.0489,3.0489,3.0489,3.0489,2.9847,0.0,0.0,0.0,0.0,0.0,0.0,0.0,0.0,0.0,0.0,0.0,0.0,0.0,0.0,0.0,0.0,0.0,0.0,0.0,0.0,0.0,0.0,0.0,0.0,0.0,0.0,0.0,0.0,0.0,0.0,0.0,0.0,0.0,0.0,0.0,0.0,0.0,0.0,0.0,0.0,0.0,2.889,3.0191,3.0373,3.034,0.0,0.0,3.1002,3.034,3.0241,0.0,0.0,0.0,0.0,0.0,0.0,0.0,0.0,0.0,0.0,0.0,0.0,0.0,0.0,0.0,0.0,0.0,0.0,0.0,0.0,0.0,0.0,0.0,0.0,0.0,0.0,0.0,0.0,0.0,0.0,0.0,0.0,0.0,0.0,0.0,0.0,0.0,0.0,0.0,0.0,0.0,0.0,0.0,0.0,0.0,0.0,0.0,0.0,0.0,0.0,0.0,0.0,0.0,0.0,0.0,2.7749,2.7976,2.9556,3.0417,3.0443,3.0485,3.0489,3.0489,3.0489,2.9864,0.0,0.0,0.0,0.0,0.0,0.0,0.0,0.0,0.0,0.0,0.0,0.0,0.0,0.0,0.0,0.0,0.0,0.0,0.0,0.0,0.0,0.0,0.0,0.0,0.0,0.0,0.0,0.0,0.0,0.0,0.0,0.0,0.0,0.0,0.0,0.0,0.0,0.0,0.0,0.0,0.0,0.0,3.0986,3.1487,0.0,0.0,0.0,3.2116,3.1785,0.0,0.0,0.0,0.0,0.0,0.0,0.0,0.0,0.0,0.0,0.0,0.0,0.0,0.0,0.0,0.0,0.0,0.0,0.0,0.0,0.0,0.0,0.0,0.0,0.0,0.0,0.0,0.0,0.0,0.0,0.0,0.0,0.0,0.0,0.0,0.0,0.0,0.0,0.0,0.0,0.0,0.0,0.0,0.0,0.0,0.0,0.0,0.0,0.0,0.0,0.0,0.0,0.0,0.0,0.0,0.0,0.0,2.7712,2.9368,3.0295,3.0396,3.0443,3.0485,3.0489,3.0489,0.0,0.0,0.0,0.0,0.0,0.0,0.0,0.0,0.0,0.0,0.0,0.0,0.0,0.0,0.0,0.0,0.0,0.0,0.0,0.0,0.0,0.0,0.0,0.0,0.0,0.0,0.0,2.1864,0.0,0.0,0.0,0.0,0.0,0.0,0.0,0.0,0.0,0.0,0.0,0.0,0.0,0.0,3.0837,3.1747,3.2348,3.2685,0.0,0.0,3.3176,3.3017,3.3149,3.2928,0.0,0.0,0.0,0.0,0.0,0.0,0.0,0.0,0.0,0.0,0.0,0.0,0.0,0.0,0.0,0.0,0.0,0.0,0.0,0.0,0.0,0.0,0.0,0.0,0.0,0.0,0.0,0.0,0.0,0.0,0.0,0.0,0.0,0.0,0.0,0.0,0.0,0.0,0.0,0.0,0.0,0.0,0.0,0.0,0.0,0.0,0.0,0.0,0.0,0.0,0.0,0.0,0.0,0.0,0.0,2.7646,2.9076,3.0044,3.038,3.0401,3.0422,3.0489,3.0489,2.9827,0.0,0.0,0.0,0.0,0.0,0.0,0.0,0.0,0.0,0.0,0.0,0.0,0.0,0.0,0.0,0.0,0.0,0.0,0.0,0.0,0.0,0.0,0.0,0.0,0.0,0.0,0.0,0.0,0.0,0.0,0.0,0.0,0.0,0.0,0.0,0.0,0.0,0.0,0.0,0.0,0.0,3.1023,3.2437,3.2669,3.2702,0.0,0.0,3.4518,3.3822,3.4303,3.4253,3.2845,0.0,0.0,0.0,0.0,0.0,0.0,0.0,0.0,0.0,0.0,0.0,0.0,0.0,0.0,0.0,0.0,0.0,0.0,0.0,0.0,0.0,0.0,0.0,0.0,0.0,0.0,0.0,0.0,0.0,0.0,0.0,0.0,0.0,0.0,0.0,0.0,0.0,0.0,0.0,0.0,0.0,0.0,0.0,0.0,0.0,0.0,0.0,0.0,0.0,0.0,0.0,0.0,0.0,2.6987,2.7317,2.8914,3.0053,3.069,3.086,3.0969,3.0991,3.1034,3.0401,0.0,0.0,0.0,0.0,0.0,0.0,0.0,0.0,0.0,0.0,0.0,0.0,0.0,0.0,0.0,0.0,0.0,0.0,0.0,0.0,0.0,0.0,0.0,0.0,0.0,0.0,0.0,0.0,2.3321,2.3752,2.4199,0.0,0.0,0.0,0.0,0.0,0.0,0.0,0.0,0.0,0.0,3.3425,3.3972,3.4833,0.0,0.0,3.5214,3.533,3.4568,3.47,3.4551,3.3541,3.3143,0.0,0.0,0.0,0.0,0.0,0.0,0.0,0.0,0.0,0.0,0.0,0.0,0.0,0.0,0.0,0.0,0.0,0.0,0.0,0.0,0.0,0.0,0.0,0.0,0.0,0.0,0.0,0.0,0.0,0.0,0.0,0.0,0.0,0.0,0.0,0.0,0.0,0.0,0.0,0.0,0.0,0.0,0.0,0.0,0.0,0.0,0.0,0.0,0.0,0.0,0.0,0.0,2.6776,2.7221,2.8901,3.0108,3.0774,3.1206,3.1348,3.1258,3.1286,3.068,0.0,0.0,0.0,0.0,0.0,0.0,0.0,0.0,0.0,0.0,0.0,0.0,0.0,0.0,0.0,0.0,0.0,0.0,0.0,0.0,0.0,0.0,0.0,0.0,0.0,0.0,0.0,0.0,2.4017,2.463,2.5341,0.0,0.0,0.0,0.0,0.0,0.0,0.0,0.0,0.0,0.0,3.4982,3.5197,3.6307,3.6854,3.6108,3.6191,3.5992,3.5048,3.5081,3.4916,3.3955,0.0,0.0,0.0,0.0,0.0,0.0,0.0,0.0,0.0,0.0,0.0,0.0,0.0,0.0,0.0,0.0,0.0,0.0,0.0,0.0,0.0,0.0,0.0,0.0,0.0,0.0,0.0,0.0,0.0,0.0,2.164,0.0,0.0,0.0,0.0,0.0,0.0,0.0,0.0,0.0,0.0,0.0,0.0,0.0,0.0,0.0,0.0,0.0,0.0,0.0,0.0,0.0,0.0,2.6611,2.7473,2.91,3.0164,3.0511,3.1293,3.1506,3.115,3.1108,3.0549,2.935,0.0,0.0,0.0,0.0,0.0,0.0,0.0,0.0,0.0,0.0,0.0,0.0,0.0,0.0,0.0,0.0,0.0,0.0,0.0,0.0,0.0,0.0,0.0,0.0,0.0,0.0,2.4961,2.506,2.5341,0.0,0.0,0.0,0.0,0.0,0.0,0.0,0.0,0.0,0.0,3.3978,3.5181,3.5893,3.6638,3.6903,3.6158,3.6638,3.6589,3.5164,3.5528,3.5479,0.0,0.0,0.0,0.0,0.0,0.0,0.0,0.0,0.0,0.0,0.0,0.0,0.0,0.0,0.0,0.0,0.0,0.0,0.0,0.0,0.0,0.0,0.0,0.0,0.0,0.0,0.0,2.281,2.2414,0.0,0.0,0.0,0.0,0.0,0.0,0.0,0.0,0.0,0.0,0.0,2.6258,2.6321,0.0,0.0,0.0,0.0,0.0,0.0,0.0,0.0,0.0,0.0,0.0,0.0,2.6165,2.7184,2.8649,2.9816,3.0696,3.1482,3.1935,3.1958,3.1661,3.0807,2.9346,0.0,0.0,0.0,0.0,0.0,0.0,0.0,0.0,0.0,0.0,0.0,0.0,0.0,0.0,0.0,0.0,0.0,0.0,0.0,0.0,0.0,0.0,0.0,0.0,0.0,2.5044,0.0,0.0,0.0,0.0,0.0,0.0,0.0,0.0,0.0,0.0,0.0,3.2284,3.3698,3.5235,3.6496,3.7239,3.8044,3.8321,0.0,0.0,0.0,0.0,0.0,0.0,0.0,0.0,0.0,0.0,0.0,0.0,0.0,0.0,3.5893,3.4499,3.4233,3.424,3.427,0.0,0.0,0.0,0.0,0.0,0.0,0.0,0.0,0.0,0.0,0.0,0.0,0.0,0.0,2.4073,0.0,2.3699,0.0,0.0,0.0,0.0,0.0,0.0,0.0,0.0,2.6737,2.7195,2.7645,2.766,2.766,0.0,2.6673,2.6045,0.0,0.0,0.0,0.0,0.0,0.0,0.0,0.0,2.6271,2.744,2.8657,2.9759,3.0746,3.1621,3.2065,3.209,3.1613,3.0655,2.921,2.926,2.857,0.0,0.0,0.0,0.0,0.0,0.0,0.0,0.0,0.0,0.0,0.0,0.0,0.0,0.0,0.0,0.0,0.0,0.0,0.0,0.0,0.0,0.0,0.0,2.5621,0.0,0.0,0.0,0.0,0.0,0.0,0.0,0.0,0.0,3.0189,3.1702,3.317,3.4333,3.5834,3.7068,3.7791,0.0,0.0,0.0,0.0,0.0,0.0,0.0,3.7119,3.7119,3.7292,3.7582,3.7831,3.8079,3.8411,3.8874,0.0,0.0,3.6456,3.6042,3.5976,3.5711,3.5661,3.5661,3.5661,3.5678,3.5661,0.0,0.0,0.0,0.0,0.0,0.0,0.0,0.0,2.5764,2.5749,0.0,2.5704,0.0,0.0,0.0,0.0,0.0,2.5674,0.0,0.0,2.7675,2.8364,2.9532,2.9535,2.9592,2.949,2.8133,2.7446,2.7342,2.5545,0.0,0.0,0.0,0.0,0.0,0.0,2.6908,2.8236,2.9137,2.9961,3.0659,3.1658,3.1965,3.1511,3.098,3.0193,2.9062,2.9206,2.9028,2.8439,2.7098,0.0,0.0,0.0,0.0,0.0,0.0,0.0,0.0,0.0,0.0,0.0,0.0,0.0,0.0,0.0,0.0,0.0,0.0,0.0,0.0,2.5683,0.0,0.0,0.0,0.0,0.0,0.0,0.0,0.0,0.0,0.0,3.0364,3.2142,3.3703,3.4472,0.0,0.0,0.0,0.0,3.8559,3.7904,3.7929,3.7837,3.7195,3.7182,3.7275,3.7275,0.0,0.0,3.9222,3.9934,4.0382,4.0431,4.0917,4.0768,3.8715,3.8292,3.807,3.7424,3.7299,3.7242,3.7242,3.7333,3.7299,2.8364,0.0,0.0,0.0,0.0,2.7739,2.8008,2.8468,2.8442,2.8173,2.7739,2.7739,0.0,0.0,0.0,0.0,0.0,0.0,2.7764,2.9007,2.9037,2.9232,2.9606,2.9621,2.9525,2.9387,2.8961,2.8648,2.8429,2.743,2.6304,2.5082,0.0,0.0,0.0,0.0,2.708,2.8018,2.9202,3.0021,3.041,3.1137,3.1492,3.1355,3.1064,3.0704,3.0193,2.9837,2.9412,2.8911,2.8596,0.0,0.0,0.0,0.0,0.0,0.0,0.0,0.0,0.0,0.0,0.0,0.0,0.0,0.0,0.0,0.0,0.0,0.0,0.0,2.6299,2.6524,2.6869,0.0,0.0,0.0,0.0,0.0,0.0,0.0,0.0,0.0,3.2519,3.3231,3.4205,0.0,0.0,3.7514,3.8248,3.8591,3.8903,3.9214,3.9308,0.0,0.0,3.9844,3.9872,3.9888,4.0053,4.0266,4.0491,4.0688,4.0968,4.1444,4.1674,4.1608,4.1066,4.0593,4.0242,3.9933,3.9872,3.9872,3.9872,3.9872,3.9839,3.0911,3.0417,2.9007,2.8633,2.8981,2.8996,2.9232,2.9621,2.9621,2.9355,2.8996,2.8996,2.8532,2.7769,2.7769,0.0,0.0,0.0,2.8963,2.9981,2.9939,3.0116,3.0342,3.0287,3.0203,3.0076,2.9712,2.9454,2.9285,2.8572,2.7654,2.6491,0.0,0.0,2.6951,2.7358,2.7893,2.8575,2.9375,2.9973,3.0411,3.0924,3.1152,3.1061,3.1087,3.0911,3.0496,3.0218,2.9885,2.9482,2.9251,2.8464,0.0,0.0,0.0,0.0,0.0,0.0,0.0,0.0,0.0,0.0,0.0,2.3984,0.0,0.0,0.0,0.0,2.554,2.6034,2.7118,2.7176,0.0,0.0,0.0,0.0,0.0,0.0,0.0,3.108,3.2196,3.3184,3.3857,3.4374,3.5111,3.6286,3.6961,3.7746,3.8796,0.0,3.934,4.0058,4.0185,4.0361,4.0802,4.0929,4.1085,4.1347,4.1396,4.1527,4.1789,4.1822,4.1969,4.2327,4.2441,4.2427,4.2367,4.2084,4.1668,4.1118,4.1003,4.1003,4.1003,4.1003,4.1003,3.3484,3.3259,3.0896,2.9909,2.9921,2.9921,2.9921,2.9894,2.9936,2.9921,2.9921,2.9879,2.9861,2.9756,2.9651,0.0,2.9681,2.9681,2.9983,3.0582,3.0582,3.0883,3.1452,3.1336,3.1278,3.1248,3.0367,2.9987,2.9914,2.9202,2.8854,2.884,2.8245,2.8202,2.8652,2.8738,2.9044,2.9595,2.9639,2.9987,3.0583,3.0851,3.0894,3.0739,3.1089,3.0928,3.0232,3.0339,3.0314,3.0005,2.9329,2.8739,2.8237,0.0,0.0,0.0,0.0,0.0,0.0,0.0,0.0,0.0,0.0,0.0,0.0,0.0,0.0,0.0,2.6583,0.0,2.7748,2.7724,0.0,0.0,0.0,2.9572,2.9984,3.0592,3.1379,3.2372,0.0,0.0,3.444,3.5374,3.6223,3.7066,3.7207,3.779,3.9334,3.9528,3.9771,4.045,4.0667,4.0759,4.0908,4.1059,4.1314,4.185,4.1991,4.2206,4.2745,4.2892,4.2988,4.2941,4.3005,4.2943,4.2821,4.2725,4.2462,4.1344,4.1145,4.1158,4.1207,4.1223,4.121,3.3423,3.324,3.2585,3.2422,3.2572,3.2557,3.2572,3.2557,3.2572,3.2572,3.2572,3.2557,3.2018,3.0987,3.0028,2.9861,3.0283,3.0283,3.0614,3.1227,3.1256,3.1289,3.1336,3.1307,3.1176,3.0925,3.0675,3.0543,3.0439,3.0234,3.0162,3.0133,2.9972,2.9508,2.8752,2.9145,2.9436,2.9595,3.0103,3.0452,3.0598,3.0762,3.0881,3.0924,3.0861,3.0867,3.0852,3.0233,2.995,3.0077,2.972,2.927,2.8688,2.7951,0.0,0.0,0.0,0.0,0.0,0.0,0.0,0.0,0.0,2.5397,2.6585,0.0,2.6682,0.0,2.7711,2.8185,2.8719,2.9121,0.0,0.0,3.0248,3.0396,3.0906,3.1386,3.1911,3.2575,3.3546,3.4334,3.4775,3.5585,3.6554,3.7619,3.809,3.8693,3.9722,3.9881,4.0137,4.0809,4.0986,4.1178,4.1611,4.1803,4.1867,4.2044,4.2076,4.214,4.2333,4.2333,4.2333,4.2333,4.2317,4.2333,4.2318,4.2318,4.2205,4.1915,4.2039,4.2241,4.2225,4.2178,4.2208,3.4036,3.3972,3.3972,3.4004,3.4101,3.3537,3.3284,3.3284,3.3284,3.3284,3.3284,3.3284,3.2882,3.2139,3.1426,3.1292,3.1589,3.1604,3.1812,3.2154,3.2154,3.2139,3.2048,3.1973,3.1822,3.1639,3.1286,3.1094,3.0988,3.0713,3.0612,3.0612,3.0612,3.0249,2.9595,2.9871,3.0045,3.006,3.0423,3.0612,3.0612,3.0672,3.0791,3.0911,3.0863,3.0806,3.0815,3.0158,2.9799,2.981,2.9477,2.907,2.8651,2.8338,2.7709,0.0,0.0,0.0,0.0,0.0,0.0,0.0,0.0,0.0,0.0,0.0,2.7235,2.8114,2.8553,2.8999,2.9574,2.9847,3.0217,3.084,3.0722,3.0891,3.1611,3.1877,3.2347,3.3169,3.3929,3.4608,3.5115,3.5572,3.6434,3.7881,3.8324,3.8921,3.9992,4.0197,4.0483,4.1215,4.1326,4.1438,4.1835,4.1883,4.1883,4.1883,4.1883,4.1883,4.1883,4.1948,4.1996,4.1916,4.1931,4.1964,4.1883,4.1883,4.1883,4.1883,4.2013,4.219,4.2349,4.2381,4.2365,3.4868,3.4868,3.4835,3.4802,3.4699,3.3598,3.316,3.3254,3.3254,3.3254,3.324,3.3166,3.3122,3.309,3.3002,3.2972,3.2972,3.2941,3.2972,3.2989,3.2989,3.2972,3.2941,3.2737,3.2643,3.2596,3.1903,3.1548,3.1534,3.0942,3.0668,3.0668,3.0611,3.0568,3.0612,3.0612,3.0612,3.0612,3.0612,3.0612,3.0612,3.0612,3.0672,3.0762,3.0896,3.0836,3.0546,3.015,2.9818,2.9535,2.9053,2.8638,2.8424,2.8357,2.8072,0.0,2.7443,0.0,0.0,0.0,0.0,0.0,0.0,0.0,0.0,2.7602,2.7938,2.8792,2.9302,2.9776,3.0287,3.0266,3.0421,3.09,3.0912,3.1212,3.2035,3.227,3.2787,3.3812,3.4018,3.4428,3.5222,3.5466,3.622,3.7707,3.8141,3.8714,4.0011,4.0413,4.0698,4.1393,4.1456,4.136,4.1407,4.1472,4.1489,4.1489,4.1522,4.1538,4.1538,4.1686,4.1735,4.1604,4.1653,4.1719,4.1571,4.1522,4.1522,4.1538,4.1571,4.1654,4.1948,4.2029,4.2045,3.4835,3.4731,3.4549,3.4399,3.4201,3.3863,3.4051,3.4533,3.4533,3.4533,3.4489,3.4006,3.3721,3.3533,3.3003,3.2754,3.2769,3.2769,3.2847,3.2989,3.2989,3.291,3.2737,3.2594,3.2449,3.2306,3.1983,3.1829,3.18,3.1232,3.1025,3.1149,3.0616,3.0447,3.0598,0.0,0.0,0.0,3.0612,3.0612,3.0612,3.0612,3.0612,3.0628,3.0762,0.0,3.0734,3.0419,3.0056,2.9679,2.9266,0.0,0.0,0.0,0.0,0.0,0.0,0.0,0.0,0.0,0.0,0.0,2.8975,2.9006,2.876,2.9308,2.9679,2.9698,3.0164,3.0452,3.0463,3.0821,3.1095,3.1229,3.1545,3.1796,3.1909,3.2788,3.3487,3.3576,3.4153,3.4618,3.485,3.5392,3.62,3.7231,3.7814,3.8487,3.9456,4.009,4.0526,4.0681,4.0715,4.073,4.0715,4.0851,4.0969,4.0969,4.1086,4.1169,4.1169,4.1203,4.1252,4.1203,4.1221,4.1236,4.1187,4.1203,4.1169,4.1187,4.1169,4.1303,4.1621,4.1687,4.1687,3.4346,0.0,3.4176,3.4088,0.0,3.3931,3.402,3.4278,3.4366,3.4414,3.4385,3.4066,3.3902,3.3772,3.3454,3.331,3.331,3.3277,3.3357,3.3441,3.3456,3.339,3.3277,3.3211,3.3125,3.3011,3.2582,3.2406,3.2378,3.1746,3.1511,3.1575,3.1246,3.0993,3.0816,3.0576,3.0507,3.0612,3.0612,3.0612,3.0612,3.0612,3.0612,3.0612,0.0,0.0,0.0,0.0,0.0,0.0,0.0,0.0,0.0,0.0,0.0,2.8768,2.8486,2.835,2.8446,2.8812,2.9242,2.9641,2.9981,2.9986,2.9496,2.9962,3.0232,3.0111,3.0586,3.0888,3.0802,3.0954,3.1191,3.15,3.1673,3.1944,3.2584,3.3211,3.3704,3.3939,3.4278,3.4597,3.4698,3.5292,3.6075,3.6911,3.7582,3.8254,3.8962,3.958,3.9985,4.0106,4.0106,4.0141,4.0226,4.0331,4.0416,4.0401,4.0486,4.0555,4.057,4.0608,4.0643,4.0589,4.0608,4.0627,4.0555,4.0555,4.0555,4.0555,4.0555,4.0589,4.0799,4.112,4.1339,3.4155,3.412,3.4071,3.3979,3.3915,3.388,3.3669,3.3452,0.0,0.0,0.0,3.3779,3.3779,3.3744,3.373,3.3744,3.3744,3.3744,3.373,3.3779,3.3799,3.3813,3.3779,3.3779,3.3744,3.3716,3.3203,3.2933,3.2871,3.2274,3.1976,3.1994,3.1909,3.1614,3.1179,3.0692,3.0529,3.0712,3.0626,3.0612,3.0612,3.0612,3.0612,3.0612,3.0612,3.0612,3.0598,3.0177,2.9944,2.9955,2.9597,2.9451,2.9577,2.9604,2.9657,2.9753,2.978,2.9845,2.9936,3.0069,3.0255,3.0483,3.0649,3.0586,3.0165,3.0304,3.0405,3.0377,3.0763,3.1058,3.1146,3.1027,3.1185,3.1858,3.1895,3.2324,3.3314,3.362,3.3848,3.4312,3.4399,3.4506,3.482,3.5361,3.6029,3.6858,3.7518,3.8039,3.8598,3.9053,3.9364,3.9487,3.9523,3.961,3.9732,3.9818,3.9869,3.9905,3.9925,3.9975,3.9996,4.0071,4.0091,4.0081,4.0106,4.0141,4.0046,4.0046,4.0011,4.0011,4.0011,4.0011,4.0046,4.0501,4.0864,3.5068,3.4936,3.4738,3.4357,3.3882,3.3715,3.3309,3.286,3.3199,3.3388,3.3388,3.3388,3.3283,3.3129,3.3129,3.3129,3.3129,3.3129,3.3213,0.0,3.3388,3.3388,3.3388,3.3213,3.3129,3.3129,3.301,3.3003,3.2933,3.2553,3.2393,3.241,3.2009,3.1744,3.1699,3.1179,3.1005,3.1178,3.0797,3.0612,3.0612,3.0612,3.0612,3.0612,3.0612,3.0612,3.0598,3.051,3.0279,2.9841,2.9767,2.9588,2.9224,2.921,2.918,2.9208,2.9332,2.9387,2.9429,3.0058,3.064,3.108,3.1012,3.0997,3.1112,3.0881,3.0719,3.0719,3.0718,3.089,3.1355,3.1411,3.1687,3.2341,3.2893,3.3314,3.3532,3.3935,3.4283,3.4366,3.438,3.4632,3.5209,3.5805,3.643,3.7114,3.7725,3.8198,3.8331,3.8634,3.8855,3.8943,3.8943,3.8943,3.9053,3.9126,3.9301,3.946,3.9625,3.9732,3.9889,3.991,3.991,3.996,3.9945,3.9975,3.997,4.0011,4.0016,4.0026,4.0071,4.0061,4.0056,4.0183,4.0213,3.4854,3.478,3.4667,3.4426,3.4028,3.3728,3.3451,3.3193,3.3268,3.3179,3.2966,3.2988,3.2846,3.2668,3.2668,3.2596,3.2489,3.2525,3.2561,3.2668,3.2668,3.2704,3.2797,3.2739,3.2739,3.2846,3.2846,3.2846,3.2818,3.2653,3.2654,3.2771,3.2326,3.2131,3.2241,3.1673,3.1319,3.1148,3.0688,3.0507,3.0612,3.0612,3.0612,3.0612,3.0612,3.0612,3.0612,3.0612,3.0497,3.025,3.0236,3.0134,2.9929,2.9929,2.99,2.9929,2.9958,3.003,3.0116,3.0554,3.0894,3.1029,3.0925,3.0896,3.094,3.0777,3.0702,3.0717,3.0918,3.1206,3.1511,3.1845,3.2309,3.2977,3.3344,3.3634,3.3935,3.4211,3.438,3.438,3.438,3.4661,3.5319,3.5909,3.6548,3.7215,3.7825,3.8188,3.8202,3.8352,3.8501,3.8627,3.8664,3.8671,3.8797,3.887,3.898,3.9068,3.9126,3.9235,3.9358,3.9358,3.9358,3.9358,3.9358,3.9523,3.9792,3.9911,4.0009,4.033,4.0375,4.036,4.0375,4.0375,4.0284,3.4687,3.4648,3.461,3.4465,3.4174,3.373,3.3535,3.3496,3.3366,3.3114,3.286,3.2828,3.2673,3.2404,3.2404,3.2264,3.2009,3.1996,3.1996,3.1996,3.2009,3.2055,3.22,3.2214,3.2322,3.2467,3.2503,3.2538,3.261,3.2596,3.2739,3.2875,3.2681,3.2581,3.269,3.2131,3.1693,3.1358,3.0857,3.0584,3.0522,3.0538,3.0552,3.0612,3.0612,3.0612,3.0612,3.0612,3.0612,3.0612,3.0612,3.0612,3.0612,3.0612,3.0612,3.0612,3.0612,3.0642,3.0762,3.0895,3.0925,3.0762,3.0762,3.0775,3.0801,3.0785,3.0816,3.0843,3.1221,3.1627,3.199,3.2425,3.2991,3.362,3.3721,3.3877,3.4312,3.438,3.438,3.438,3.453,3.4878,3.5537,3.6141,3.6809,3.7447,3.7926,3.8188,3.8202,3.8202,3.8277,3.8366,3.8441,3.8464,3.8649,3.8686,3.8671,3.8708,3.8745,3.8782,3.8819,3.8819,3.8937,3.9062,3.9084,3.9402,3.9843,4.0005,4.0235,4.0574,4.0633,4.0683,4.0678,4.0654,4.0527,3.517,3.5075,3.5035,3.4714,3.418,3.3594,3.3368,3.3355,3.3315,3.3301,3.322,3.3245,3.2938,3.2471,3.2431,3.2126,3.1713,3.1646,3.1673,3.1673,3.1633,3.1646,3.1696,3.1669,3.1669,3.1743,3.1927,3.2109,3.2255,3.2359,3.2525,3.2739,3.2861,3.2925,3.2891,3.2561,3.236,3.2443,3.1896,3.1176,3.0398,3.0326,3.0417,3.0612,3.0598,3.0612,3.0612,3.0612,3.0612,3.0612,3.0612,3.0612,3.0612,3.0612,3.0612,3.0612,3.0612,3.0612,3.0628,3.0642,3.0672,3.0642,3.0657,3.0859,3.1337,3.1424,3.1438,3.1496,3.148,3.2077,3.3155,3.3373,3.3616,3.4153,3.4269,3.4356,3.4366,3.438,3.438,3.438,3.4907,3.5517,3.6127,3.6794,3.7418,3.7941,3.8115,3.8202,3.8202,3.8202,3.8202,3.824,3.824,3.824,3.8315,3.8277,3.8352,3.8501,3.8516,3.8575,3.8686,3.8819,3.8944,3.9303,3.9658,3.9856,4.0341,4.063,4.0621,4.0822,4.0891,4.0768,4.0709,4.0812,4.061,3.5154,3.5072,3.5072,3.4816,3.4319,3.3932,3.3677,3.3541,3.3528,3.3541,3.3541,3.3541,3.3235,3.2761,3.2645,3.2396,3.2096,3.1876,3.1837,3.1798,3.1628,3.1624,3.1698,3.1505,3.1471,3.1609,3.1683,3.178,3.189,3.2132,3.2336,3.2444,3.2668,3.2846,3.2832,3.28,3.2611,3.2316,3.2179,3.1782,3.1173,3.0871,3.0623,3.046,3.0403,3.0477,3.0582,3.0612,3.0612,3.0612,3.0612,3.0612,3.0612,3.0612,3.0612,3.0612,3.0612,3.0612,3.0612,3.0612,3.0612,3.0612,3.093,3.125,3.1466,3.1843,3.2251,3.2614,3.2672,3.2933,3.346,3.3837,3.4138,3.437,3.438,3.438,3.438,3.438,3.453,3.4922,3.5247,3.5813,3.6722,3.7433,3.7897,3.8173,3.8202,3.8202,3.8202,3.8202,3.8202,3.8202,3.8202,3.8202,3.8202,3.8202,3.824,3.8329,3.8329,3.8389,3.8485,3.8858,3.9142,3.9443,3.9764,4.0232,4.0781,4.0967,4.1011,4.123,4.1522,4.1536,4.1536,4.1536,4.1259,3.4867,3.4825,3.4743,3.4522,3.4189,3.4076,3.3894,3.3713,3.3713,3.3713,3.3713,3.3713,3.354,3.3155,3.2892,3.2576,3.2313,3.2087,3.2007,3.1996,3.1743,3.1733,3.1811,3.1432,3.1373,3.151,3.1415,3.141,3.1522,3.1853,3.2036,3.2059,3.2395,3.2574,3.261,3.2775,3.2708,3.2333,3.2465,3.2328,3.1838,3.1537,3.1105,3.0549,3.0321,3.0326,3.0507,3.0507,3.0538,3.0612,3.0612,3.0612,3.0612,3.0612,3.0612,3.0612,3.0612,3.0612,3.0612,3.0757,3.0859,3.0903,3.1438,3.1828,3.2028,3.2402,3.2952,3.3483,3.3599,3.3618,3.3775,3.4138,3.4399,3.438,3.438,3.438,3.4312,3.4428,3.4775,3.5195,3.5559,3.6179,3.7207,3.7875,3.8188,3.8202,3.8202,3.8202,3.8202,3.8202,3.8202,3.8202,3.8202,3.8202,3.8202,3.8202,3.8202,3.8202,3.8217,3.8275,3.8391,3.8942,3.9567,3.9974,4.0187,4.0568,4.1273,4.1436,4.1395,4.186,4.2063,4.2061,4.1959,4.2034,4.1874,3.4314,3.4118,3.3894,3.3797,3.3725,3.3725,3.3713,3.367,3.367,3.367,3.367,3.367,3.3687,3.3588,3.3085,3.2585,3.2137,3.2056,3.2069,3.2056,3.2007,3.1968,3.197,3.1484,3.1332,3.15,3.1137,3.1053,3.1325,3.1522,3.1646,3.1633,3.2023,3.2205,3.2241,3.2538,3.269,3.2607,3.2806,3.2702,3.2186,3.2246,3.1834,3.103,3.0454,3.0244,3.0325,3.0341,3.0387,3.0612,3.0582,3.0612,3.0582,3.0582,3.0582,3.0611,3.0597,3.0641,3.0713,3.1147,3.142,3.1524,3.2028,3.2605,3.2893,3.3095,3.3341,3.3837,3.3837,3.3988,3.4197,3.4274,3.4346,3.4346,3.438,3.4312,3.4185,3.4689,3.4915,3.5139,3.5969,3.6859,3.7704,3.8052,3.8127,3.8165,3.8165,3.8165,3.8127,3.8165,3.8165,3.8165,3.8165,3.8165,3.8202,3.8202,3.8202,3.8246,3.8318,3.8434,3.8841,3.9305,3.9973,4.0525,4.0844,4.1265,4.1816,4.202,4.1961,4.2092,4.2092,4.2092,4.2092,4.2092,4.1976,3.3937,3.3839,3.3768,3.3641,3.3513,3.3513,3.3428,3.3326,3.3326,3.3313,3.3326,3.3326,3.3313,3.33,3.3123,3.3005,3.2886,3.276,3.2718,3.268,3.2434,3.2311,3.2288,3.1888,3.1739,3.1793,3.1626,3.1487,3.1381,3.1296,3.1286,3.1434,3.1669,3.1817,3.189,3.2191,3.2372,3.2408,3.2682,3.27,3.2464,3.2284,3.2024,3.1705,3.1348,3.1016,3.0742,3.0728,3.0618,3.0294,3.0294,3.0294,3.0294,3.0294,3.045,3.0795,3.0852,3.1025,3.1412,3.1639,3.1768,3.1797,3.2374,3.2834,3.3025,3.3384,3.3722,3.3874,3.3896,3.3985,3.402,3.4088,3.4074,3.4088,3.4088,3.4241,3.4501,3.4767,3.5168,3.5925,3.6782,3.7368,3.7587,3.7763,3.7801,3.7839,3.7839,3.7839,3.7825,3.7839,3.7839,3.7801,3.7801,3.7801,3.7801,3.8052,3.8231,3.8362,3.8492,3.8812,3.9189,3.9963,4.0673,4.096,4.1337,4.1657,4.2063,4.2063,4.2092,4.2092,4.2092,4.2092,4.2092,4.2092,4.2092,3.3598,3.3598,3.3513,3.3441,3.3313,3.3326,3.3227,3.3124,3.3124,3.3124,3.3124,3.3124,3.3124,3.3124,3.3124,3.3154,3.327,3.3154,3.3124,3.3086,3.2806,3.2727,3.2626,3.2244,3.21,3.2115,3.2043,3.1882,3.1628,3.1267,3.1185,3.1374,3.1404,3.1447,3.1559,3.1853,3.2,3.2059,3.2336,3.2538,3.2519,3.2415,3.2298,3.2278,3.2122,3.1773,3.1254,3.1212,3.1073,3.0737,3.068,3.0694,3.068,3.068,3.0865,3.1219,3.1322,3.1461,3.1874,3.2088,3.2249,3.2231,3.2835,3.3191,3.32,3.3536,3.375,3.3709,3.3709,3.3724,3.3724,3.3709,3.3758,3.389,3.4068,3.4304,3.4676,3.5103,3.575,3.6566,3.7144,3.7453,3.7495,3.7572,3.761,3.761,3.761,3.761,3.761,3.761,3.761,3.761,3.761,3.7649,3.7649,3.7839,3.7929,3.8083,3.8568,3.8953,3.9537,4.0419,4.1097,4.1369,4.1671,4.1961,4.2092,4.2092,4.2092,4.2092,4.2092,4.2092,4.2092,4.2092,4.2092,3.3398,3.3356,3.3197,3.3111,3.3124,3.3124,3.3124,3.3124,3.3124,3.3124,3.3124,3.3124,3.3124,3.3124,3.3124,3.3124,3.3124,3.3124,3.3124,3.3111,3.3074,3.3061,3.3011,3.2508,3.2353,3.2494,3.2179,3.1992,3.1994,3.1496,3.1318,3.1371,3.1173,3.1178,3.1272,3.1485,3.1609,3.1706,3.2,3.2205,3.2241,3.2448,3.2585,3.2599,3.2629,3.2333,3.174,3.1702,3.1697,3.1738,3.1771,3.1842,3.1728,3.1695,3.1828,3.1823,3.1885,3.1899,3.2013,3.2559,3.2844,3.2881,3.3477,3.361,3.3443,3.3479,3.3466,3.3361,3.3326,3.3312,3.329,3.3347,3.3564,3.3899,3.4305,3.4541,3.4838,3.5623,3.6519,3.6873,3.7109,3.7264,3.7303,3.738,3.7471,3.7471,3.751,3.7495,3.7495,3.7495,3.7572,3.7572,3.7495,3.7457,3.751,3.7601,3.7615,3.7715,3.8378,3.8943,3.9632,4.0421,4.1138,4.1524,4.1693,4.1953,4.1995,4.1995,4.2092,4.2092,4.2092,4.2092,4.2092,4.2092,4.2092,3.3197,3.3197,3.3124,3.3124,3.3124,3.3124,3.3124,3.3124,3.3124,3.3124,3.3124,3.3124,3.3124,3.3124,3.3124,3.3124,3.3124,3.3124,3.3124,3.3124,3.3124,3.3124,3.3074,3.288,3.2847,3.2802,3.2394,3.2212,3.2206,3.179,3.1505,3.1279,3.1216,3.106,3.095,3.1112,3.1248,3.1397,3.1633,3.1793,3.1817,3.2169,3.2336,3.2372,3.2574,3.2553,3.2396,3.2109,3.1873,3.1674,3.1603,3.1636,3.1617,3.165,3.1815,3.2182,3.2238,3.2464,3.2831,3.3028,3.3141,3.3184,3.3283,3.3248,3.3178,3.3072,3.3002,3.2895,3.2895,3.2881,3.2965,3.3276,3.3692,3.4065,3.4162,3.4587,3.5293,3.5976,3.639,3.6559,3.6668,3.6668,3.6693,3.6889,3.7021,3.7021,3.7123,3.7187,3.7187,3.7187,3.7187,3.7187,3.7187,3.7187,3.7201,3.7328,3.7469,3.7774,3.8402,3.9033,3.9722,4.0419,4.1105,4.1518,4.1729,4.1856,4.1856,4.1897,4.1953,4.2036,4.2036,4.2036,4.2092,4.2092,4.2092,3.3124,3.3124,3.3124,3.3124,3.3124,3.3124,3.3124,3.3124,3.3124,3.3124,3.3124,3.3124,3.3124,3.3124,3.3124,3.3124,3.3124,3.3124,3.3124,3.3124,3.3124,3.3124,3.3124,3.3124,3.3124,3.3074,3.2704,3.2583,3.2685,3.2155,3.1823,3.168,3.1478,3.1213,3.0945,3.1021,3.1108,3.1114,3.1286,3.141,3.1559,3.1817,3.1963,3.1986,3.2191,3.2359,3.2475,3.2252,3.2069,3.1957,3.1956,3.1942,3.1956,3.1983,3.2123,3.2402,3.2528,3.2695,3.3044,3.3044,3.3086,3.3051,3.2952,3.2881,3.2881,3.2775,3.269,3.269,3.2938,3.3049,3.3146,3.3578,3.4067,3.4506,3.4548,3.4927,3.5828,3.6235,3.6363,3.6445,3.6445,3.6405,3.6445,3.6484,3.6603,3.6603,3.6693,3.6758,3.6758,3.6758,3.6811,3.6811,3.6772,3.6772,3.68,3.6995,3.7274,3.7826,3.8462,3.9118,3.9818,4.0529,4.1226,4.1366,4.1564,4.1606,4.1606,4.1689,4.1745,4.1856,4.1939,4.1995,4.1995,4.2092,4.2092,3.3124,3.3124,3.3124,3.3124,3.3124,3.3124,3.3124,3.3124,3.3124,3.3124,3.3124,3.3124,3.3124,3.3124,3.3124,3.3124,3.3124,3.3124,3.3124,3.3124,3.3124,3.3124,3.3124,3.3124,3.3124,3.3111,3.3074,3.3074,3.2998,3.2546,3.2323,3.2313,3.1911,3.1536,3.1289,3.1213,3.1126,3.0879,3.0978,3.1153,3.1261,3.1447,3.1559,3.1596,3.1669,3.1853,3.2096,3.2114,3.2282,3.2627,3.2573,3.2581,3.2656,3.269,3.2642,3.2656,3.2676,3.2684,3.2725,3.2761,3.2739,3.2704,3.2668,3.2668,3.2596,3.2525,3.2544,3.264,3.3051,3.3431,3.3569,3.4026,3.455,3.502,3.5125,3.5558,3.6174,3.6258,3.6152,3.6232,3.6325,3.6325,3.6206,3.6246,3.6286,3.6312,3.6312,3.6338,3.6391,3.6417,3.6391,3.6431,3.651,3.6716,3.6825,3.7047,3.7394,3.8199,3.8684,3.9143,3.98,4.0463,4.1015,4.117,4.1311,4.1354,4.1396,4.148,4.1564,4.1647,4.1773,4.1856,4.1897,4.1953,4.2036,3.3124,3.3124,3.3124,3.3124,3.3124,3.3124,3.3136,3.3124,3.3149,3.3212,3.3149,3.3124,3.3149,3.3124,3.3136,3.3124,3.3124,3.3124,3.3124,3.3124,3.3124,3.3124,3.3124,3.3124,3.3124,3.3124,3.3124,3.3124,3.3068,3.2893,3.2671,3.2256,3.2185,3.189,3.1597,3.1549,3.1376,3.1112,3.1113,3.1048,3.0914,3.1088,3.1211,3.1397,3.1522,3.1646,3.1757,3.1757,3.2046,3.2618,3.269,3.269,3.2654,3.2654,3.2618,3.2618,3.2654,3.2654,3.2654,3.2654,3.2632,3.2489,3.2359,3.2264,3.2096,3.1986,3.2078,3.2374,3.2683,3.2952,3.3396,3.3947,3.4485,3.4996,3.5224,3.5386,3.5467,3.5453,3.5453,3.5453,3.5494,3.5494,3.5534,3.5616,3.5696,3.5723,3.5804,3.5924,3.6005,3.6045,3.6018,3.6312,3.6446,3.6709,3.697,3.7177,3.7661,3.8546,3.8962,3.9102,3.969,4.0238,4.0618,4.0873,4.1001,4.1043,4.117,4.1255,4.1381,4.1423,4.1507,4.1564,4.1717,4.1785,4.1897,3.3124,3.3124,3.3124,3.3124,3.3162,3.3319,3.342,3.347,3.3684,3.3771,3.3721,3.3495,3.342,3.3407,3.3194,3.3124,3.3124,3.3124,3.3124,3.3124,3.3124,3.3124,3.3124,3.3124,3.3124,3.3124,3.3124,3.3124,3.3124,3.3124,3.2923,3.2654,3.2566,3.2332,3.1912,3.1902,3.1759,3.1476,3.1388,3.1252,3.0945,3.1034,3.1005,3.1089,3.1187,3.1261,3.1461,3.1559,3.1803,3.2141,3.2214,3.2214,3.2264,3.2264,3.2228,3.2228,3.225,3.2214,3.2228,3.2228,3.2178,3.2082,3.1986,3.2011,3.2075,3.1993,3.2144,3.2715,3.2969,3.3302,3.3661,3.4153,3.4564,3.4897,3.499,3.5018,3.5072,3.5113,3.5127,3.5072,3.5072,3.5072,3.5072,3.5208,3.5249,3.5318,3.5399,3.548,3.5562,3.5629,3.571,3.598,3.6225,3.6416,3.6823,3.7108,3.749,3.8419,3.9018,3.9159,3.9542,3.9992,4.0247,4.0487,4.0645,4.0787,4.0873,4.0944,4.1071,4.1156,4.1213,4.1339,4.1451,4.1563,4.1717,3.3124,3.3124,3.3144,3.3199,3.3269,3.3746,3.3985,3.4073,3.4424,3.458,3.4537,3.4173,3.3922,3.3872,3.342,3.3156,3.3124,3.3124,3.3124,3.3124,3.3124,3.3124,3.3124,3.3124,3.3124,3.3124,3.3124,3.3124,3.3124,3.3124,3.3124,3.3036,3.3048,3.2792,3.2445,3.2303,3.2084,3.1804,3.1731,3.1574,3.1327,3.1291,3.1241,3.1099,3.0956,3.1069,3.123,3.1352,3.1447,3.1447,3.1559,3.1669,3.1633,3.1646,3.1633,3.1669,3.1706,3.1669,3.1633,3.1706,3.1699,3.1729,3.1755,3.1867,3.2268,3.2337,3.255,3.3106,3.3768,3.382,3.4057,3.4411,3.4526,3.4577,3.4452,3.4564,3.4812,3.499,3.5031,3.5031,3.499,3.5031,3.5031,3.5044,3.5003,3.4936,3.4977,3.5059,3.5154,3.5236,3.5343,3.5545,3.5785,3.6033,3.654,3.7103,3.7534,3.8144,3.8776,3.9088,3.9382,3.9738,3.9911,4.014,4.0343,4.04,4.0414,4.0544,4.073,4.0859,4.0915,4.1071,4.1241,4.1325,4.1423,3.3124,3.3149,3.3533,3.3721,3.3809,3.4299,3.455,3.4562,3.4643,3.4826,3.4668,3.46,3.4311,3.3909,3.3746,3.3508,3.3106,3.3124,3.3124,3.3124,3.3124,3.3124,3.3124,3.3124,3.3124,3.3124,3.3124,3.3124,3.3124,3.3124,3.3124,3.3124,3.3124,3.3074,3.2893,3.2792,3.2604,3.2194,3.2081,3.1928,3.1673,3.1599,3.1591,3.1573,3.1318,3.1125,3.1113,3.0867,3.0685,3.0798,3.1239,3.1617,3.1511,3.1522,3.1511,3.1551,3.1575,3.1599,3.1599,3.1617,3.171,3.1919,3.1947,3.2158,3.2542,3.2463,3.2671,3.3086,3.3224,3.3496,3.3807,3.3875,3.4008,3.4021,3.3924,3.3924,3.4063,3.4356,3.4522,3.4522,3.4564,3.4564,3.4535,3.4522,3.4564,3.4551,3.4605,3.4647,3.4714,3.4824,3.5035,3.5218,3.5732,3.6098,3.6586,3.7074,3.7487,3.7867,3.8416,3.88,3.9114,3.9424,3.9615,3.9821,4.0039,4.0053,4.0037,4.0298,4.0487,4.0573,4.0645,4.083,4.1001,4.1029,4.1156,3.3219,3.3495,3.3784,3.4048,3.4361,3.4864,3.5056,3.5107,3.5391,3.5491,3.5429,3.524,3.4756,3.4274,3.3997,3.3596,3.3194,3.3124,3.3124,3.3124,3.3124,3.3124,3.3124,3.3124,3.3124,3.3124,3.3124,3.3124,3.3124,3.3124,3.3124,3.3124,3.3124,3.3124,3.3124,3.3124,3.2918,3.2704,3.2604,3.2395,3.2,3.1953,3.1858,3.1884,3.1685,3.1559,3.156,3.1342,3.1188,3.1267,3.1526,3.1547,3.1116,3.105,3.1142,3.139,3.143,3.1548,3.1679,3.1797,3.1863,3.2032,3.2084,3.233,3.2613,3.266,3.2903,3.3261,3.3412,3.3444,3.3674,3.3713,3.3713,3.3713,3.3713,3.3713,3.3713,3.3937,3.4063,3.4063,3.4092,3.4063,3.4063,3.4134,3.4092,3.4092,3.4092,3.4147,3.4302,3.4422,3.4764,3.5145,3.5748,3.6243,3.67,3.7136,3.7391,3.771,3.8011,3.8304,3.8517,3.889,3.9247,3.9424,3.9571,3.9659,3.9672,3.998,4.0198,4.027,4.04,4.0573,4.0702,4.0787,4.0944,3.347,3.3922,3.4073,3.4424,3.4889,3.5382,3.5621,3.5696,3.6157,3.6267,3.6329,3.5843,3.5366,3.4781,3.4299,3.3709,3.325,3.3124,3.3124,3.3124,3.3124,3.3124,3.3124,3.3124,3.3124,3.3124,3.3124,3.3124,3.3124,3.3124,3.3124,3.3124,3.3124,3.3124,3.3124,3.3124,3.3086,3.3036,3.3011,3.2817,3.2428,3.2382,3.2264,3.2136,3.1968,3.1973,3.1922,3.1807,3.1809,3.1913,3.1926,3.1415,3.0854,3.065,3.0778,3.1356,3.1421,3.1614,3.1872,3.2012,3.2023,3.2083,3.2188,3.2457,3.2867,3.3005,3.3197,3.3398,3.3534,3.3492,3.3586,3.3543,3.3543,3.3586,3.3586,3.3586,3.3598,3.3598,3.3654,3.3755,3.3839,3.3839,3.3797,3.3797,3.3755,3.367,3.3683,3.3747,3.3926,3.4238,3.4714,3.5252,3.5921,3.6386,3.6871,3.6981,3.7304,3.7461,3.7677,3.7802,3.7972,3.8109,3.844,3.8827,3.8962,3.9096,3.9305,3.9571,3.9747,3.9922,4.0097,4.0328,4.0457,4.0544,4.0702,3.3809,3.3985,3.4843,3.5282,3.5433,3.5994,3.6194,3.6279,3.6367,3.6417,3.6392,3.6292,3.5881,3.5295,3.4768,3.4035,3.3269,3.3124,3.3124,3.3124,3.3124,3.3124,3.3124,3.3124,3.3124,3.3124,3.3124,3.3124,3.3124,3.3124,3.3124,3.3124,3.3124,3.3124,3.3124,3.3124,3.3124,3.3124,3.3124,3.2968,3.288,3.2872,3.286,3.2663,3.2432,3.2227,3.2101,3.1773,3.1508,3.1508,3.1521,3.1433,3.1387,3.1565,3.1736,3.1775,3.1826,3.1901,3.2079,3.2069,3.2301,3.2583,3.2695,3.2966,3.3308,3.339,3.3331,3.3352,3.3326,3.324,3.3185,3.3227,3.324,3.324,3.324,3.3227,3.324,3.3283,3.3356,3.3513,3.3586,3.3628,3.3586,3.3543,3.3556,3.362,3.3709,3.3887,3.413,3.4517,3.5001,3.5558,3.6199,3.6565,3.6975,3.7001,3.7129,3.7116,3.7248,3.7294,3.7374,3.7294,3.7526,3.8089,3.8466,3.8679,3.8904,3.9158,3.9305,3.9438,3.976,4.0067,4.011,4.0184,4.0428,3.406,3.4399,3.5169,3.5671,3.5981,3.6279,3.6417,3.6417,3.6417,3.6417,3.6417,3.6392,3.6069,3.547,3.4919,3.411,3.3319,3.3124,3.3124,3.3124,3.3124,3.3124,3.3124,3.3124,3.3124,3.3124,3.3124,3.3124,3.3124,3.3124,3.3124,3.3124,3.3124,3.3124,3.3124,3.3124,3.3124,3.3124,3.3124,3.3124,3.3124,3.3124,3.3124,3.3023,3.283,3.2679,3.2604,3.2466,3.2277,3.2332,3.2332,3.2265,3.2323,3.2357,3.2393,3.2177,3.2114,3.2266,3.2482,3.257,3.2735,3.2912,3.3018,3.3119,3.3267,3.33,3.3283,3.324,3.3197,3.3124,3.3124,3.3124,3.3124,3.3124,3.3124,3.3081,3.3124,3.3124,3.3154,3.3227,3.327,3.3313,3.3343,3.3356,3.3398,3.35,3.3665,3.3969,3.4299,3.4756,3.5155,3.5605,3.61,3.6366,3.6671,3.6743,3.6875,3.6875,3.6922,3.6968,3.7015,3.7015,3.7201,3.7526,3.7893,3.8167,3.8498,3.8724,3.8814,3.9007,3.9305,3.9615,3.9689,3.9878,4.011,3.4387,3.4893,3.5433,3.5968,3.6367,3.6417,3.6417,3.6417,3.6417,3.6417,3.6417,3.638,3.6056,3.5433,3.4756,3.3997,3.3162,3.3124,3.3124,3.3124,3.3124,3.3124,3.3124,3.3124,3.3124,3.3124,3.3124,3.3124,3.3124,3.3124,3.3124,3.3124,3.3124,3.3124,3.3124,3.3124,3.3124,3.3124,3.3124,3.3124,3.3124,3.3124,3.3124,3.3124,3.3124,3.3086,3.3048,3.2998,3.2986,3.2998,3.3036,3.3074,3.3111,3.3124,3.2898,3.2478,3.239,3.2654,3.2923,3.3048,3.3003,3.3066,3.3099,3.3124,3.3111,3.3167,3.3124,3.3124,3.3124,3.3124,3.3124,3.3124,3.3124,3.3081,3.3081,3.3038,3.2995,3.2909,3.2779,3.2853,3.2909,3.2921,3.2934,3.2989,3.3002,3.3302,3.3477,3.3958,3.4352,3.4782,3.5194,3.5494,3.5865,3.6113,3.631,3.6345,3.6499,3.664,3.6687,3.6687,3.6781,3.6875,3.7062,3.7155,3.7341,3.7605,3.7939,3.8272,3.8453,3.8634,3.8948,3.9158,3.9322,3.9557,3.9791,3.4906,3.5433,3.6031,3.6355,3.6392,3.6417,3.6417,3.6417,3.6417,3.6417,3.6417,3.638,3.6044,3.5332,3.4449,3.3696,3.3244,3.3124,3.3124,3.3124,3.3124,3.3124,3.3124,3.3124,3.3124,3.3124,3.3124,3.3124,3.3124,3.3124,3.3124,3.3124,3.3124,3.3124,3.3124,3.3124,3.3124,3.3124,3.3124,3.3124,3.3124,3.3124,3.3124,3.3124,3.3124,3.3124,3.3124,3.3124,3.3124,3.3124,3.3124,3.3124,3.3124,3.3124,3.3111,3.3036,3.3023,3.3048,3.3111,3.3124,3.3124,3.3124,3.3124,3.3124,3.3124,3.3124,3.3124,3.3124,3.3124,3.3124,3.3124,3.3124,3.3124,3.3038,3.2896,3.281,3.2779,3.2736,3.2605,3.2505,3.2586,3.253,3.253,3.2586,3.2635,3.298,3.3362,3.388,3.4394,3.4885,3.5207,3.5513,3.5672,3.5893,3.5991,3.6038,3.6181,3.6405,3.6405,3.6452,3.6593,3.6687,3.6687,3.6781,3.6909,3.7108,3.7479,3.7769,3.7998,3.8258,3.8485,3.8697,3.8953,3.9189,3.9482,3.5282,3.5545,3.6132,3.6417,3.6417,3.6417,3.6417,3.6417,3.6417,3.6417,3.6417,3.6405,3.5906,3.5052,3.4223,3.3608,3.3224,3.3124,3.3124,3.3124,3.3124,3.3124,3.3124,3.3124,3.3124,3.3124,3.3124,3.3124,3.3124,3.3124,3.3124,3.3124,3.3124,3.3124,3.3124,3.3124,3.3124,3.3124,3.3124,3.3124,3.3124,3.3124,3.3124,3.3124,3.3124,3.3124,3.3124,3.3124,3.3124,3.3124,3.3124,3.3124,3.3124,3.3124,3.3124,3.3111,3.3111,3.3111,3.3124,3.3124,3.3124,3.3124,3.3124,3.3124,3.3124,3.3124,3.3124,3.3124,3.3124,3.3124,3.3081,3.3124,3.2982,3.2896,3.2723,3.2636,3.2506,3.2475,3.2412,3.2335,3.2305,3.2362,3.2471,3.2723,3.2951,3.3338,3.3738,3.4213,3.4652,3.5115,3.5373,3.5558,3.5607,3.5692,3.5716,3.5764,3.5908,3.6086,3.6193,3.6228,3.6417,3.6452,3.6499,3.6499,3.6593,3.6828,3.7074,3.7307,3.7526,3.7756,3.7985,3.8245,3.8549,3.8863,3.9203,3.5708,3.5793,3.6241,3.6417,3.6417,3.6417,3.6417,3.6417,3.6417,3.6417,3.6367,3.6241,3.5592,3.4776,3.4161,3.3596,3.3136,3.3124,3.3124,3.3124,3.3124,3.3124,3.3124,3.3124,3.3124,3.3124,3.3124,3.3124,3.3124,3.3124,3.3124,3.3124,3.3124,3.3124,3.3124,3.3124,3.3124,3.3124,3.3124,3.3124,3.3124,3.3124,3.3124,3.3124,3.3124,3.3124,3.3124,3.3124,3.3124,3.3124,3.3124,3.3124,3.3124,3.3124,3.3124,3.3124,3.3124,3.3124,3.3124,3.3124,3.3124,3.3124,3.3124,3.3124,3.3124,3.3124,3.3124,3.3124,3.3124,3.3081,3.2982,3.2982,3.2853,3.268,3.255,3.2419,3.2337,3.2284,3.2297,3.2276,3.2292,3.2504,3.2691,3.2991,3.3334,3.3708,3.4141,3.4457,3.4772,3.5052,3.5053,3.509,3.5126,3.5223,3.532,3.5428,3.562,3.5812,3.5908,3.6003,3.6181,3.637,3.6417,3.6417,3.6417,3.6512,3.6747,3.6922,3.7062,3.7387,3.7664,3.7893,3.8167,3.8504,3.8966,3.6355,3.6342,3.6392,3.6417,3.6417,3.6417,3.6417,3.6417,3.6417,3.6417,3.6342,3.5855,3.5282,3.47,3.4148,3.3596,3.3124,3.3124,3.3124,3.3124,3.3124,3.3124,3.3124,3.3124,3.3124,3.3124,3.3124,3.3124,3.3124,3.3124,3.3124,3.3124,3.3124,3.3124,3.3124,3.3124,3.3124,3.3124,3.3124,3.3124,3.3124,3.3124,3.3124,3.3124,3.3124,3.3124,3.3124,3.3124,3.3124,3.3124,3.3124,3.3124,3.3124,3.3124,3.3124,3.3124,3.3124,3.3124,3.3124,3.3124,3.3124,3.3124,3.3124,3.3124,3.3124,3.3124,3.3124,3.3081,3.3081,3.2952,3.2853,3.2711,3.2636,3.2419,3.2269,3.2179,3.2124,3.2121,3.2084,3.216,3.2309,3.25,3.2663,3.2877,3.3363,3.3768,3.3815,3.4162,3.4257,3.4471,3.4397,3.4359,3.4494,3.4628,3.4872,3.5017,3.5223,3.5524,3.5668,3.586,3.6051,3.6193,3.6323,3.6417,3.6417,3.6417,3.6452,3.664,3.6875,3.7074,3.7353,3.7572,3.7893,3.8349,3.8756,3.6417,3.6417,3.6417,3.6417,3.6417,3.6417,3.6417,3.6417,3.6417,3.6417,3.6367,3.5793,3.5194,3.4655,3.4148,3.3596,3.3174,3.3124,3.3124,3.3124,3.3124,3.3124,3.3124,3.3124,3.3124,3.3124,3.3124,3.3124,3.3124,3.3124,3.3124,3.3124,3.3124,3.3124,3.3124,3.3124,3.3124,3.3124,3.3124,3.3124,3.3124,3.3124,3.3124,3.3124,3.3124,3.3124,3.3124,3.3124,3.3124,3.3124,3.3124,3.3124,3.3124,3.3124,3.3124,3.3124,3.3124,3.3124,3.3124,3.3124,3.3124,3.3124,3.3124,3.3124,3.3124,3.3124,3.3124,3.3081,3.2939,3.2766,3.2723,3.2593,3.2431,3.2201,3.201,3.1966,3.1986,3.2035,3.2053,3.2172,3.2322,3.2549,3.2621,3.2741,3.325,3.3733,3.3744,3.3829,3.3871,3.3915,3.3866,3.3927,3.4003,3.4249,3.4482,3.4689,3.4884,3.5175,3.5476,3.5668,3.5812,3.6015,3.6146,3.6288,3.6417,3.6417,3.6465,3.6499,3.664,3.6828,3.7062,3.7248,3.7664,3.8188,3.8599,3.6417,3.6417,3.6417,3.6417,3.6417,3.6417,3.6417,3.6417,3.6417,3.6417,3.638,3.5931,3.532,3.4763,3.4349,3.3709,3.3257,3.3124,3.3124,3.3124,3.3124,3.3124,3.3124,3.3124,3.3124,3.3124,3.3124,3.3124,3.3124,3.3124,3.3124,3.3124,3.3124,3.3124,3.3124,3.3124,3.3124,3.3124,3.3124,3.3124,3.3124,3.3124,3.3124,3.3124,3.3124,3.3124,3.3124,3.3124,3.3124,3.3124,3.3124,3.3124,3.3124,3.3124,3.3124,3.3124,3.3124,3.3124,3.3124,3.3124,3.3124,3.3124,3.3124,3.3124,3.3081,3.3025,3.2939,3.2939,3.2766,3.2593,3.2506,3.2288,3.2196,3.2002,3.1875,3.1805,3.2039,3.2113,3.2158,3.2248,3.2411,3.2495,3.2525,3.2619,3.2753,3.3132,3.3132,3.3181,3.3239,3.3358,3.3419,3.3519,3.3679,3.3915,3.415,3.4396,3.464,3.4835,3.5126,3.538,3.5572,3.5777,3.6015,3.6146,3.6275,3.637,3.643,3.649,3.6512,3.6581,3.6819,3.7143,3.7795,3.8364,3.8655,3.6417,3.6417,3.6417,3.6417,3.6417,3.6417,3.6417,3.6417,3.6417,3.6417,3.6405,3.6219,3.5642,3.4864,3.4525,3.3909,3.3232,3.3124,3.3124,3.3124,3.3124,3.3124,3.3124,3.3124,3.3124,3.3124,3.3124,3.3124,3.3124,3.3124,3.3124,3.3124,3.3124,3.3124,3.3124,3.3124,3.3124,3.3124,3.3124,3.3124,3.3124,3.3124,3.3124,3.3124,3.3124,3.3124,3.3124,3.3124,3.3124,3.3124,3.3124,3.3124,3.3124,3.3124,3.3124,3.3124,3.3124,3.3124,3.3068,3.3081,3.3081,3.3081,3.3081,3.3038,3.3025,3.2896,3.2723,3.2723,3.2519,3.2257,3.2069,3.1866,3.192,3.192,3.1742,3.1855,3.2089,3.2058,3.2073,3.2251,3.2388,3.2448,3.2448,3.2471,3.2409,3.2533,3.2544,3.2594,3.2745,3.2846,3.3008,3.3119,3.3269,3.3519,3.3755,3.4101,3.4347,3.4543,3.4787,3.5078,3.538,3.5572,3.5812,3.6028,3.6295,3.6576,3.6558,3.648,3.6742,3.7016,3.6944,3.7244,3.7925,3.8501,3.882,3.6417,3.6417,3.6417,3.6417,3.6417,3.6417,3.6417,3.6417,3.6417,3.6417,3.6329,3.6006,3.5454,3.4768,3.4299,3.3796,3.325,3.3124,3.3124,3.3124,3.3124,3.3124,3.3124,3.3124,3.3124,3.3124,3.3124,3.3124,3.3124,3.3124,3.3124,3.3124,3.3124,3.3124,3.3124,3.3124,3.3124,3.3124,3.3124,3.3124,3.3124,3.3124,3.3124,3.3124,3.3124,3.3124,3.3124,3.3124,3.3124,3.3124,3.3124,3.3124,3.3124,3.3124,3.3081,3.3068,3.3068,3.2995,3.2896,3.2853,3.2939,3.2939,3.2939,3.2853,3.2797,3.2649,3.2519,3.2444,3.2218,3.1986,3.1805,3.1776,3.1778,3.177,3.1797,3.1982,3.217,3.1942,3.1901,3.2178,3.237,3.2077,3.1936,3.1936,3.1936,3.2037,3.2037,3.2342,3.2493,3.2544,3.2645,3.2706,3.2807,3.3069,3.3331,3.3834,3.4214,3.4521,3.4637,3.4787,3.5078,3.5563,3.5928,3.6355,3.6598,3.6793,3.7025,3.7199,3.74,3.7536,3.7619,3.7714,3.8232,3.8627,3.8871,3.6417,3.6417,3.6417,3.6417,3.6417,3.6417,3.6417,3.6417,3.6417,3.6417,3.6304,3.5793,3.5194,3.47,3.4148,3.3596,3.3162,3.3124,3.3124,3.3124,3.3124,3.3124,3.3124,3.3124,3.3124,3.3124,3.3124,3.3124,3.3124,3.3124,3.3124,3.3124,3.3124,3.3124,3.3124,3.3124,3.3124,3.3124,3.3124,3.3124,3.3124,3.3124,3.3124,3.3124,3.3124,3.3124,3.3124,3.3124,3.3124,3.3124,3.3124,3.3124,3.3124,3.3124,3.3025,3.2982,3.2865,3.2779,3.2649,3.2593,3.268,3.2779,3.2692,3.2593,3.255,3.2388,3.2213,3.2106,3.1894,3.1824,3.1708,3.1713,3.1763,3.175,3.1802,3.2077,3.2029,3.185,3.1656,3.1938,3.1834,3.1578,3.1435,3.1373,3.1322,3.1487,3.164,3.1969,3.2256,3.2296,3.2341,3.2436,3.2509,3.2797,3.3169,3.3614,3.4047,3.443,3.466,3.4875,3.5375,3.595,3.6283,3.6665,3.6986,3.7331,3.7766,3.804,3.8153,3.8391,3.8579,3.8678,3.8714,3.8887,3.9084,3.6417,3.6417,3.6417,3.6417,3.6417,3.6417,3.6417,3.6417,3.6417,3.6392,3.6317,3.5692,3.5069,3.4613,3.4098,3.3558,3.3169,3.3136,3.3124,3.3124,3.3124,3.3124,3.3124,3.3124,3.3124,3.3124,3.3124,3.3124,3.3124,3.3124,3.3124,3.3124,3.3124,3.3124,3.3124,3.3124,3.3124,3.3124,3.3124,3.3124,3.3124,3.3124,3.3124,3.3124,3.3124,3.3124,3.3124,3.3124,3.3124,3.3124,3.3124,3.3081,3.3081,3.3068,3.2896,3.2723,3.2519,3.2487,3.24,3.2388,3.23,3.23,3.2257,3.23,3.2257,3.2094,3.191,3.1857,3.1722,3.1754,3.1737,3.1761,3.1819,3.1843,3.1788,3.1889,3.1827,3.1695,3.1451,3.1333,3.1137,3.0993,3.1015,3.0963,3.1207,3.1343,3.1553,3.1765,3.2003,3.1951,3.2057,3.2344,3.2406,3.2572,3.2981,3.3543,3.3994,3.4479,3.5039,3.5333,3.5851,3.6254,3.6545,3.6883,3.7406,3.7866,3.8341,3.8667,3.8831,3.907,3.9234,3.9209,3.9171,3.9209,3.9423,3.6417,3.6417,3.6417,3.6417,3.6417,3.6417,3.6417,3.6417,3.6405,3.6182,3.5755,3.5157,3.4675,3.411,3.3571,3.3312,3.3187,3.3124,3.3124,3.3124,3.3124,3.3124,3.3124,3.3124,3.3124,3.3124,3.3124,3.3124,3.3124,3.3124,3.3124,3.3124,3.3124,3.3124,3.3124,3.3124,3.3124,3.3124,3.3124,3.3124,3.3124,3.3124,3.3124,3.3124,3.3124,3.3124,3.3124,3.3124,3.3124,3.3124,3.3124,3.3025,3.281,3.281,3.2711,3.2519,3.24,3.2356,3.2169,3.1994,3.1886,3.1757,3.1624,3.1685,3.1673,3.1725,3.1621,3.1636,3.161,3.1623,3.1654,3.1695,3.1671,3.1589,3.1573,3.1552,3.1527,3.127,3.1023,3.089,3.0693,3.0809,3.082,3.1127,3.136,3.1434,3.1498,3.1678,3.1837,3.1802,3.1884,3.2182,3.2501,3.2702,3.3058,3.3573,3.4039,3.4537,3.5138,3.5636,3.5939,3.6284,3.6651,3.7178,3.7831,3.8409,3.8963,3.9141,3.9219,3.9408,3.956,3.956,3.9599,3.9549,3.9601,3.6417,3.6417,3.6417,3.6417,3.638,3.6132,3.6044,3.6044,3.6031,3.5818,3.5433,3.4726,3.4211,3.3884,3.3382,3.3136,3.3136,3.3124,3.3124,3.3124,3.3124,3.3124,3.3124,3.3124,3.3124,3.3124,3.3124,3.3124,3.3124,3.3124,3.3124,3.3124,3.3124,3.3124,3.3124,3.3124,3.3124,3.3124,3.3124,3.3124,3.3124,3.3124,3.3124,3.3124,3.3124,3.3124,3.3149,3.3149,3.3149,3.3081,3.3025,3.2896,3.2636,3.255,3.2332,3.2125,3.1937,3.1761,3.162,3.1702,3.1579,3.1527,3.1385,3.1549,3.1547,3.157,3.1575,3.1623,3.1514,3.1456,3.1517,3.1549,3.144,3.1315,3.1258,3.1197,3.1023,3.0817,3.0682,3.0558,3.0601,3.0737,3.0927,3.1274,3.1474,3.1419,3.1535,3.1703,3.1909,3.1976,3.2052,3.2244,3.2576,3.2899,3.3267,3.3679,3.4144,3.4739,3.5424,3.5862,3.6086,3.6552,3.712,3.7754,3.8338,3.8745,3.9042,3.9299,3.9442,3.9594,3.9697,3.9698,3.9661,3.9648,3.9738,3.6367,3.6317,3.6292,3.6191,3.6191,3.568,3.5433,3.5433,3.5345,3.5345,3.5107,3.4349,3.3897,3.3658,3.3312,3.3136,3.3124,3.3124,3.3124,3.3124,3.3124,3.3124,3.3124,3.3124,3.3124,3.3124,3.3124,3.3124,3.3124,3.3124,3.3124,3.3124,3.3124,3.3124,3.3124,3.3124,3.3187,3.3319,3.3269,3.3275,3.3149,3.3124,3.3124,3.3124,3.3136,3.3106,3.3199,3.3212,3.3169,3.3107,3.3028,3.2959,3.2678,3.245,3.216,3.1937,3.1809,3.1641,3.1555,3.1619,3.1656,3.1693,3.1868,3.1748,3.1562,3.146,3.1493,3.159,3.1502,3.1457,3.1484,3.1355,3.1175,3.1025,3.0876,3.0817,3.0609,3.0548,3.0611,3.059,3.0766,3.0891,3.1048,3.1394,3.1675,3.1543,3.1729,3.1937,3.2006,3.2177,3.2268,3.239,3.2812,3.3181,3.3508,3.3923,3.4351,3.4945,3.5527,3.6028,3.6163,3.6849,3.7696,3.8015,3.823,3.8635,3.8921,3.9154,3.9374,3.9542,3.9645,3.9697,3.9697,3.9697,3.9749,3.6107,3.5658,3.529,3.5115,3.5102,3.4931,3.4868,3.4876,3.4462,3.4324,3.4236,3.401,3.3671,3.3319,3.3237,3.3124,3.3124,3.3124,3.3124,3.3124,3.3124,3.3124,3.3124,3.3124,3.3124,3.3124,3.3124,3.3124,3.3124,3.3124,3.3124,3.3124,3.3124,3.3136,3.3212,3.3212,3.3307,3.3658,3.3696,3.352,3.3282,3.3187,3.3124,3.3162,3.3199,3.3407,3.3533,3.3709,3.384,3.3943,3.3986,3.365,3.3104,3.2817,3.2565,3.2345,3.2065,3.189,3.1705,3.1586,3.1619,3.1428,3.1419,3.1502,3.1453,3.1337,3.1346,3.1499,3.1506,3.145,3.1345,3.1111,3.092,3.0703,3.0505,3.0349,3.0266,3.039,3.0513,3.0772,3.0977,3.1153,3.1288,3.1505,3.1774,3.2043,3.2313,3.2468,3.2416,3.2502,3.2598,3.2745,3.3152,3.3492,3.3748,3.3995,3.4349,3.467,3.5157,3.5642,3.6168,3.6712,3.7304,3.7637,3.7945,3.8315,3.8684,3.905,3.927,3.9426,3.9542,3.9594,3.9697,3.9697,3.9697,3.5466,3.5107,3.4806,3.468,3.4643,3.4462,3.4361,3.4248,3.3771,3.3545,3.3533,3.3508,3.34,3.3093,3.3124,3.3124,3.3124,3.3124,3.3124,3.3124,3.3124,3.3124,3.3124,3.3124,3.3124,3.3124,3.3124,3.3124,3.3124,3.3124,3.3124,3.3149,3.3106,3.3219,3.337,3.3483,3.3709,3.4223,3.4248,3.4085,3.3784,3.3784,3.3809,3.3809,3.3859,3.401,3.4085,3.4261,3.4245,3.4115,3.39,3.3545,3.3083,3.2816,3.2477,3.223,3.2017,3.198,3.1716,3.1601,3.1532,3.1311,3.1312,3.1484,3.1289,3.123,3.1291,3.1359,3.1168,3.1068,3.0874,3.0692,3.0391,3.0183,3.0067,2.9993,3.0011,3.0204,3.0471,3.0812,3.1155,3.1629,3.1795,3.2064,3.2225,3.2297,3.2618,3.2638,3.2659,3.2669,3.2841,3.2955,3.3239,3.3409,3.3448,3.3765,3.4201,3.4524,3.4813,3.5412,3.6059,3.644,3.6874,3.7251,3.7572,3.7945,3.8315,3.8684,3.9102,3.927,3.9426,3.953,3.9581,3.9697,3.9697,3.47,3.458,3.4525,3.45,3.4449,3.401,3.3796,3.3709,3.3294,3.3136,3.3162,3.3174,3.3124,3.3124,3.3124,3.3124,3.3124,3.3124,3.3124,3.3124,3.3124,3.3124,3.3124,3.3124,3.3124,3.3124,3.3124,3.3124,3.3124,3.3124,3.3149,3.3187,3.3294,3.3458,3.3847,3.406,3.4274,3.4675,3.4793,3.4889,3.4839,3.4731,3.4625,3.465,3.4693,3.4705,3.4788,3.4735,3.4599,3.4348,3.3995,3.3563,3.3209,3.297,3.2541,3.2264,3.1974,3.1649,3.1356,3.1439,3.1351,3.1306,3.1455,3.1341,3.1084,3.1032,3.1124,3.0981,3.0744,3.064,3.0443,3.0235,2.9921,2.972,2.9666,2.9725,2.9873,3.0123,3.0567,3.0917,3.1445,3.1942,3.2215,3.2483,3.2576,3.2649,3.2669,3.2669,3.2669,3.2669,3.2727,3.2841,3.2955,3.3136,3.325,3.3533,3.3928,3.4266,3.459,3.5246,3.584,3.6114,3.644,3.6862,3.7185,3.7518,3.7892,3.8262,3.8631,3.905,3.9154,3.9258,3.9478,3.9581,3.9633,3.4462,3.401,3.3583,3.3407,3.3395,3.3325,3.3232,3.3232,3.3144,3.3124,3.3124,3.3124,3.3124,3.3124,3.3124,3.3124,3.3124,3.3124,3.3124,3.3124,3.3124,3.3124,3.3124,3.3124,3.3124,3.3124,3.3124,3.3093,3.3275,3.3237,3.3375,3.3721,3.3746,3.401,3.4462,3.465,3.4813,3.5169,3.5441,3.5504,3.5604,3.5366,3.4743,3.468,3.468,3.4969,3.5194,3.516,3.5214,3.5071,3.4547,3.4029,3.3605,3.3191,3.2787,3.2275,3.1977,3.164,3.1466,3.1291,3.1164,3.0941,3.0961,3.0909,3.0703,3.0536,3.0484,3.0339,3.0183,3.0235,3.0078,2.9869,2.9617,2.9515,2.9457,2.9635,2.9886,3.0379,3.0954,3.1355,3.1758,3.2179,3.2473,3.2618,3.2628,3.2669,3.2669,3.2669,3.2669,3.2669,3.2669,3.2727,3.2794,3.2965,3.3136,3.325,3.3533,3.3928,3.4266,3.4869,3.5301,3.5687,3.6004,3.6429,3.6754,3.7089,3.7465,3.7838,3.8198,3.8566,3.8788,3.8945,3.9206,3.9413,3.9426]}]]